[[{"header":{"parameterUnit":"m.s-1","parameterCategory":1,"la1":31.0,"la2":29.5877,"lo1":-88.7671,"lo2":-86.6584,"dy":0.0162,"dx":0.0185,"nx":115,"ny":88,"refTime":"2024-03-24T00:00:00:Z","depth":0,"parameterNumber":2,"parameterNumberName":"U-component_of_WINDS"},"data":[0.0,0.0,0.0,0.0,0.0,0.0,0.0,0.0,0.0,0.0,0.0,0.0,0.0,0.0,0.0,0.0,0.0,0.0,0.0,0.0,0.0,0.0,0.0,0.0,0.0,0.0,0.0,0.0,0.0,0.0,0.0,0.0,0.0,0.0,0.0,0.0,0.0,0.0,0.0,0.0,0.0,0.0,0.0,0.0,0.0,0.0,0.0,0.0,0.0,0.0,0.0,0.0,0.0,0.0,0.0,0.0,0.0,0.0,0.0,0.0,0.0,0.0,0.0,0.0,0.0,0.0,0.0,0.0,0.0,0.0,0.0,0.0,0.0,0.0,0.0,0.0,0.0,0.0,0.0,0.0,0.0,0.0,0.0,0.0,0.0,0.0,0.0,0.0,0.0,0.0,0.0,0.0,0.0,0.0,0.0,0.0,0.0,0.0,0.0,0.0,0.0,0.0,0.0,0.0,0.0,0.0,0.0,0.0,0.0,0.0,0.0,0.0,0.0,0.0,0.0,0.0,0.0,0.0,0.0,0.0,0.0,0.0,0.0,0.0,0.0,0.0,0.0,0.0,0.0,0.0,0.0,0.0,0.0,0.0,0.0,0.0,0.0,0.0,0.0,0.0,0.0,0.0,0.0,0.0,0.0,0.0,0.0,0.0,0.0,0.0,0.0,0.0,0.0,0.0,0.0,0.0,0.0,0.0,0.0,0.0,0.0,0.0,0.0,0.0,0.0,0.0,0.0,0.0,0.0,0.0,0.0,0.0,0.0,0.0,0.0,0.0,0.0,0.0,0.0,0.0,0.0,0.0,0.0,0.0,0.0,0.0,0.0,0.0,0.0,0.0,0.0,0.0,0.0,0.0,0.0,0.0,0.0,0.0,0.0,0.0,0.0,0.0,0.0,0.0,0.0,0.0,0.0,0.0,0.0,0.0,0.0,0.0,0.0,0.0,0.0,0.0,0.0,0.0,0.0,0.0,0.0,0.0,0.0,0.0,0.0,0.0,0.0,0.0,0.0,0.0,0.0,0.0,0.0,0.0,0.0,0.0,0.0,0.0,0.0,0.0,0.0,0.0,0.0,0.0,0.0,0.0,0.0,0.0,0.0,0.0,0.0,0.0,0.0,0.0,0.0,0.0,0.0,0.0,0.0,0.0,0.0,0.0,0.0,0.0,0.0,0.0,0.0,0.0,0.0,0.0,0.0,0.0,0.0,0.0,0.0,0.0,0.0,0.0,0.0,0.0,0.0,0.0,0.0,0.0,0.0,0.0,0.0,0.0,0.0,0.0,0.0,0.0,0.0,0.0,0.0,0.0,0.0,0.0,0.0,0.0,0.0,0.0,0.0,0.0,0.0,0.0,0.0,0.0,0.0,0.0,0.0,0.0,0.0,0.0,0.0,0.0,0.0,0.0,0.0,0.0,0.0,0.0,0.0,0.0,0.0,0.0,0.0,0.0,0.0,0.0,0.0,0.0,0.0,0.0,0.0,0.0,0.0,0.0,0.0,0.0,0.0,0.0,0.0,0.0,0.0,0.0,0.0,0.0,0.0,0.0,0.0,0.0,0.0,0.0,0.0,0.0,0.0,0.0,0.0,0.0,0.0,0.0,0.0,0.0,0.0,0.0,0.0,0.0,0.0,0.0,0.0,0.0,0.0,0.0,0.0,0.0,0.0,0.0,0.0,0.0,0.0,0.0,0.0,0.0,0.0,0.0,0.0,0.0,0.0,0.0,0.0,0.0,0.0,0.0,0.0,0.0,0.0,0.0,0.0,0.0,0.0,0.0,0.0,0.0,0.0,0.0,0.0,0.0,0.0,0.0,0.0,0.0,0.0,0.0,0.0,0.0,0.0,0.0,0.0,0.0,0.0,0.0,0.0,0.0,0.0,0.0,0.0,0.0,0.0,0.0,0.0,0.0,0.0,0.0,0.0,0.0,0.0,0.0,0.0,0.0,0.0,0.0,0.0,0.0,0.0,0.0,0.0,0.0,0.0,0.0,0.0,0.0,0.0,0.0,0.0,0.0,0.0,0.0,0.0,0.0,0.0,0.0,0.0,0.0,0.0,0.0,0.0,0.0,0.0,0.0,0.0,0.0,0.0,0.0,0.0,0.0,0.0,0.0,0.0,0.0,0.0,0.0,0.0,0.0,0.0,0.0,0.0,0.0,0.0,0.0,0.0,0.0,0.0,0.0,0.0,0.0,0.0,0.0,0.0,0.0,0.0,0.0,0.0,0.0,0.0,0.0,0.0,0.0,0.0,0.0,0.0,0.0,0.0,0.0,0.0,0.0,0.0,0.0,0.0,0.0,0.0,0.0,0.0,0.0,0.0,0.0,0.0,0.0,0.0,0.0,0.0,0.0,0.0,0.0,0.0,0.0,0.0,0.0,0.0,0.0,0.0,0.0,0.0,0.0,0.0,0.0,0.0,0.0,0.0,0.0,0.0,0.0,0.0,0.0,0.0,0.0,0.0,0.0,0.0,0.0,0.0,0.0,0.0,0.0,0.0,0.0,0.0,0.0,0.0,0.0,0.0,0.0,0.0,0.0,0.0,0.0,0.0,0.0,0.0,0.0,0.0,0.0,0.0,0.0,0.0,0.0,0.0,0.0,0.0,0.0,0.0,0.0,0.0,0.0,0.0,0.0,0.0,0.0,0.0,0.0,0.0,0.0,0.0,0.0,0.0,0.0,0.0,0.0,0.0,0.0,0.0,0.0,0.0,0.0,0.0,0.0,0.0,0.0,0.0,0.0,0.0,0.0,0.0,0.0,0.0,0.0,0.0,0.0,0.0,0.0,0.0,0.0,0.0,0.0,0.0,0.0,0.0,0.0,0.0,0.0,0.0,0.0,0.0,0.0,0.0,0.0,0.0,0.0,0.0,0.0,0.0,0.0,0.0,0.0,0.0,0.0,0.0,0.0,0.0,0.0,0.0,0.0,0.0,0.0,0.0,0.0,0.0,0.0,0.0,0.0,0.0,0.0,0.0,0.0,0.0,0.0,0.0,0.0,0.0,0.0,0.0,0.0,0.0,0.0,0.0,0.0,0.0,0.0,0.0,0.0,0.0,0.0,0.0,0.0,0.0,0.0,0.0,0.0,0.0,0.0,0.0,0.0,0.0,0.0,0.0,0.0,0.0,0.0,0.0,0.0,0.0,0.0,0.0,0.0,0.0,0.0,0.0,0.0,0.0,0.0,0.0,0.0,0.0,0.0,0.0,0.0,0.0,0.0,0.0,0.0,0.0,0.0,0.0,0.0,0.0,0.0,0.0,0.0,0.0,0.0,0.0,0.0,0.0,0.0,0.0,0.0,0.0,0.0,0.0,0.0,0.0,0.0,0.0,0.0,0.0,0.0,0.0,0.0,0.0,0.0,0.0,0.0,0.0,0.0,0.0,0.0,0.0,0.0,0.0,0.0,0.0,0.0,0.0,0.0,0.0,0.0,0.0,0.0,0.0,0.0,0.0,0.0,0.0,0.0,0.0,0.0,0.0,0.0,0.0,0.0,0.0,0.0,0.0,0.0,0.0,0.0,0.0,0.0,0.0,0.0,0.0,0.0,0.0,0.0,0.0,0.0,0.0,0.0,0.0,0.0,0.0,0.0,0.0,0.0,0.0,0.0,0.0,0.0,0.0,0.0,0.0,0.0,0.0,0.0,0.0,0.0,0.0,0.0,0.0,0.0,0.0,0.0,0.0,0.0,0.0,0.0,0.0,0.0,0.0,0.0,0.0,0.0,0.0,0.0,0.0,0.0,0.0,0.0,0.0,0.0,0.0,0.0,0.0,0.0,0.0,0.0,0.0,0.0,0.0,0.0,0.0,0.0,0.0,0.0,0.0,0.0,0.0,0.0,0.0,0.0,0.0,0.0,0.0,0.0,0.0,0.0,0.0,0.0,0.0,0.0,0.0,0.0,0.0,0.0,0.0,0.0,0.0,0.0,0.0,0.0,0.0,0.0,0.0,0.0,0.0,0.0,0.0,0.0,0.0,0.0,0.0,0.0,0.0,0.0,0.0,0.0,0.0,0.0,0.0,0.0,0.0,0.0,0.0,0.0,0.0,0.0,0.0,0.0,0.0,0.0,0.0,0.0,0.0,0.0,0.0,0.0,0.0,0.0,0.0,0.0,0.0,0.0,0.0,0.0,0.0,0.0,0.0,0.0,0.0,0.0,0.0,0.0,0.0,0.0,0.0,0.0,0.0,0.0,0.0,0.0,0.0,0.0,0.0,0.0,0.0,0.0,0.0,0.0,0.0,0.0,0.0,0.0,0.0,0.0,0.0,0.0,-3.2188,0.0,0.0,0.0,0.0,0.0,0.0,0.0,0.0,0.0,0.0,0.0,0.0,0.0,0.0,0.0,0.0,0.0,0.0,0.0,0.0,0.0,0.0,0.0,0.0,0.0,0.0,0.0,0.0,0.0,0.0,0.0,0.0,0.0,0.0,0.0,0.0,0.0,0.0,0.0,0.0,0.0,0.0,0.0,0.0,0.0,0.0,0.0,0.0,0.0,0.0,0.0,0.0,0.0,0.0,0.0,0.0,0.0,0.0,0.0,0.0,0.0,0.0,0.0,0.0,0.0,0.0,0.0,0.0,0.0,0.0,0.0,0.0,0.0,0.0,0.0,0.0,0.0,0.0,0.0,0.0,0.0,0.0,0.0,0.0,0.0,0.0,0.0,0.0,0.0,0.0,0.0,0.0,0.0,0.0,0.0,0.0,0.0,0.0,0.0,0.0,0.0,0.0,0.0,0.0,0.0,0.0,0.0,0.0,0.0,0.0,-3.3043,-3.3396,-3.1548,-3.1351,-3.2879,0.0,0.0,0.0,0.0,0.0,0.0,0.0,0.0,0.0,0.0,0.0,0.0,0.0,0.0,0.0,0.0,0.0,0.0,0.0,0.0,0.0,0.0,0.0,0.0,0.0,0.0,0.0,0.0,0.0,0.0,0.0,0.0,0.0,0.0,0.0,0.0,0.0,0.0,0.0,0.0,0.0,0.0,0.0,0.0,0.0,0.0,0.0,0.0,0.0,0.0,0.0,0.0,0.0,0.0,0.0,0.0,0.0,0.0,0.0,0.0,0.0,0.0,0.0,0.0,0.0,0.0,0.0,0.0,0.0,0.0,0.0,0.0,0.0,0.0,0.0,0.0,0.0,0.0,0.0,0.0,0.0,0.0,0.0,0.0,0.0,0.0,0.0,0.0,0.0,0.0,0.0,0.0,0.0,0.0,0.0,0.0,0.0,0.0,0.0,0.0,0.0,0.0,0.0,0.0,0.0,0.0,0.0,0.0,0.0,0.0,0.0,0.0,-3.2354,-3.2098,-3.3402,0.0,0.0,0.0,0.0,0.0,0.0,0.0,0.0,0.0,0.0,0.0,0.0,0.0,0.0,0.0,0.0,0.0,0.0,0.0,0.0,0.0,0.0,0.0,0.0,0.0,0.0,0.0,0.0,0.0,0.0,0.0,0.0,0.0,0.0,0.0,0.0,0.0,0.0,0.0,0.0,0.0,0.0,0.0,0.0,0.0,0.0,0.0,0.0,0.0,0.0,0.0,0.0,0.0,0.0,0.0,0.0,0.0,0.0,0.0,0.0,0.0,0.0,0.0,0.0,0.0,0.0,0.0,0.0,0.0,0.0,0.0,0.0,0.0,0.0,0.0,0.0,0.0,0.0,0.0,0.0,0.0,0.0,0.0,0.0,0.0,0.0,0.0,0.0,0.0,0.0,0.0,0.0,0.0,0.0,0.0,0.0,0.0,0.0,0.0,0.0,0.0,0.0,0.0,0.0,0.0,0.0,0.0,0.0,0.0,0.0,-3.4602,-3.4888,-3.4883,0.0,-3.4641,0.0,0.0,0.0,0.0,0.0,0.0,0.0,0.0,0.0,0.0,0.0,0.0,0.0,0.0,0.0,0.0,0.0,0.0,0.0,0.0,0.0,0.0,0.0,0.0,0.0,0.0,0.0,0.0,0.0,0.0,0.0,0.0,0.0,0.0,0.0,0.0,0.0,0.0,0.0,0.0,0.0,0.0,0.0,0.0,0.0,0.0,0.0,0.0,0.0,0.0,0.0,0.0,0.0,0.0,0.0,0.0,0.0,0.0,0.0,0.0,0.0,0.0,0.0,0.0,0.0,0.0,0.0,0.0,0.0,0.0,0.0,0.0,0.0,0.0,0.0,0.0,0.0,0.0,0.0,0.0,0.0,0.0,0.0,0.0,0.0,0.0,0.0,0.0,0.0,0.0,0.0,0.0,0.0,0.0,0.0,0.0,0.0,0.0,0.0,0.0,0.0,0.0,0.0,0.0,0.0,0.0,0.0,0.0,0.0,0.0,-3.551,-3.5587,-3.5704,-3.543,0.0,0.0,0.0,0.0,0.0,0.0,0.0,0.0,0.0,0.0,0.0,0.0,0.0,0.0,0.0,0.0,0.0,0.0,0.0,0.0,0.0,0.0,0.0,0.0,0.0,0.0,0.0,0.0,0.0,0.0,0.0,0.0,0.0,0.0,0.0,0.0,0.0,0.0,0.0,0.0,0.0,0.0,0.0,0.0,0.0,0.0,0.0,0.0,0.0,0.0,0.0,0.0,0.0,0.0,0.0,0.0,0.0,0.0,0.0,0.0,0.0,0.0,0.0,0.0,0.0,0.0,0.0,0.0,0.0,0.0,0.0,0.0,0.0,0.0,0.0,0.0,0.0,0.0,0.0,0.0,0.0,0.0,0.0,0.0,0.0,0.0,0.0,0.0,0.0,0.0,0.0,0.0,0.0,0.0,0.0,0.0,0.0,0.0,0.0,0.0,0.0,0.0,0.0,0.0,0.0,0.0,0.0,0.0,0.0,0.0,-3.5605,-3.5898,-3.6016,-3.5811,-3.5345,-3.457,0.0,0.0,0.0,0.0,0.0,0.0,0.0,0.0,0.0,0.0,0.0,0.0,0.0,0.0,0.0,0.0,0.0,0.0,0.0,0.0,0.0,0.0,0.0,0.0,0.0,0.0,0.0,0.0,0.0,0.0,0.0,0.0,0.0,0.0,0.0,0.0,0.0,0.0,0.0,0.0,0.0,0.0,0.0,0.0,0.0,0.0,0.0,0.0,0.0,0.0,0.0,0.0,0.0,0.0,0.0,0.0,0.0,0.0,0.0,0.0,0.0,0.0,0.0,0.0,0.0,0.0,0.0,0.0,0.0,0.0,0.0,0.0,0.0,0.0,0.0,0.0,0.0,0.0,0.0,0.0,0.0,0.0,0.0,0.0,0.0,0.0,0.0,0.0,0.0,0.0,0.0,0.0,0.0,0.0,0.0,0.0,0.0,0.0,0.0,0.0,0.0,0.0,0.0,0.0,0.0,0.0,0.0,0.0,-3.7559,-3.6211,-3.5625,-3.6055,-3.5382,-3.472,0.0,0.0,0.0,0.0,0.0,0.0,0.0,0.0,0.0,0.0,0.0,0.0,0.0,0.0,0.0,0.0,0.0,0.0,0.0,0.0,0.0,0.0,0.0,0.0,0.0,0.0,0.0,0.0,0.0,0.0,0.0,0.0,0.0,0.0,0.0,0.0,0.0,0.0,0.0,0.0,0.0,0.0,0.0,0.0,0.0,0.0,0.0,0.0,0.0,0.0,0.0,0.0,0.0,0.0,0.0,0.0,0.0,0.0,0.0,0.0,0.0,0.0,0.0,0.0,0.0,0.0,0.0,0.0,0.0,0.0,0.0,0.0,0.0,0.0,0.0,0.0,0.0,0.0,0.0,0.0,0.0,0.0,0.0,0.0,0.0,0.0,0.0,0.0,0.0,0.0,0.0,0.0,0.0,0.0,0.0,0.0,0.0,0.0,0.0,0.0,0.0,0.0,0.0,0.0,0.0,0.0,0.0,0.0,0.0,-3.6296,-3.6,-3.6406,-3.7539,-3.6122,-3.519,0.0,0.0,0.0,0.0,0.0,0.0,0.0,0.0,0.0,0.0,0.0,0.0,0.0,0.0,0.0,0.0,0.0,0.0,0.0,0.0,0.0,0.0,0.0,0.0,0.0,0.0,0.0,0.0,0.0,0.0,0.0,0.0,0.0,0.0,0.0,0.0,0.0,0.0,0.0,0.0,0.0,0.0,0.0,0.0,0.0,0.0,0.0,0.0,0.0,0.0,0.0,0.0,0.0,0.0,0.0,0.0,0.0,0.0,0.0,0.0,0.0,0.0,0.0,0.0,0.0,0.0,0.0,0.0,0.0,0.0,0.0,0.0,0.0,0.0,0.0,0.0,0.0,0.0,0.0,0.0,0.0,0.0,0.0,0.0,0.0,0.0,0.0,0.0,0.0,0.0,0.0,0.0,0.0,0.0,0.0,0.0,0.0,0.0,0.0,0.0,0.0,0.0,0.0,0.0,0.0,0.0,0.0,0.0,0.0,-3.6042,0.0,-3.6855,-3.7637,-3.623,-3.5137,0.0,0.0,0.0,0.0,0.0,0.0,0.0,0.0,0.0,0.0,0.0,0.0,0.0,0.0,0.0,0.0,0.0,0.0,0.0,0.0,0.0,0.0,0.0,0.0,0.0,0.0,0.0,0.0,0.0,0.0,0.0,0.0,0.0,0.0,0.0,0.0,0.0,0.0,0.0,0.0,0.0,0.0,0.0,0.0,0.0,0.0,0.0,0.0,0.0,0.0,0.0,0.0,0.0,0.0,0.0,0.0,0.0,0.0,0.0,0.0,0.0,0.0,0.0,0.0,0.0,0.0,0.0,0.0,0.0,0.0,0.0,0.0,0.0,0.0,0.0,0.0,0.0,0.0,0.0,0.0,0.0,0.0,0.0,0.0,0.0,0.0,0.0,0.0,0.0,0.0,0.0,0.0,0.0,0.0,0.0,0.0,0.0,0.0,0.0,0.0,0.0,0.0,0.0,0.0,0.0,0.0,0.0,0.0,-3.6924,-3.7258,-3.7246,-3.6953,-3.6113,-3.5664,-3.459,0.0,0.0,0.0,0.0,0.0,0.0,0.0,0.0,0.0,0.0,0.0,0.0,0.0,0.0,0.0,0.0,0.0,0.0,0.0,0.0,0.0,0.0,0.0,0.0,0.0,0.0,0.0,0.0,0.0,0.0,0.0,0.0,0.0,0.0,0.0,0.0,0.0,0.0,0.0,0.0,0.0,0.0,0.0,0.0,0.0,0.0,0.0,0.0,0.0,0.0,0.0,0.0,0.0,0.0,0.0,0.0,0.0,0.0,0.0,0.0,0.0,0.0,0.0,0.0,0.0,0.0,0.0,0.0,0.0,0.0,0.0,0.0,0.0,0.0,0.0,0.0,0.0,0.0,0.0,0.0,0.0,0.0,0.0,0.0,0.0,0.0,0.0,0.0,0.0,0.0,0.0,0.0,0.0,0.0,0.0,0.0,0.0,0.0,0.0,0.0,0.0,0.0,0.0,0.0,0.0,0.0,0.0,0.0,0.0,-3.7285,-3.7305,-3.7891,-3.8965,-3.6094,-3.4941,0.0,0.0,0.0,0.0,0.0,0.0,0.0,0.0,0.0,0.0,0.0,0.0,0.0,0.0,0.0,0.0,0.0,0.0,0.0,0.0,0.0,0.0,0.0,0.0,0.0,0.0,0.0,0.0,0.0,0.0,0.0,0.0,0.0,0.0,0.0,0.0,0.0,0.0,0.0,0.0,0.0,0.0,0.0,0.0,0.0,0.0,0.0,0.0,0.0,0.0,0.0,0.0,0.0,0.0,0.0,0.0,0.0,0.0,0.0,0.0,0.0,0.0,0.0,0.0,0.0,0.0,0.0,0.0,0.0,0.0,0.0,0.0,0.0,0.0,0.0,0.0,0.0,0.0,0.0,0.0,0.0,0.0,0.0,0.0,0.0,0.0,0.0,0.0,0.0,0.0,0.0,0.0,0.0,0.0,0.0,0.0,0.0,0.0,0.0,0.0,0.0,0.0,0.0,0.0,0.0,0.0,0.0,0.0,0.0,-3.9219,-3.8906,-3.9062,-3.9785,-3.7148,-3.5918,-3.6269,0.0,0.0,0.0,0.0,0.0,0.0,0.0,0.0,0.0,0.0,0.0,0.0,0.0,0.0,0.0,0.0,0.0,0.0,0.0,0.0,0.0,0.0,0.0,0.0,0.0,0.0,0.0,0.0,0.0,0.0,0.0,0.0,0.0,0.0,0.0,0.0,0.0,0.0,0.0,0.0,0.0,0.0,0.0,0.0,0.0,0.0,0.0,0.0,0.0,0.0,0.0,0.0,0.0,0.0,0.0,0.0,0.0,0.0,0.0,0.0,0.0,0.0,0.0,0.0,0.0,0.0,0.0,0.0,0.0,0.0,0.0,0.0,0.0,0.0,0.0,0.0,0.0,0.0,0.0,0.0,0.0,0.0,0.0,0.0,0.0,0.0,0.0,0.0,0.0,0.0,0.0,0.0,0.0,0.0,0.0,0.0,0.0,0.0,0.0,0.0,0.0,0.0,0.0,0.0,0.0,0.0,0.0,0.0,-4.2578,-4.1953,-4.0879,-3.9219,-3.8809,-3.75,0.0,0.0,0.0,0.0,0.0,0.0,0.0,0.0,0.0,0.0,0.0,0.0,0.0,0.0,0.0,0.0,0.0,0.0,0.0,0.0,0.0,0.0,0.0,0.0,0.0,0.0,0.0,0.0,0.0,0.0,0.0,0.0,0.0,0.0,0.0,0.0,0.0,0.0,0.0,0.0,0.0,0.0,0.0,0.0,0.0,0.0,0.0,0.0,0.0,0.0,0.0,0.0,0.0,0.0,0.0,0.0,0.0,0.0,0.0,0.0,0.0,0.0,0.0,0.0,0.0,0.0,0.0,0.0,0.0,0.0,0.0,0.0,0.0,0.0,0.0,0.0,0.0,0.0,0.0,0.0,0.0,0.0,0.0,0.0,0.0,0.0,0.0,0.0,0.0,0.0,0.0,0.0,0.0,0.0,0.0,0.0,0.0,0.0,0.0,0.0,0.0,0.0,0.0,0.0,0.0,0.0,0.0,0.0,0.0,-4.4375,-4.6308,-4.6523,-4.4746,-4.1367,-3.9375,0.0,0.0,0.0,0.0,0.0,0.0,0.0,0.0,0.0,0.0,0.0,0.0,0.0,0.0,0.0,0.0,0.0,0.0,0.0,0.0,0.0,0.0,0.0,0.0,0.0,0.0,0.0,0.0,0.0,0.0,0.0,0.0,0.0,0.0,0.0,0.0,0.0,0.0,0.0,0.0,0.0,0.0,0.0,0.0,0.0,0.0,0.0,0.0,0.0,0.0,0.0,0.0,0.0,0.0,0.0,0.0,0.0,0.0,0.0,0.0,0.0,0.0,0.0,0.0,0.0,0.0,0.0,0.0,0.0,0.0,0.0,0.0,0.0,0.0,0.0,0.0,0.0,0.0,0.0,0.0,0.0,0.0,0.0,0.0,0.0,0.0,0.0,0.0,0.0,0.0,0.0,0.0,0.0,0.0,0.0,0.0,0.0,0.0,0.0,0.0,0.0,0.0,0.0,0.0,0.0,0.0,0.0,0.0,-4.541,-4.6641,-4.9238,-5.0215,-4.9375,-4.5508,-4.2383,0.0,0.0,0.0,0.0,0.0,0.0,0.0,0.0,0.0,0.0,0.0,0.0,0.0,0.0,0.0,0.0,0.0,0.0,0.0,0.0,0.0,0.0,0.0,0.0,0.0,0.0,0.0,0.0,0.0,0.0,0.0,0.0,0.0,0.0,0.0,0.0,0.0,0.0,0.0,0.0,0.0,0.0,0.0,0.0,0.0,0.0,0.0,0.0,0.0,0.0,0.0,0.0,0.0,0.0,0.0,0.0,0.0,0.0,0.0,0.0,0.0,0.0,0.0,0.0,0.0,0.0,0.0,0.0,0.0,0.0,0.0,0.0,0.0,0.0,0.0,0.0,0.0,0.0,0.0,0.0,0.0,0.0,0.0,0.0,0.0,0.0,0.0,0.0,0.0,0.0,0.0,0.0,0.0,0.0,0.0,0.0,0.0,0.0,0.0,0.0,0.0,0.0,0.0,0.0,0.0,0.0,0.0,0.0,-4.7285,-4.8906,-5.1133,-5.2441,-5.2676,-4.9766,-4.5703,0.0,0.0,0.0,0.0,0.0,0.0,0.0,0.0,0.0,0.0,0.0,0.0,0.0,0.0,0.0,0.0,0.0,0.0,0.0,0.0,0.0,0.0,0.0,0.0,0.0,0.0,0.0,0.0,0.0,0.0,0.0,0.0,0.0,0.0,0.0,0.0,0.0,0.0,0.0,0.0,0.0,0.0,0.0,0.0,0.0,0.0,0.0,0.0,0.0,0.0,0.0,0.0,0.0,0.0,0.0,0.0,0.0,0.0,0.0,0.0,0.0,0.0,0.0,0.0,0.0,0.0,0.0,0.0,0.0,0.0,0.0,0.0,0.0,0.0,0.0,0.0,0.0,0.0,0.0,0.0,0.0,0.0,0.0,0.0,0.0,0.0,0.0,0.0,0.0,0.0,0.0,0.0,0.0,0.0,0.0,0.0,0.0,0.0,0.0,0.0,0.0,0.0,0.0,0.0,0.0,0.0,0.0,0.0,-4.832,-4.9394,-5.2148,-5.3476,-5.3223,-4.9648,-4.6367,0.0,0.0,0.0,0.0,0.0,0.0,0.0,0.0,0.0,0.0,0.0,0.0,0.0,0.0,0.0,0.0,0.0,0.0,0.0,0.0,0.0,0.0,0.0,0.0,0.0,0.0,0.0,0.0,0.0,0.0,0.0,0.0,0.0,0.0,0.0,0.0,0.0,0.0,0.0,0.0,0.0,0.0,0.0,0.0,0.0,0.0,0.0,0.0,-2.3634,0.0,0.0,0.0,0.0,0.0,0.0,0.0,0.0,0.0,0.0,0.0,0.0,0.0,0.0,0.0,0.0,0.0,0.0,0.0,0.0,0.0,0.0,0.0,0.0,0.0,0.0,0.0,0.0,0.0,0.0,0.0,0.0,0.0,0.0,0.0,0.0,0.0,0.0,0.0,0.0,0.0,0.0,0.0,0.0,0.0,0.0,0.0,0.0,0.0,0.0,0.0,0.0,0.0,0.0,0.0,0.0,0.0,0.0,0.0,-4.9336,-5.1016,-5.2988,-5.3926,-5.3574,-5.0508,-4.7617,0.0,0.0,0.0,0.0,0.0,0.0,0.0,0.0,0.0,0.0,0.0,0.0,0.0,0.0,0.0,0.0,0.0,0.0,0.0,0.0,0.0,0.0,0.0,0.0,0.0,0.0,0.0,0.0,0.0,0.0,0.0,0.0,0.0,0.0,0.0,0.0,0.0,0.0,0.0,0.0,0.0,0.0,0.0,0.0,0.0,0.0,0.0,0.0,0.0,0.0,0.0,0.0,0.0,0.0,0.0,0.0,0.0,0.0,0.0,0.0,0.0,0.0,0.0,0.0,0.0,0.0,0.0,0.0,0.0,0.0,0.0,0.0,0.0,0.0,0.0,0.0,0.0,0.0,0.0,0.0,0.0,0.0,0.0,0.0,0.0,0.0,0.0,0.0,0.0,0.0,0.0,0.0,0.0,0.0,0.0,0.0,0.0,0.0,0.0,0.0,0.0,0.0,0.0,0.0,0.0,0.0,0.0,-4.7266,-5.0078,-5.2695,-5.3613,-5.4004,-5.3887,-5.1484,-4.8828,-4.5976,0.0,0.0,0.0,0.0,0.0,0.0,0.0,0.0,0.0,0.0,0.0,0.0,0.0,0.0,0.0,0.0,0.0,0.0,0.0,0.0,0.0,0.0,0.0,0.0,0.0,0.0,0.0,0.0,0.0,0.0,0.0,0.0,0.0,0.0,0.0,0.0,0.0,0.0,-3.2232,-3.1886,0.0,0.0,0.0,0.0,0.0,0.0,0.0,0.0,-2.5173,0.0,0.0,0.0,0.0,0.0,0.0,0.0,0.0,0.0,0.0,0.0,0.0,0.0,0.0,0.0,0.0,0.0,0.0,0.0,0.0,0.0,0.0,0.0,0.0,0.0,0.0,0.0,0.0,0.0,0.0,0.0,0.0,0.0,0.0,0.0,0.0,0.0,0.0,0.0,0.0,0.0,0.0,0.0,0.0,0.0,0.0,0.0,0.0,0.0,0.0,0.0,0.0,0.0,0.0,0.0,0.0,-4.7383,-4.8027,-4.9922,-5.3164,-5.3769,-5.3848,-5.3418,-5.1328,-4.9082,-4.6777,0.0,0.0,0.0,0.0,0.0,0.0,0.0,0.0,0.0,0.0,0.0,0.0,0.0,0.0,0.0,0.0,0.0,0.0,0.0,0.0,0.0,0.0,0.0,0.0,0.0,0.0,0.0,0.0,0.0,0.0,0.0,0.0,0.0,0.0,0.0,0.0,0.0,0.0,0.0,-3.4646,-3.4268,0.0,0.0,0.0,0.0,0.0,0.0,0.0,0.0,-2.4823,0.0,0.0,0.0,0.0,0.0,0.0,0.0,0.0,0.0,0.0,0.0,0.0,0.0,0.0,0.0,0.0,0.0,0.0,0.0,0.0,0.0,0.0,0.0,0.0,0.0,0.0,0.0,0.0,0.0,0.0,0.0,0.0,0.0,0.0,0.0,0.0,0.0,0.0,0.0,0.0,0.0,0.0,0.0,0.0,0.0,0.0,0.0,0.0,0.0,0.0,0.0,0.0,0.0,0.0,0.0,-4.7012,-4.8769,-5.0918,-5.3594,-5.3926,-5.3711,-5.2988,-5.0508,-4.8359,0.0,0.0,0.0,0.0,0.0,0.0,0.0,0.0,0.0,0.0,0.0,0.0,0.0,0.0,0.0,0.0,0.0,0.0,0.0,0.0,0.0,0.0,0.0,0.0,0.0,0.0,0.0,0.0,0.0,0.0,0.0,0.0,0.0,0.0,0.0,0.0,0.0,0.0,0.0,0.0,-3.6901,-3.6951,-3.4696,0.0,0.0,0.0,0.0,0.0,0.0,-2.7982,-2.671,0.0,0.0,0.0,0.0,0.0,0.0,0.0,0.0,0.0,0.0,0.0,0.0,0.0,0.0,0.0,0.0,0.0,0.0,0.0,0.0,0.0,0.0,0.0,0.0,0.0,0.0,0.0,0.0,0.0,0.0,0.0,0.0,0.0,0.0,0.0,0.0,0.0,0.0,0.0,0.0,0.0,0.0,0.0,0.0,0.0,0.0,0.0,0.0,0.0,0.0,0.0,0.0,0.0,0.0,0.0,-4.6367,-4.9238,-5.1777,-5.3906,-5.4023,-5.3574,-5.2578,-4.9902,-4.7754,0.0,0.0,0.0,0.0,0.0,0.0,0.0,0.0,0.0,0.0,0.0,0.0,0.0,0.0,0.0,0.0,0.0,0.0,0.0,0.0,0.0,0.0,0.0,0.0,0.0,0.0,0.0,0.0,0.0,0.0,0.0,0.0,0.0,0.0,0.0,0.0,0.0,0.0,0.0,0.0,0.0,-3.9457,-3.6336,-3.6292,0.0,0.0,0.0,0.0,-3.104,-3.0418,0.0,0.0,0.0,0.0,0.0,0.0,0.0,0.0,0.0,0.0,0.0,0.0,0.0,0.0,0.0,0.0,0.0,0.0,0.0,0.0,0.0,0.0,0.0,0.0,0.0,0.0,0.0,0.0,0.0,0.0,0.0,0.0,0.0,0.0,0.0,0.0,0.0,0.0,0.0,0.0,0.0,0.0,0.0,0.0,0.0,0.0,0.0,0.0,0.0,0.0,0.0,0.0,0.0,0.0,0.0,0.0,-4.6758,-4.9101,-5.1484,-5.3867,-5.4023,-5.3437,-5.2187,-5.0351,-4.8223,0.0,0.0,0.0,0.0,0.0,0.0,0.0,0.0,0.0,0.0,0.0,0.0,0.0,0.0,0.0,0.0,0.0,0.0,0.0,0.0,0.0,0.0,0.0,0.0,0.0,0.0,0.0,0.0,0.0,0.0,0.0,0.0,0.0,0.0,0.0,0.0,0.0,0.0,0.0,0.0,0.0,-4.2205,-4.0303,-3.9018,-3.8196,0.0,0.0,-3.3346,-3.4968,-3.3667,0.0,0.0,0.0,0.0,0.0,0.0,0.0,0.0,0.0,0.0,0.0,0.0,0.0,0.0,0.0,0.0,0.0,0.0,0.0,0.0,0.0,0.0,0.0,0.0,0.0,0.0,0.0,0.0,0.0,0.0,0.0,0.0,0.0,0.0,0.0,0.0,0.0,0.0,0.0,0.0,0.0,0.0,0.0,0.0,0.0,0.0,0.0,0.0,0.0,0.0,0.0,0.0,0.0,0.0,0.0,-4.3789,-4.6894,-4.9785,-5.2148,-5.3945,-5.3789,-5.3144,-5.209,-4.9473,-4.7187,0.0,0.0,0.0,0.0,0.0,0.0,0.0,0.0,0.0,0.0,0.0,0.0,0.0,0.0,0.0,0.0,0.0,0.0,0.0,0.0,0.0,0.0,0.0,0.0,0.0,0.0,0.0,0.0,0.0,0.0,0.0,0.0,0.0,0.0,0.0,0.0,0.0,0.0,0.0,0.0,0.0,0.0,-4.268,-4.2637,0.0,0.0,0.0,-3.7348,-3.7922,0.0,0.0,0.0,0.0,0.0,0.0,0.0,0.0,0.0,0.0,0.0,0.0,0.0,0.0,0.0,0.0,0.0,0.0,0.0,0.0,0.0,0.0,0.0,0.0,0.0,0.0,0.0,0.0,0.0,0.0,0.0,0.0,0.0,0.0,0.0,0.0,0.0,0.0,0.0,0.0,0.0,0.0,0.0,0.0,0.0,0.0,0.0,0.0,0.0,0.0,0.0,0.0,0.0,0.0,0.0,0.0,0.0,-4.709,-5.0488,-5.2812,-5.3965,-5.3691,-5.3008,-5.1914,-4.8984,0.0,0.0,0.0,0.0,0.0,0.0,0.0,0.0,0.0,0.0,0.0,0.0,0.0,0.0,0.0,0.0,0.0,0.0,0.0,0.0,0.0,0.0,0.0,0.0,0.0,0.0,0.0,-3.3867,0.0,0.0,0.0,0.0,0.0,0.0,0.0,0.0,0.0,0.0,0.0,0.0,0.0,0.0,-4.5515,-4.4727,-4.5947,-4.6397,0.0,0.0,-4.169,-4.1277,-3.9286,-3.6317,0.0,0.0,0.0,0.0,0.0,0.0,0.0,0.0,0.0,0.0,0.0,0.0,0.0,0.0,0.0,0.0,0.0,0.0,0.0,0.0,0.0,0.0,0.0,0.0,0.0,0.0,0.0,0.0,0.0,0.0,0.0,0.0,0.0,0.0,0.0,0.0,0.0,0.0,0.0,0.0,0.0,0.0,0.0,0.0,0.0,0.0,0.0,0.0,0.0,0.0,0.0,0.0,0.0,0.0,-4.4941,-4.7539,-5.0918,-5.3105,-5.3984,-5.4004,-5.3183,-5.1504,-4.9687,-4.7383,0.0,0.0,0.0,0.0,0.0,0.0,0.0,0.0,0.0,0.0,0.0,0.0,0.0,0.0,0.0,0.0,0.0,0.0,0.0,0.0,0.0,0.0,0.0,0.0,0.0,0.0,0.0,0.0,0.0,0.0,0.0,0.0,0.0,0.0,0.0,0.0,0.0,0.0,0.0,0.0,0.0,-4.6337,-4.6592,-4.8711,-5.0361,0.0,0.0,-4.5892,-4.5709,-4.4072,-4.1085,-3.5565,0.0,0.0,0.0,0.0,0.0,0.0,0.0,0.0,0.0,0.0,0.0,0.0,0.0,0.0,0.0,0.0,0.0,0.0,0.0,0.0,0.0,0.0,0.0,0.0,0.0,0.0,0.0,0.0,0.0,0.0,0.0,0.0,0.0,0.0,0.0,0.0,0.0,0.0,0.0,0.0,0.0,0.0,0.0,0.0,0.0,0.0,0.0,0.0,0.0,0.0,0.0,0.0,0.0,-4.498,-4.7578,-5.0976,-5.3144,-5.3984,-5.3769,-5.3047,-5.1855,-4.9902,-4.7461,0.0,0.0,0.0,0.0,0.0,0.0,0.0,0.0,0.0,0.0,0.0,0.0,0.0,0.0,0.0,0.0,0.0,0.0,0.0,0.0,0.0,0.0,0.0,0.0,0.0,0.0,0.0,0.0,-3.6367,-3.6433,-3.5781,0.0,0.0,0.0,0.0,0.0,0.0,0.0,0.0,0.0,0.0,-4.767,-4.9385,-5.0824,0.0,0.0,-4.9342,-4.7398,-4.8161,-4.5254,-4.1761,-3.847,-3.5145,0.0,0.0,0.0,0.0,0.0,0.0,0.0,0.0,0.0,0.0,0.0,0.0,0.0,0.0,0.0,0.0,0.0,0.0,0.0,0.0,0.0,0.0,0.0,0.0,0.0,0.0,0.0,0.0,0.0,0.0,0.0,0.0,0.0,0.0,0.0,0.0,0.0,0.0,0.0,0.0,0.0,0.0,0.0,0.0,0.0,0.0,0.0,0.0,0.0,0.0,0.0,0.0,-4.498,-4.7558,-5.084,-5.3008,-5.4004,-5.3594,-5.2949,-5.207,-4.998,-4.7578,0.0,0.0,0.0,0.0,0.0,0.0,0.0,0.0,0.0,0.0,0.0,0.0,0.0,0.0,0.0,0.0,0.0,0.0,0.0,0.0,0.0,0.0,0.0,0.0,0.0,0.0,0.0,0.0,-3.7326,-3.7203,-3.6797,0.0,0.0,0.0,0.0,0.0,0.0,0.0,0.0,0.0,0.0,-4.8977,-5.108,-5.2142,-5.2827,-5.2981,-5.0738,-4.9278,-4.9821,-4.6876,-4.3441,-4.0374,0.0,0.0,0.0,0.0,0.0,0.0,0.0,0.0,0.0,0.0,0.0,0.0,0.0,0.0,0.0,0.0,0.0,0.0,0.0,0.0,0.0,0.0,0.0,0.0,0.0,0.0,0.0,-3.772,0.0,0.0,-3.4205,0.0,0.0,0.0,0.0,0.0,0.0,0.0,0.0,0.0,0.0,0.0,0.0,0.0,0.0,0.0,0.0,0.0,0.0,0.0,0.0,0.0,0.0,-4.498,-4.7558,-5.0566,-5.2734,-5.3965,-5.3594,-5.2969,-5.209,-5.0,-4.7851,-4.5664,0.0,0.0,0.0,0.0,0.0,0.0,0.0,0.0,0.0,0.0,0.0,0.0,0.0,0.0,0.0,0.0,0.0,0.0,0.0,0.0,0.0,0.0,0.0,0.0,0.0,0.0,-3.8457,-3.7168,-3.6129,0.0,0.0,0.0,0.0,0.0,0.0,0.0,0.0,0.0,0.0,-4.6876,-5.0002,-5.1166,-5.2587,-5.3392,-5.3067,-5.2348,-5.1462,-5.0812,-4.9525,-4.6814,0.0,0.0,0.0,0.0,0.0,0.0,0.0,0.0,0.0,0.0,0.0,0.0,0.0,0.0,0.0,0.0,0.0,0.0,0.0,0.0,0.0,0.0,0.0,0.0,0.0,0.0,0.0,-3.9013,-3.8367,0.0,0.0,0.0,0.0,0.0,0.0,0.0,0.0,0.0,0.0,0.0,-4.3301,-4.3301,0.0,0.0,0.0,0.0,0.0,0.0,0.0,0.0,0.0,0.0,0.0,0.0,-4.498,-4.7578,-5.0547,-5.2715,-5.3965,-5.3594,-5.3086,-5.25,-5.0703,-4.8047,-4.4473,0.0,0.0,0.0,0.0,0.0,0.0,0.0,0.0,0.0,0.0,0.0,0.0,0.0,0.0,0.0,0.0,0.0,0.0,0.0,0.0,0.0,0.0,0.0,0.0,0.0,-3.9258,0.0,0.0,0.0,0.0,0.0,0.0,0.0,0.0,0.0,0.0,0.0,-4.2437,-4.4682,-4.7809,-5.0204,-5.1304,-5.2676,-5.3512,0.0,0.0,0.0,0.0,0.0,0.0,0.0,0.0,0.0,0.0,0.0,0.0,0.0,0.0,-3.6193,-3.1998,-3.0595,-3.0087,-3.0181,0.0,0.0,0.0,0.0,0.0,0.0,0.0,0.0,0.0,0.0,0.0,0.0,0.0,0.0,-4.0059,0.0,-3.8327,0.0,0.0,0.0,0.0,0.0,0.0,0.0,0.0,-4.3262,-4.4512,-4.5469,-4.5488,-4.5351,0.0,-4.4043,-4.2324,0.0,0.0,0.0,0.0,0.0,0.0,0.0,0.0,-4.5371,-4.7793,-5.0625,-5.2715,-5.3945,-5.3437,-5.2988,-5.2676,-5.0762,-4.8047,-4.4512,-4.2303,-4.0703,0.0,0.0,0.0,0.0,0.0,0.0,0.0,0.0,0.0,0.0,0.0,0.0,0.0,0.0,0.0,0.0,0.0,0.0,0.0,0.0,0.0,0.0,0.0,-4.0488,0.0,0.0,0.0,0.0,0.0,0.0,0.0,0.0,0.0,-4.0736,-4.2613,-4.4684,-4.648,-4.8791,-5.0633,-5.1375,0.0,0.0,0.0,0.0,0.0,0.0,0.0,-4.6813,-4.5296,-4.2533,-4.0063,-3.8527,-3.8719,-3.8865,-3.8357,0.0,0.0,-3.5151,-3.3788,-3.3267,-3.3374,-3.3374,-3.3374,-3.348,-3.3814,-3.4148,0.0,0.0,0.0,0.0,0.0,0.0,0.0,0.0,-4.2657,-4.2469,0.0,-4.0234,0.0,0.0,0.0,0.0,0.0,-4.1875,0.0,0.0,-4.5527,-4.6719,-4.6465,-4.7207,-4.7187,-4.6426,-4.6719,-4.5781,-4.3652,-4.041,0.0,0.0,0.0,0.0,0.0,0.0,-4.6074,-4.8203,-5.0723,-5.2676,-5.3906,-5.3144,-5.2676,-5.2578,-5.0215,-4.791,-4.5859,-4.5168,-4.3784,-4.1426,-4.123,0.0,0.0,0.0,0.0,0.0,0.0,0.0,0.0,0.0,0.0,0.0,0.0,0.0,0.0,0.0,0.0,0.0,0.0,0.0,0.0,-4.1074,0.0,0.0,0.0,0.0,0.0,0.0,0.0,0.0,0.0,0.0,-4.2572,-4.5312,-4.7687,-4.8347,0.0,0.0,0.0,0.0,-5.1366,-5.1962,-5.1485,-5.0908,-5.053,-5.0887,-4.998,-4.6358,0.0,0.0,-3.9311,-3.9599,-4.012,-3.8691,-3.9479,-4.0214,-4.0374,-3.8811,-3.7809,-3.8036,-3.7248,-3.6754,-3.6994,-3.7355,-3.7769,-4.6712,0.0,0.0,0.0,0.0,-4.2837,-4.394,-4.5115,-4.452,-4.3878,-4.3178,-4.2014,0.0,0.0,0.0,0.0,0.0,0.0,-4.3672,-4.4785,-4.6269,-4.7344,-4.8125,-4.8379,-4.8359,-4.8105,-4.7617,-4.6758,-4.5508,-4.3652,-4.1797,-4.0,0.0,0.0,0.0,0.0,-4.6074,-4.8183,-5.0156,-5.1797,-5.3066,-5.2539,-5.1973,-5.1367,-5.0058,-4.875,-4.7519,-4.5579,-4.4403,-4.3882,-4.2168,0.0,0.0,0.0,0.0,0.0,0.0,0.0,0.0,0.0,0.0,0.0,0.0,0.0,0.0,0.0,0.0,0.0,0.0,0.0,-4.1133,-4.1582,-4.1914,0.0,0.0,0.0,0.0,0.0,0.0,0.0,0.0,0.0,-4.7926,-4.8414,-4.8657,0.0,0.0,-5.0951,-5.0802,-5.1197,-5.1556,-5.2062,-5.2084,0.0,-5.0685,-4.9607,-4.821,-4.5803,-4.4352,-4.2943,-4.1705,-4.1924,-4.2138,-4.1483,-4.1844,-4.2124,-4.1684,-4.0294,-3.9212,-3.9185,-3.9252,-3.9346,-3.9466,-3.9773,-4.0,-4.8213,-4.4568,-4.4053,-4.3887,-4.4004,-4.4433,-4.5351,-4.6523,-4.5996,-4.5664,-4.543,-4.4414,-4.3301,-4.2168,-4.1738,0.0,0.0,0.0,-4.4687,-4.6211,-4.7051,-4.8027,-4.9101,-4.9297,-4.9297,-4.9101,-4.8418,-4.7637,-4.6797,-4.5859,-4.4355,-4.2363,0.0,0.0,-4.2754,-4.4922,-4.6933,-4.8711,-5.043,-5.1758,-5.2676,-5.2305,-5.168,-5.082,-5.0137,-4.9375,-4.8496,-4.6857,-4.5783,-4.548,-4.3871,-4.2558,0.0,0.0,0.0,0.0,0.0,0.0,0.0,0.0,0.0,0.0,0.0,-3.8301,-3.7383,0.0,0.0,0.0,-4.0195,-4.1543,-4.248,-4.3027,0.0,0.0,0.0,0.0,0.0,0.0,0.0,-4.8684,-4.9936,-5.0813,-5.1392,-5.1188,-5.0536,-4.9721,-5.0272,-5.0795,-5.085,0.0,-5.145,-5.2054,-5.2166,-5.2047,-5.1384,-5.0365,-4.8834,-4.6517,-4.5692,-4.4388,-4.2753,-4.319,-4.3623,-4.2894,-4.2806,-4.2806,-4.2458,-4.1416,-4.0588,-4.0508,-4.0842,-4.1122,-4.1029,-4.1229,-4.143,-5.0094,-4.8418,-4.7207,-4.6641,-4.6543,-4.6992,-4.7187,-4.7187,-4.7207,-4.7598,-4.8164,-4.6953,-4.6152,-4.5625,-4.4043,0.0,-4.4629,-4.5039,-4.5879,-4.7051,-4.7871,-4.8691,-4.9473,-4.9863,-4.9863,-4.9453,-4.9043,-4.8457,-4.7676,-4.7207,-4.6387,-4.5215,-4.3965,-4.3926,-4.5117,-4.6699,-4.8183,-4.9453,-5.1074,-5.2148,-5.2578,-5.2187,-5.1601,-5.082,-5.0332,-4.9687,-4.8887,-4.8359,-4.7558,-4.6406,-4.5918,-4.4922,-4.3262,0.0,0.0,0.0,0.0,0.0,0.0,0.0,0.0,0.0,0.0,0.0,0.0,0.0,0.0,0.0,-4.2031,0.0,-4.3828,-4.498,0.0,0.0,0.0,-4.6992,-4.793,-4.8761,-4.9579,-5.0647,0.0,0.0,-5.3496,-5.3626,-5.305,-5.1099,-5.0751,-5.0759,-5.1253,-5.0975,-5.1078,-5.2056,-5.2016,-5.197,-5.2097,-5.1954,-5.0794,-4.8142,-4.8763,-4.7692,-4.3979,-4.4228,-4.4691,-4.3588,-4.2995,-4.2982,-4.2955,-4.2519,-4.2165,-4.1857,-4.2004,-4.2098,-4.1857,-4.1964,-4.2124,-5.2598,-5.1113,-5.0469,-4.9453,-4.832,-4.9082,-4.9414,-4.9414,-4.9414,-4.9141,-4.8633,-4.7695,-4.6855,-4.6133,-4.5723,-4.582,-4.6348,-4.6777,-4.7305,-4.791,-4.8457,-4.8808,-4.9023,-4.9121,-4.9121,-4.9004,-4.8906,-4.875,-4.8516,-4.7793,-4.7266,-4.6933,-4.6016,-4.5527,-4.5566,-4.6562,-4.7715,-4.9004,-5.0078,-5.0996,-5.1699,-5.1328,-5.1016,-5.0801,-4.9746,-4.9082,-4.8848,-4.7812,-4.709,-4.6777,-4.6074,-4.5195,-4.4121,-4.2441,0.0,0.0,0.0,0.0,0.0,0.0,0.0,0.0,0.0,-4.1094,-3.9394,0.0,-4.207,0.0,-4.3691,-4.4746,-4.5176,-4.5781,0.0,0.0,-4.8926,-4.998,-5.1777,-5.2749,-5.3595,-5.4414,-5.5421,-5.6029,-5.6019,-5.5833,-5.5018,-5.3171,-5.1587,-5.0991,-5.1842,-5.1696,-5.1652,-5.2129,-5.2464,-5.2526,-5.2191,-5.1171,-5.0187,-4.938,-4.8657,-4.7715,-4.6599,-4.6887,-4.7174,-4.6614,-4.5642,-4.4913,-4.4691,-4.352,-4.268,-4.2458,-4.2338,-4.2205,-4.2124,-4.2165,-4.2218,-5.4163,-5.2713,-5.1815,-5.0879,-5.0039,-5.0527,-5.0742,-5.0742,-5.0742,-5.0351,-4.9648,-4.8613,-4.7773,-4.7148,-4.6953,-4.7109,-4.75,-4.7754,-4.8086,-4.8496,-4.875,-4.8848,-4.8848,-4.8848,-4.8848,-4.8848,-4.8848,-4.8769,-4.8535,-4.8086,-4.7676,-4.7285,-4.7012,-4.6758,-4.6562,-4.7168,-4.8047,-4.9141,-5.0019,-5.0605,-5.0859,-5.082,-5.0527,-4.9941,-4.9062,-4.8398,-4.8008,-4.7129,-4.6641,-4.6641,-4.6211,-4.5664,-4.498,-4.3691,-4.2461,0.0,0.0,0.0,0.0,0.0,0.0,0.0,0.0,0.0,0.0,0.0,-4.3496,-4.4687,-4.5801,-4.6777,-4.7598,-4.8398,-4.9433,-5.0801,-5.168,-5.2812,-5.4336,-5.5273,-5.6211,-5.7265,-5.7981,-5.846,-5.8768,-5.8,-5.7192,-5.6241,-5.464,-5.3166,-5.2185,-5.2049,-5.2097,-5.2288,-5.2478,-5.2542,-5.2335,-5.149,-5.0663,-5.0028,-4.9721,-4.9351,-4.7799,-4.8366,-4.8817,-4.7876,-4.703,-4.6471,-4.6271,-4.485,-4.368,-4.3512,-4.28,-4.2245,-4.2218,-4.2218,-4.2218,-5.5461,-5.406,-5.2374,-5.1678,-5.1638,-5.1503,-5.1445,-5.1445,-5.1445,-5.1172,-5.0644,-4.9473,-4.8711,-4.8281,-4.791,-4.7949,-4.8281,-4.8281,-4.8496,-4.8848,-4.8848,-4.8848,-4.8848,-4.8848,-4.8848,-4.8848,-4.8848,-4.8672,-4.8301,-4.8223,-4.7832,-4.7129,-4.7422,-4.7598,-4.7676,-4.8027,-4.8633,-4.9531,-5.0312,-5.0566,-5.0273,-5.0508,-5.0098,-4.8984,-4.8262,-4.7539,-4.6797,-4.6308,-4.6055,-4.6055,-4.6152,-4.6055,-4.5683,-4.4922,-4.4101,0.0,-4.2441,0.0,0.0,0.0,0.0,0.0,0.0,0.0,0.0,-4.3672,-4.5098,-4.7012,-4.8047,-4.9101,-5.0234,-5.1543,-5.2519,-5.3008,-5.4219,-5.5332,-5.6172,-5.7031,-5.7988,-5.914,-6.0,-6.0683,-6.09,-6.0028,-5.9385,-5.9044,-5.8015,-5.6018,-5.3259,-5.2781,-5.2656,-5.2384,-5.2288,-5.2335,-5.232,-5.2304,-5.1809,-5.0663,-5.1187,-5.1187,-4.8621,-4.9464,-4.9995,-4.8708,-4.8233,-4.7932,-4.7932,-4.6412,-4.5008,-4.4698,-4.3588,-4.2538,-4.2231,-4.2218,-4.2218,-5.8028,-5.6451,-5.4251,-5.3018,-5.2524,-5.1753,-5.1445,-5.1445,-5.1445,-5.0996,-5.0273,-4.9668,-4.916,-4.873,-4.8652,-4.8652,-4.873,-4.873,-4.8789,-4.8848,-4.8848,-4.8848,-4.8848,-4.8848,-4.8848,-4.8848,-4.8848,-4.8808,-4.873,-4.8379,-4.8125,-4.7969,-4.7715,-4.7754,-4.8066,0.0,0.0,0.0,-5.0039,-5.043,-5.0664,-5.0078,-4.9648,-4.9355,-4.7285,0.0,-4.5898,-4.5176,-4.4766,-4.4785,-4.543,0.0,0.0,0.0,0.0,0.0,0.0,0.0,0.0,0.0,0.0,0.0,-4.5976,-4.5332,-4.4219,-4.6074,-4.7676,-4.8457,-4.9902,-5.0918,-5.1191,-5.2676,-5.3984,-5.4765,-5.5957,-5.707,-5.7949,-5.8789,-5.9433,-5.9668,-6.043,-6.0976,-6.1113,-6.1097,-6.0683,-5.9622,-5.9174,-5.8172,-5.6193,-5.5124,-5.4054,-5.2336,-5.2145,-5.2304,-5.232,-5.232,-5.216,-5.1968,-5.1984,-5.2,-5.1361,-5.1393,-5.1919,-5.128,-5.0294,-4.9358,-4.9358,-4.8006,-4.6395,-4.4994,-4.4515,-4.3756,-4.2525,-4.2218,-4.2218,-5.9636,0.0,-5.5921,-5.4695,0.0,-5.2942,-5.2547,-5.2471,-5.1717,-5.0957,-5.0156,-4.9726,-4.9277,-4.8848,-4.8848,-4.8848,-4.8848,-4.8848,-4.8848,-4.8848,-4.8848,-4.8848,-4.8848,-4.8848,-4.8848,-4.8848,-4.8848,-4.8848,-4.8848,-4.8633,-4.8418,-4.8203,-4.8203,-4.8203,-4.8223,-4.8418,-4.875,-4.9199,-4.9629,-4.9863,-4.9844,-4.9629,-4.9121,-4.8242,-4.6777,0.0,0.0,0.0,0.0,0.0,0.0,0.0,0.0,-4.5957,0.0,-4.5664,-4.543,-4.5488,-4.5898,-4.6152,-4.6738,-4.7793,-4.8281,-4.8086,-4.7012,-4.832,-4.9629,-5.0664,-5.1758,-5.2656,-5.332,-5.4531,-5.5625,-5.6484,-5.7344,-5.8144,-5.8789,-5.9414,-5.9883,-6.0137,-6.0683,-6.1152,-6.1387,-6.1562,-6.1427,-6.0699,-6.0673,-6.0074,-5.8231,-5.619,-5.4268,-5.2416,-5.2177,-5.2304,-5.232,-5.232,-5.232,-5.232,-5.232,-5.232,-5.232,-5.232,-5.232,-5.2304,-5.1505,-5.1012,-5.0853,-4.9711,-4.8216,-4.7143,-4.5798,-4.4459,-4.3297,-4.2724,-4.2218,-6.0975,-5.9352,-5.751,-5.637,-5.5628,-5.4487,-5.3937,-5.3842,0.0,0.0,0.0,-4.959,-4.9199,-4.8867,-4.8848,-4.8848,-4.8848,-4.8848,-4.8848,-4.8848,-4.8848,-4.8848,-4.8848,-4.8848,-4.8848,-4.8848,-4.8848,-4.8848,-4.8848,-4.8848,-4.8672,-4.8379,-4.8691,-4.8672,-4.8359,-4.8691,-4.8848,-4.8887,-4.9297,-4.9355,-4.9004,-4.9258,-4.873,-4.7305,-4.6562,-4.5703,-4.4668,-4.4101,-4.416,-4.4863,-4.5137,-4.5566,-4.6269,-4.6836,-4.7148,-4.7168,-4.7558,-4.7988,-4.8398,-4.8516,-4.8808,-4.9394,-5.0098,-5.0332,-4.9902,-5.0273,-5.1191,-5.2812,-5.334,-5.4121,-5.541,-5.6289,-5.7129,-5.791,-5.8379,-5.8789,-5.916,-5.9629,-6.0058,-6.041,-6.0879,-6.1308,-6.164,-6.1719,-6.1719,-6.1758,-6.1894,-6.1462,-5.9179,-5.6404,-5.4178,-5.3084,-5.2608,-5.232,-5.232,-5.232,-5.232,-5.232,-5.232,-5.232,-5.232,-5.232,-5.232,-5.232,-5.232,-5.2272,-5.208,-5.1108,-5.0048,-4.9426,-4.7352,-4.5304,-4.4642,-4.3508,-4.2597,-6.2898,-6.1583,-5.8955,-5.7828,-5.7582,-5.5791,-5.4964,-5.4756,-5.1723,-5.0078,-4.959,-4.9141,-4.8926,-4.8848,-4.8848,-4.8848,-4.8848,-4.8848,-4.8848,-4.8848,-4.8848,-4.8848,-4.8848,-4.8848,-4.8848,-4.8848,-4.8848,-4.8848,-4.8848,-4.8848,-4.8828,-4.8769,-4.8828,-4.8828,-4.8769,-4.8828,-4.8848,-4.8867,-4.9297,-4.9492,-4.9433,-4.9121,-4.8848,-4.8535,-4.6758,-4.5703,-4.5488,-4.4726,-4.4355,-4.4512,-4.5527,-4.6191,-4.6328,-4.7402,-4.8027,-4.8047,-4.8437,-4.8867,-4.9316,-4.9687,-5.041,-5.1504,-5.1758,-5.1641,-5.123,-5.1562,-5.2383,-5.3691,-5.4238,-5.5019,-5.6269,-5.7168,-5.7851,-5.8379,-5.8828,-5.9121,-5.9199,-5.9844,-6.0312,-6.041,-6.1152,-6.1582,-6.164,-6.1699,-6.1699,-6.1719,-6.1816,-6.1191,-5.9447,-5.642,-5.4527,-5.4162,-5.3116,-5.2416,-5.256,-5.2304,-5.2432,-5.232,-5.232,-5.232,-5.232,-5.232,-5.232,-5.232,-5.232,-5.2208,-5.197,-5.1954,-5.1111,-4.9867,-4.8737,-4.7955,-4.6495,-4.5006,-4.3467,-6.3514,-6.2174,-6.0901,-5.9789,-5.8747,-5.7149,-5.5862,-5.4776,-5.3292,-5.1849,-5.059,-4.9413,-4.8848,-4.8848,-4.8848,-4.8848,-4.8848,-4.8848,-4.8848,-4.8848,-4.8848,-4.8848,-4.8848,-4.8848,-4.8848,-4.8848,-4.8848,-4.8848,-4.8848,-4.8848,-4.8848,-4.8848,-4.8848,-4.8848,-4.8848,-4.8848,-4.8848,-4.8848,-4.9062,-4.916,-4.916,-4.8965,-4.8633,-4.8183,-4.7168,-4.6484,-4.6035,-4.5644,-4.5527,-4.5762,-4.6328,-4.6758,-4.7012,-4.7773,-4.832,-4.8555,-4.8984,-4.9512,-5.0176,-5.0625,-5.1211,-5.2012,-5.2305,-5.2441,-5.248,-5.2891,-5.3594,-5.4609,-5.5117,-5.5879,-5.7129,-5.7637,-5.8125,-5.8828,-5.9082,-5.918,-5.9238,-5.9707,-6.0098,-6.0137,-6.0644,-6.1094,-6.1348,-6.1367,-6.1484,-6.166,-6.1719,-6.1329,-6.0699,-5.872,-5.7035,-5.6398,-5.5642,-5.484,-5.4153,-5.3948,-5.3438,-5.256,-5.232,-5.232,-5.232,-5.232,-5.232,-5.232,-5.232,-5.2256,-5.2065,-5.2034,-5.1541,-5.0783,-4.9559,-4.859,-4.7521,-4.5813,-4.3859,-6.3619,-6.2455,-6.218,-6.1232,-6.0002,-5.8902,-5.7535,-5.6166,-5.5676,-5.456,-5.2953,-5.0529,-4.9216,-4.8848,-4.8848,-4.8848,-4.8848,-4.8848,-4.8848,-4.8848,-4.8848,-4.8848,-4.8848,-4.8848,-4.8848,-4.8848,-4.8848,-4.8848,-4.8848,-4.8848,-4.8848,-4.8848,-4.8848,-4.8848,-4.8848,-4.8848,-4.8848,-4.8848,-4.8848,-4.8848,-4.8848,-4.8848,-4.8535,-4.793,-4.7773,-4.7402,-4.6777,-4.6641,-4.6738,-4.7051,-4.7168,-4.7383,-4.7715,-4.8223,-4.8711,-4.9121,-4.957,-5.0137,-5.0879,-5.1328,-5.1758,-5.2187,-5.2617,-5.3047,-5.3476,-5.3926,-5.4433,-5.5098,-5.5488,-5.625,-5.7285,-5.7754,-5.8183,-5.8926,-5.914,-5.9199,-5.9219,-5.9551,-5.9805,-5.9844,-6.0176,-6.0605,-6.0859,-6.1035,-6.1269,-6.1621,-6.1719,-6.1719,-6.1563,-6.0887,-5.9924,-5.8978,-5.8269,-5.7351,-5.6143,-5.5454,-5.4694,-5.3071,-5.256,-5.2432,-5.232,-5.232,-5.232,-5.232,-5.232,-5.224,-5.2192,-5.1986,-5.1668,-5.1193,-5.0125,-4.9018,-4.8198,-4.6365,-4.4348,-6.3342,-6.2702,-6.1911,-6.1533,-6.1418,-6.1302,-6.1042,-6.0592,-5.8686,-5.7619,-5.6796,-5.2808,-5.0134,-4.9032,-4.894,-4.8848,-4.8848,-4.8848,-4.8848,-4.8848,-4.8848,-4.8848,-4.8848,-4.8848,-4.8848,-4.8848,-4.8848,-4.8848,-4.8848,-4.8848,-4.8848,-4.8848,-4.8848,-4.8848,-4.8848,-4.8848,-4.8848,-4.8848,-4.8848,-4.8848,-4.8848,-4.8848,-4.8808,-4.875,-4.834,-4.8125,-4.7969,-4.7656,-4.748,-4.7539,-4.7891,-4.8105,-4.8223,-4.8945,-4.959,-5.0019,-5.043,-5.0898,-5.1348,-5.1777,-5.2187,-5.2637,-5.3027,-5.3476,-5.3906,-5.4336,-5.4629,-5.4805,-5.5137,-5.582,-5.6621,-5.7402,-5.8066,-5.8594,-5.8965,-5.9199,-5.9238,-5.9551,-5.9805,-5.9805,-6.0098,-6.0449,-6.0508,-6.084,-6.125,-6.1582,-6.1699,-6.1719,-6.1738,-6.1641,-6.1541,-6.1292,-5.996,-5.8505,-5.7899,-5.6429,-5.569,-5.5074,-5.3438,-5.2816,-5.2688,-5.2432,-5.232,-5.232,-5.2272,-5.2161,-5.197,-5.1779,-5.162,-5.1239,-5.0672,-4.9999,-4.8555,-4.7098,-4.5587,-6.335,-6.2766,-6.2413,-6.2174,-6.1971,-6.1424,-6.1253,-6.1096,-6.0177,-5.9091,-5.7761,-5.54,-5.3123,-5.0873,-4.9564,-4.8848,-4.8848,-4.8848,-4.8848,-4.8848,-4.8848,-4.8848,-4.8848,-4.8848,-4.8848,-4.8848,-4.8848,-4.8848,-4.8848,-4.8848,-4.8848,-4.8848,-4.8848,-4.8848,-4.8848,-4.8848,-4.8848,-4.8848,-4.8848,-4.8848,-4.8848,-4.8848,-4.8848,-4.8828,-4.8691,-4.8594,-4.8574,-4.8418,-4.834,-4.834,-4.8496,-4.8594,-4.8594,-4.8945,-4.9453,-5.0137,-5.0801,-5.125,-5.1426,-5.1836,-5.2266,-5.2676,-5.3105,-5.3555,-5.3984,-5.4199,-5.4297,-5.4414,-5.5137,-5.6035,-5.6836,-5.75,-5.8047,-5.8476,-5.8926,-5.9199,-5.9199,-5.9336,-5.9433,-5.9453,-5.959,-5.9805,-6.0098,-6.0664,-6.1113,-6.1348,-6.1523,-6.1699,-6.1719,-6.1933,-6.2168,-6.2323,-6.1784,-6.0997,-5.9986,-5.9303,-5.8399,-5.7057,-5.5437,-5.4075,-5.3931,-5.2944,-5.232,-5.232,-5.2145,-5.2002,-5.1827,-5.1398,-5.1096,-5.0906,-5.0683,-5.0118,-4.9483,-4.8339,-4.6974,-6.3224,-6.2873,-6.2998,-6.2962,-6.2742,-6.2005,-6.1777,-6.185,-6.1522,-6.0628,-5.9233,-5.8018,-5.5901,-5.3259,-5.0621,-4.9308,-4.894,-4.8848,-4.8848,-4.8848,-4.8848,-4.8848,-4.8848,-4.8848,-4.8848,-4.8848,-4.8848,-4.8848,-4.8848,-4.8848,-4.8848,-4.8848,-4.8848,-4.8848,-4.8848,-4.8848,-4.8848,-4.8848,-4.8848,-4.8848,-4.8848,-4.8848,-4.8926,-4.9004,-4.8926,-4.8906,-4.9043,-4.8926,-4.8848,-4.8848,-4.8848,-4.8848,-4.8848,-4.8848,-4.9258,-5.0137,-5.0976,-5.1445,-5.1445,-5.1953,-5.2383,-5.2695,-5.3203,-5.3672,-5.3945,-5.4023,-5.4082,-5.4297,-5.5156,-5.6015,-5.6601,-5.7402,-5.7988,-5.834,-5.8828,-5.918,-5.9199,-5.9101,-5.9062,-5.916,-5.9121,-5.9219,-5.9765,-6.0332,-6.0742,-6.1074,-6.1348,-6.1621,-6.1719,-6.1973,-6.2168,-6.2207,-6.2832,-6.276,-6.1764,-6.1043,-6.049,-5.9055,-5.6936,-5.515,-5.5117,-5.3468,-5.232,-5.2272,-5.1986,-5.1716,-5.1557,-5.1128,-5.0699,-5.0588,-5.0413,-5.0238,-5.0099,-4.9097,-4.7968,-6.2847,-6.2898,-6.3425,-6.3794,-6.427,-6.3686,-6.3761,-6.3844,-6.3077,-6.2602,-6.2059,-6.0111,-5.7949,-5.553,-5.2408,-5.0205,-4.9032,-4.8848,-4.8848,-4.8848,-4.8848,-4.8848,-4.8848,-4.8848,-4.8848,-4.8848,-4.8848,-4.8848,-4.8848,-4.8848,-4.8848,-4.8848,-4.8848,-4.8848,-4.8848,-4.8848,-4.8848,-4.8848,-4.8848,-4.8867,-4.8867,-4.8867,-4.9101,-4.9453,-4.9101,-4.9082,-4.9375,-4.9082,-4.8867,-4.8848,-4.8848,-4.8848,-4.8848,-4.8887,-4.9316,-5.0137,-5.0957,-5.1445,-5.1523,-5.2187,-5.2676,-5.2812,-5.3476,-5.3984,-5.4004,-5.4023,-5.4199,-5.4609,-5.5058,-5.5449,-5.5683,-5.6953,-5.7793,-5.793,-5.8652,-5.9062,-5.914,-5.875,-5.8789,-5.9004,-5.8867,-5.9004,-5.9687,-5.9824,-6.0312,-6.082,-6.1113,-6.1269,-6.164,-6.1758,-6.1797,-6.1875,-6.2226,-6.2715,-6.3116,-6.2459,-6.1335,-6.0299,-5.8327,-5.568,-5.4444,-5.3526,-5.2942,-5.2352,-5.1906,-5.1731,-5.1319,-5.0985,-5.062,-5.0429,-5.0334,-5.0222,-5.0222,-4.9097,-4.8215,-6.2822,-6.2847,-6.3048,-6.292,-6.263,-6.2952,-6.292,-6.2605,-6.2752,-6.2822,-6.2577,-6.1267,-5.9691,-5.7949,-5.4675,-5.1597,-4.9032,-4.8848,-4.8848,-4.8848,-4.8848,-4.8848,-4.8848,-4.8848,-4.8848,-4.8848,-4.8848,-4.8848,-4.8848,-4.8848,-4.8848,-4.8848,-4.8848,-4.8848,-4.8848,-4.8848,-4.8848,-4.8848,-4.8848,-4.8984,-4.9258,-4.9297,-4.9609,-5.0254,-4.9668,-4.9355,-4.9512,-4.9375,-4.916,-4.8867,-4.8848,-4.8848,-4.8906,-4.9394,-4.9824,-5.0215,-5.0957,-5.1445,-5.1523,-5.2226,-5.2715,-5.2773,-5.3535,-5.4023,-5.4023,-5.4043,-5.4219,-5.4648,-5.5058,-5.539,-5.584,-5.6777,-5.7441,-5.7519,-5.7969,-5.8379,-5.832,-5.8203,-5.8281,-5.8672,-5.8828,-5.9121,-5.9355,-5.9629,-6.0039,-6.0566,-6.0898,-6.125,-6.1601,-6.1719,-6.1719,-6.1777,-6.207,-6.2461,-6.2715,-6.2705,-6.2197,-6.1733,-6.0315,-5.9152,-5.8042,-5.5493,-5.4434,-5.3829,-5.3171,-5.1666,-5.133,-5.0747,-5.0413,-5.0318,-5.0222,-5.0222,-5.0222,-4.9467,-4.8973,-6.2822,-6.2822,-6.2822,-6.2431,-6.1893,-6.2488,-6.2431,-6.1869,-6.2488,-6.2822,-6.2659,-6.2142,-6.0993,-5.9222,-5.6982,-5.3771,-5.0185,-4.9308,-4.8848,-4.8848,-4.8848,-4.8848,-4.8848,-4.8848,-4.8848,-4.8848,-4.8848,-4.8848,-4.8848,-4.8848,-4.8848,-4.8848,-4.8848,-4.8848,-4.8848,-4.8848,-4.8848,-4.8848,-4.8848,-4.9082,-4.9453,-4.9531,-4.9941,-5.0586,-5.0234,-4.9863,-4.9746,-4.9473,-4.9199,-4.8999,-4.8848,-4.8848,-4.8926,-4.9687,-5.0176,-5.0273,-5.1113,-5.1641,-5.1738,-5.2441,-5.293,-5.2949,-5.3574,-5.4023,-5.4023,-5.416,-5.4394,-5.4707,-5.5215,-5.5644,-5.5976,-5.6582,-5.7051,-5.7226,-5.7598,-5.7851,-5.7851,-5.7734,-5.7871,-5.8281,-5.8828,-5.9121,-5.9219,-5.9433,-5.9844,-6.0351,-6.0723,-6.1055,-6.1562,-6.1719,-6.1719,-6.1738,-6.1933,-6.209,-6.2226,-6.2244,-6.2437,-6.1999,-6.1188,-6.0773,-6.0015,-5.7565,-5.5961,-5.5483,-5.4071,-5.2302,-5.1199,-5.0616,-5.0334,-5.0238,-5.0222,-5.0222,-5.0222,-5.0222,-4.9591,-6.2822,-6.2822,-6.2822,-6.258,-6.2214,-6.2588,-6.263,-6.2297,-6.2613,-6.2822,-6.2822,-6.2741,-6.1515,-5.9751,-5.9053,-5.6614,-5.2813,-5.053,-4.9216,-4.894,-4.9052,-4.9032,-4.8959,-4.9032,-4.9032,-4.8848,-4.8848,-4.8848,-4.8848,-4.8848,-4.8848,-4.8848,-4.8848,-4.8848,-4.8848,-4.8848,-4.8848,-4.8867,-4.8887,-4.9121,-4.9473,-4.9609,-5.0039,-5.0762,-5.0762,-5.0527,-5.0176,-4.9414,-4.8984,-4.8887,-4.8848,-4.8848,-4.9004,-4.9707,-5.0176,-5.041,-5.1367,-5.1992,-5.2129,-5.2832,-5.3301,-5.3359,-5.3769,-5.4023,-5.4082,-5.4394,-5.4648,-5.4844,-5.541,-5.5918,-5.6015,-5.6387,-5.6777,-5.7148,-5.748,-5.7695,-5.7676,-5.748,-5.7383,-5.793,-5.8652,-5.914,-5.9199,-5.9238,-5.957,-6.0156,-6.0469,-6.0781,-6.1465,-6.166,-6.1719,-6.1719,-6.1797,-6.1875,-6.1797,-6.1758,-6.2031,-6.205,-6.123,-6.0537,-6.0221,-5.8553,-5.7686,-5.6895,-5.4696,-5.2934,-5.1545,-5.1024,-5.0409,-5.0222,-5.0222,-5.0222,-5.0222,-5.0222,-5.0222,-6.2822,-6.2822,-6.2822,-6.2406,-6.1869,-6.2463,-6.2431,-6.1869,-6.2463,-6.2822,-6.2822,-6.2822,-6.2388,-6.1432,-6.0111,-5.8205,-5.6162,-5.3792,-5.1417,-4.9492,-4.9951,-4.9768,-4.9216,-4.9859,-4.9859,-4.9032,-4.8848,-4.8848,-4.8848,-4.8848,-4.8848,-4.8848,-4.8848,-4.8848,-4.8867,-4.8848,-4.8848,-4.8906,-4.918,-4.9531,-4.9961,-5.0254,-5.0683,-5.1133,-5.0957,-5.0723,-5.0586,-5.0058,-4.9473,-4.8906,-4.8848,-4.8984,-4.9355,-4.9863,-5.0293,-5.0664,-5.1523,-5.209,-5.2187,-5.2851,-5.3379,-5.3457,-5.3789,-5.4004,-5.4062,-5.4453,-5.4824,-5.5098,-5.5605,-5.6035,-5.6328,-5.6484,-5.668,-5.6777,-5.6894,-5.7031,-5.7148,-5.7402,-5.7676,-5.791,-5.8633,-5.9121,-5.9199,-5.9199,-5.9414,-5.9961,-6.0273,-6.0683,-6.1172,-6.1582,-6.1699,-6.1719,-6.1719,-6.1719,-6.1719,-6.1719,-6.1836,-6.2031,-6.1479,-6.0959,-6.0525,-6.0067,-5.9229,-5.7899,-5.5583,-5.3773,-5.2372,-5.1417,-5.0821,-5.0345,-5.0222,-5.0222,-5.0222,-5.0222,-5.0222,-6.2822,-6.2822,-6.2822,-6.2331,-6.1647,-6.2413,-6.2331,-6.173,-6.2413,-6.2822,-6.2822,-6.2822,-6.2822,-6.247,-6.1242,-5.9859,-5.8422,-5.6596,-5.4058,-5.1236,-5.0752,-5.0205,-4.9124,-4.9768,-4.9859,-4.9032,-4.8848,-4.8848,-4.8848,-4.8848,-4.8848,-4.8848,-4.8848,-4.8965,-4.9082,-4.9101,-4.9101,-4.916,-4.9394,-4.9726,-5.0137,-5.043,-5.0859,-5.1289,-5.1172,-5.0957,-5.0801,-5.0391,-4.9844,-4.9238,-4.9101,-4.9258,-4.9551,-5.0078,-5.0605,-5.1094,-5.1797,-5.2383,-5.2598,-5.3242,-5.3613,-5.3691,-5.4023,-5.4258,-5.4375,-5.4765,-5.5273,-5.5527,-5.5937,-5.6289,-5.6523,-5.6758,-5.6797,-5.6816,-5.6699,-5.666,-5.6855,-5.7441,-5.791,-5.8203,-5.875,-5.9101,-5.9199,-5.9199,-5.9433,-5.9922,-6.0273,-6.0703,-6.1152,-6.1562,-6.166,-6.1719,-6.1719,-6.1719,-6.1719,-6.1719,-6.1719,-6.1836,-6.1855,-6.16,-6.1365,-6.0951,-6.0393,-5.9026,-5.7045,-5.5045,-5.3697,-5.2378,-5.1645,-5.105,-5.0329,-5.0222,-5.0222,-5.0222,-5.0222,-6.2822,-6.2822,-6.2822,-6.2413,-6.173,-6.2495,-6.2413,-6.1812,-6.2413,-6.2822,-6.2822,-6.2822,-6.2822,-6.2847,-6.257,-6.1448,-5.9607,-5.8771,-5.6837,-5.4433,-5.2677,-5.1186,-5.0094,-4.9472,-4.9032,-4.894,-4.8848,-4.8848,-4.8848,-4.8848,-4.8848,-4.8848,-4.8926,-4.9101,-4.9414,-4.9531,-4.9551,-4.957,-4.959,-4.9824,-5.0215,-5.0273,-5.0625,-5.1387,-5.1406,-5.123,-5.0898,-5.043,-4.998,-4.957,-4.9512,-4.9609,-4.9766,-5.0391,-5.0957,-5.1445,-5.2246,-5.2812,-5.3301,-5.3672,-5.4004,-5.4082,-5.4394,-5.4707,-5.4785,-5.5332,-5.5781,-5.5879,-5.6269,-5.6562,-5.6699,-5.6933,-5.7168,-5.7187,-5.6933,-5.6875,-5.7207,-5.7637,-5.7988,-5.8437,-5.8887,-5.9199,-5.9199,-5.9219,-5.9629,-6.0078,-6.0371,-6.0781,-6.1269,-6.1543,-6.166,-6.1699,-6.1719,-6.1719,-6.1719,-6.1719,-6.1719,-6.1758,-6.1836,-6.1836,-6.1855,-6.1563,-6.123,-5.9976,-5.8636,-5.6638,-5.5266,-5.4181,-5.2604,-5.154,-5.0927,-5.0452,-5.0222,-5.0222,-5.0222,-6.2822,-6.2822,-6.2822,-6.2659,-6.2495,-6.2741,-6.2659,-6.2495,-6.2659,-6.2847,-6.2847,-6.2822,-6.2847,-6.2873,-6.3274,-6.2539,-6.1213,-6.1013,-5.9309,-5.6404,-5.5597,-5.4366,-5.2566,-5.0185,-4.894,-4.9032,-4.9032,-4.8848,-4.8848,-4.8979,-4.8979,-4.8867,-4.9312,-4.9394,-4.9551,-4.9863,-5.0,-5.0,-5.0,-5.0195,-5.0547,-5.0625,-5.0898,-5.1348,-5.1445,-5.1367,-5.1191,-5.0566,-4.998,-4.9609,-4.9844,-5.0176,-5.0391,-5.0683,-5.1152,-5.1855,-5.2383,-5.291,-5.3359,-5.3808,-5.416,-5.4473,-5.4668,-5.4824,-5.5137,-5.5625,-5.5898,-5.5996,-5.6328,-5.6719,-5.6973,-5.7168,-5.7344,-5.7578,-5.7344,-5.7246,-5.7598,-5.7793,-5.8027,-5.8476,-5.8926,-5.914,-5.9277,-5.9433,-5.9707,-6.0019,-6.0312,-6.0644,-6.1211,-6.1406,-6.1484,-6.166,-6.1719,-6.1719,-6.1719,-6.1719,-6.1719,-6.1719,-6.1738,-6.1758,-6.1758,-6.166,-6.1544,-6.1037,-5.9764,-5.8032,-5.7301,-5.6465,-5.4664,-5.2743,-5.2134,-5.1784,-5.0698,-5.0222,-5.0222,-6.2822,-6.2822,-6.2822,-6.2822,-6.2822,-6.2822,-6.2822,-6.2822,-6.2822,-6.2973,-6.3099,-6.2898,-6.3099,-6.3525,-6.3626,-6.3252,-6.2506,-6.2313,-6.0918,-5.8941,-5.7246,-5.5597,-5.3747,-5.1458,-5.0752,-5.057,-5.0042,-5.0205,-5.0428,-4.9762,-4.9492,-4.9961,-4.9851,-4.9883,-5.0117,-5.0293,-5.0449,-5.0449,-5.0449,-5.0586,-5.0781,-5.0801,-5.1035,-5.1348,-5.1426,-5.1387,-5.1133,-5.0859,-5.043,-5.0019,-5.0058,-5.0371,-5.0762,-5.0996,-5.1465,-5.2266,-5.2578,-5.2969,-5.3574,-5.4043,-5.4394,-5.4707,-5.4941,-5.5293,-5.5625,-5.6094,-5.6465,-5.6543,-5.6719,-5.6933,-5.7168,-5.7363,-5.7773,-5.8262,-5.8027,-5.789,-5.8125,-5.8164,-5.8359,-5.8711,-5.9023,-5.9277,-5.9394,-5.9551,-5.9844,-6.0195,-6.041,-6.082,-6.125,-6.1289,-6.1387,-6.1601,-6.1719,-6.1719,-6.1719,-6.1719,-6.1719,-6.1719,-6.1719,-6.1719,-6.1719,-6.1719,-6.1719,-6.1368,-6.053,-5.9825,-5.8862,-5.8032,-5.6585,-5.5025,-5.406,-5.2848,-5.1784,-5.0698,-5.0575,-6.2904,-6.2822,-6.2822,-6.2822,-6.2822,-6.2822,-6.2822,-6.2822,-6.2822,-6.3149,-6.345,-6.3124,-6.35,-6.4429,-6.4103,-6.3852,-6.3693,-6.3151,-6.2288,-6.064,-5.8539,-5.6143,-5.4675,-5.3277,-5.274,-5.265,-5.175,-5.1993,-5.2027,-5.0707,-5.063,-5.1142,-5.0774,-5.0581,-5.0816,-5.0897,-5.0859,-5.0859,-5.0762,-5.0801,-5.0879,-5.0879,-5.1016,-5.1367,-5.1426,-5.1289,-5.1113,-5.1074,-5.0976,-5.0332,-5.0312,-5.0605,-5.0976,-5.1348,-5.1914,-5.2617,-5.293,-5.332,-5.3984,-5.4492,-5.4785,-5.498,-5.5547,-5.5996,-5.6191,-5.6719,-5.709,-5.7187,-5.7265,-5.7344,-5.75,-5.7754,-5.8242,-5.8789,-5.8711,-5.8555,-5.8594,-5.8594,-5.8769,-5.918,-5.9277,-5.9512,-5.9648,-5.9707,-5.9805,-6.0605,-6.0762,-6.0976,-6.1269,-6.1367,-6.1484,-6.166,-6.1719,-6.1719,-6.1719,-6.1719,-6.1719,-6.1719,-6.1719,-6.1719,-6.1719,-6.1719,-6.1719,-6.1485,-6.0998,-6.0412,-5.9806,-5.8862,-5.8014,-5.7062,-5.5866,-5.4422,-5.3091,-5.189,-5.1295,-6.3665,-6.2822,-6.2822,-6.2822,-6.2822,-6.2822,-6.2822,-6.2822,-6.2822,-6.3149,-6.355,-6.3525,-6.3877,-6.4505,-6.4731,-6.4731,-6.4379,-6.4328,-6.3841,-6.1869,-5.9592,-5.8282,-5.6882,-5.4961,-5.3476,-5.3277,-5.3008,-5.302,-5.2863,-5.2208,-5.181,-5.2549,-5.1738,-5.1086,-5.1853,-5.1595,-5.1289,-5.123,-5.0996,-5.0996,-5.1152,-5.0996,-5.1035,-5.1387,-5.1465,-5.1406,-5.125,-5.1055,-5.1016,-5.1113,-5.1172,-5.1308,-5.166,-5.1855,-5.2344,-5.3008,-5.3535,-5.3945,-5.4492,-5.4902,-5.5312,-5.5586,-5.5859,-5.623,-5.6894,-5.709,-5.7402,-5.7617,-5.7734,-5.7851,-5.8105,-5.8301,-5.8633,-5.8945,-5.8848,-5.8691,-5.8945,-5.9043,-5.9238,-5.957,-5.9922,-6.0195,-6.0293,-6.0488,-6.0683,-6.1035,-6.1133,-6.1211,-6.1328,-6.1465,-6.1562,-6.1699,-6.1719,-6.1719,-6.1719,-6.1719,-6.1719,-6.1719,-6.1719,-6.1719,-6.1719,-6.1719,-6.1719,-6.1719,-6.1602,-6.1115,-6.053,-6.0647,-6.0041,-5.8862,-5.7539,-5.5986,-5.4422,-5.3212,-5.1662,-6.4309,-6.3665,-6.3067,-6.2822,-6.2822,-6.2822,-6.2822,-6.2822,-6.2822,-6.3149,-6.3601,-6.3701,-6.4128,-6.4856,-6.5132,-6.5107,-6.4881,-6.4831,-6.3925,-6.2342,-6.0858,-6.011,-5.9399,-5.7757,-5.6412,-5.5379,-5.4432,-5.4515,-5.4615,-5.3668,-5.329,-5.4377,-5.3148,-5.2992,-5.3087,-5.2564,-5.2181,-5.1988,-5.1424,-5.123,-5.1348,-5.123,-5.1172,-5.1445,-5.1621,-5.1738,-5.1699,-5.1543,-5.1562,-5.168,-5.1738,-5.1836,-5.207,-5.2285,-5.2715,-5.3281,-5.3789,-5.4219,-5.4668,-5.5234,-5.5683,-5.5937,-5.6269,-5.6719,-5.7246,-5.7539,-5.791,-5.8105,-5.8203,-5.8301,-5.8496,-5.8535,-5.875,-5.9023,-5.8984,-5.8965,-5.916,-5.9355,-5.9531,-5.9844,-6.0137,-6.0469,-6.0723,-6.0937,-6.1133,-6.1269,-6.1133,-6.1211,-6.1504,-6.1601,-6.1601,-6.168,-6.1699,-6.1719,-6.1719,-6.1719,-6.1719,-6.1719,-6.1719,-6.1719,-6.1719,-6.1719,-6.1719,-6.1719,-6.1719,-6.1719,-6.1368,-6.1602,-6.1485,-6.053,-5.9098,-5.7301,-5.5609,-5.406,-5.2256,-6.4842,-6.4603,-6.3367,-6.2822,-6.2822,-6.2822,-6.2822,-6.2822,-6.2822,-6.3149,-6.3651,-6.3751,-6.4379,-6.5132,-6.5409,-6.5434,-6.5283,-6.4881,-6.401,-6.3097,-6.2405,-6.163,-6.0845,-6.0395,-5.9672,-5.8045,-5.6787,-5.6794,-5.6799,-5.5579,-5.484,-5.5772,-5.4916,-5.4399,-5.4366,-5.3548,-5.2896,-5.2684,-5.1891,-5.1659,-5.1757,-5.1737,-5.1582,-5.1797,-5.1992,-5.2168,-5.2168,-5.2129,-5.2168,-5.2187,-5.2246,-5.2266,-5.2363,-5.2598,-5.3066,-5.3535,-5.4082,-5.4551,-5.5039,-5.5605,-5.6074,-5.6133,-5.6719,-5.7246,-5.7558,-5.8027,-5.8398,-5.8574,-5.8633,-5.8633,-5.8652,-5.8691,-5.8848,-5.9101,-5.9219,-5.9277,-5.9375,-5.9687,-6.0,-6.0,-6.0508,-6.0976,-6.1015,-6.1113,-6.1328,-6.1445,-6.1289,-6.1269,-6.1562,-6.1719,-6.1699,-6.168,-6.1699,-6.1719,-6.1719,-6.1719,-6.1719,-6.1719,-6.1719,-6.1719,-6.1719,-6.1719,-6.1719,-6.1719,-6.1719,-6.1719,-6.1719,-6.1719,-6.1602,-6.1368,-6.0647,-5.898,-5.7062,-5.4905,-5.3107,-6.5634,-6.4603,-6.3367,-6.2822,-6.2822,-6.2822,-6.2822,-6.2822,-6.2822,-6.3149,-6.3701,-6.4153,-6.4655,-6.5283,-6.581,-6.5961,-6.5785,-6.5383,-6.4972,-6.4384,-6.3687,-6.2724,-6.2481,-6.2069,-6.158,-6.0891,-5.9628,-5.9181,-5.868,-5.7097,-5.6468,-5.6716,-5.5577,-5.5052,-5.5188,-5.4142,-5.3458,-5.3463,-5.2457,-5.2187,-5.2969,-5.2561,-5.2267,-5.2502,-5.2579,-5.2598,-5.2617,-5.2617,-5.2598,-5.2637,-5.2949,-5.3086,-5.3144,-5.3223,-5.3652,-5.4258,-5.4785,-5.5195,-5.5664,-5.6152,-5.6621,-5.6914,-5.7207,-5.7637,-5.8086,-5.8437,-5.8711,-5.8945,-5.9023,-5.9062,-5.9062,-5.9004,-5.9082,-5.9258,-5.9473,-5.9668,-5.9824,-6.0254,-6.0605,-6.043,-6.0957,-6.1426,-6.1367,-6.1348,-6.1484,-6.1601,-6.1523,-6.1465,-6.1621,-6.1719,-6.1719,-6.1699,-6.1719,-6.1719,-6.1719,-6.1719,-6.1719,-6.1719,-6.1719,-6.1719,-6.1719,-6.1719,-6.1719,-6.1836,-6.1797,-6.1758,-6.1738,-6.1758,-6.1719,-6.1602,-6.0998,-6.053,-5.8488,-5.6345,-5.4664,-6.7168,-6.5556,-6.4309,-6.3367,-6.2904,-6.2822,-6.2822,-6.2822,-6.2847,-6.3149,-6.3726,-6.4254,-6.4781,-6.5308,-6.586,-6.6112,-6.6011,-6.5886,-6.5559,-6.5113,-6.4583,-6.4005,-6.3906,-6.363,-6.3668,-6.3314,-6.2447,-6.138,-6.0632,-5.8909,-5.8249,-5.8215,-5.7119,-5.6781,-5.6903,-5.6115,-5.5287,-5.4911,-5.3831,-5.3424,-5.4622,-5.3782,-5.3449,-5.3429,-5.3231,-5.3127,-5.3047,-5.3047,-5.3047,-5.3086,-5.3242,-5.3476,-5.3691,-5.3965,-5.4219,-5.4726,-5.5273,-5.582,-5.625,-5.666,-5.709,-5.75,-5.7734,-5.8047,-5.8457,-5.8711,-5.8945,-5.9101,-5.9199,-5.9199,-5.918,-5.9199,-5.9297,-5.9492,-5.9707,-5.9902,-6.0195,-6.0742,-6.084,-6.084,-6.125,-6.1562,-6.164,-6.164,-6.1699,-6.1719,-6.1719,-6.1719,-6.1719,-6.1719,-6.1719,-6.1777,-6.1777,-6.1777,-6.1758,-6.1738,-6.1719,-6.1719,-6.1797,-6.1797,-6.1875,-6.1933,-6.2012,-6.2109,-6.2012,-6.1855,-6.1914,-6.1953,-6.1836,-6.1719,-6.1368,-6.0764,-5.9334,-5.7776,-5.6106,-6.893,-6.7118,-6.5529,-6.4229,-6.3204,-6.2904,-6.2985,-6.3148,-6.2904,-6.3212,-6.388,-6.4345,-6.4705,-6.5208,-6.5735,-6.6112,-6.6112,-6.6086,-6.586,-6.5584,-6.5399,-6.5183,-6.5057,-6.5183,-6.5288,-6.4972,-6.4593,-6.3647,-6.2153,-6.0395,-5.9862,-5.9428,-5.8895,-5.8396,-5.8228,-5.744,-5.7528,-5.6597,-5.5458,-5.487,-5.5267,-5.5152,-5.4677,-5.4471,-5.3926,-5.3496,-5.3496,-5.3633,-5.3574,-5.3613,-5.3711,-5.3906,-5.4199,-5.4648,-5.4922,-5.5039,-5.5586,-5.6113,-5.666,-5.6953,-5.7383,-5.7949,-5.8301,-5.8515,-5.8711,-5.8965,-5.916,-5.9199,-5.9199,-5.9199,-5.9199,-5.9199,-5.9394,-5.9707,-5.9883,-6.0098,-6.0547,-6.0957,-6.123,-6.1348,-6.1582,-6.166,-6.1719,-6.1719,-6.1719,-6.1719,-6.1719,-6.1719,-6.1719,-6.1719,-6.1738,-6.1836,-6.1855,-6.1836,-6.1816,-6.1777,-6.1758,-6.1719,-6.1894,-6.2012,-6.2129,-6.2226,-6.2383,-6.2558,-6.2148,-6.2031,-6.2109,-6.207,-6.1855,-6.1719,-6.1719,-6.1252,-6.0295,-5.898,-5.7181,-7.0567,-6.9073,-6.6728,-6.5187,-6.4363,-6.3367,-6.3529,-6.4309,-6.3392,-6.3554,-6.4614,-6.4583,-6.4555,-6.4906,-6.571,-6.6086,-6.6112,-6.6112,-6.6036,-6.5911,-6.5911,-6.5886,-6.586,-6.5961,-6.5936,-6.5911,-6.5753,-6.5025,-6.3545,-6.1597,-6.0432,-6.0226,-5.9646,-5.8881,-5.8832,-5.8274,-5.6992,-5.6182,-5.5009,-5.4679,-5.53,-5.6163,-5.5987,-5.5447,-5.4519,-5.3965,-5.4023,-5.4238,-5.4277,-5.4101,-5.4668,-5.4863,-5.4805,-5.5371,-5.5703,-5.5801,-5.5957,-5.6289,-5.6992,-5.7305,-5.7676,-5.8281,-5.8555,-5.875,-5.8945,-5.9082,-5.9199,-5.9199,-5.9199,-5.9199,-5.9199,-5.9199,-5.9414,-5.9785,-6.0137,-6.0508,-6.0937,-6.1191,-6.1445,-6.1523,-6.166,-6.1699,-6.1719,-6.1719,-6.1719,-6.1719,-6.1719,-6.1719,-6.1758,-6.1797,-6.1894,-6.2012,-6.2051,-6.2031,-6.2109,-6.2031,-6.1992,-6.1894,-6.209,-6.2305,-6.2441,-6.2656,-6.3047,-6.3066,-6.2617,-6.2285,-6.2363,-6.2226,-6.1875,-6.1719,-6.1719,-6.1719,-6.1602,-6.006,-5.8507,-7.2879,-7.009,-6.8566,-6.7345,-6.6366,-6.5318,-6.5265,-6.5476,-6.4804,-6.4816,-6.5445,-6.5115,-6.5082,-6.5434,-6.5961,-6.6112,-6.6112,-6.6112,-6.6112,-6.6112,-6.6112,-6.6112,-6.6086,-6.6112,-6.6112,-6.6162,-6.6112,-6.5853,-6.4615,-6.3474,-6.226,-6.1571,-6.0615,-5.9863,-5.9659,-5.9261,-5.8536,-5.7655,-5.6635,-5.6099,-5.616,-5.6248,-5.6233,-5.5931,-5.4736,-5.438,-5.4629,-5.4629,-5.4765,-5.4726,-5.5195,-5.5371,-5.543,-5.5762,-5.6074,-5.666,-5.666,-5.6973,-5.75,-5.7773,-5.8262,-5.8672,-5.8887,-5.9004,-5.916,-5.9199,-5.9199,-5.9199,-5.9199,-5.9199,-5.9199,-5.9199,-5.9609,-5.998,-6.0371,-6.084,-6.123,-6.1484,-6.168,-6.1699,-6.1719,-6.1719,-6.1719,-6.1719,-6.1758,-6.1797,-6.1797,-6.1797,-6.1894,-6.2012,-6.2129,-6.2285,-6.2305,-6.2285,-6.2402,-6.2441,-6.248,-6.2441,-6.2598,-6.2773,-6.2851,-6.3086,-6.3457,-6.3476,-6.3047,-6.2812,-6.2695,-6.2246,-6.1777,-6.1719,-6.1719,-6.1738,-6.1758,-6.1368,-5.9627,-7.4869,-7.1956,-7.1001,-6.9754,-6.8329,-6.7511,-6.7177,-6.718,-6.6371,-6.6333,-6.6443,-6.5848,-6.5559,-6.6011,-6.6086,-6.6112,-6.6112,-6.6112,-6.6112,-6.6112,-6.6137,-6.6212,-6.6287,-6.6287,-6.6212,-6.6312,-6.6162,-6.6151,-6.5992,-6.521,-6.423,-6.3302,-6.1832,-6.1226,-6.0797,-6.04,-5.9897,-5.9024,-5.7801,-5.7294,-5.7128,-5.6111,-5.6072,-5.5749,-5.5178,-5.4551,-5.5137,-5.5195,-5.5215,-5.5195,-5.5586,-5.5801,-5.5859,-5.6055,-5.6445,-5.6973,-5.7168,-5.7519,-5.7949,-5.8301,-5.875,-5.9023,-5.9199,-5.914,-5.918,-5.9199,-5.9199,-5.9199,-5.9199,-5.9238,-5.9316,-5.9375,-5.9824,-6.0273,-6.0644,-6.1113,-6.1504,-6.164,-6.1719,-6.1719,-6.1719,-6.1719,-6.1719,-6.1719,-6.1777,-6.1875,-6.1894,-6.1894,-6.2109,-6.2324,-6.2558,-6.2754,-6.2656,-6.2715,-6.291,-6.2969,-6.2949,-6.2969,-6.3105,-6.3203,-6.3262,-6.3496,-6.3828,-6.3691,-6.3379,-6.3105,-6.2851,-6.2265,-6.1719,-6.1758,-6.1797,-6.1797,-6.1797,-6.1524,-6.0216,-7.6285,-7.5408,-7.4068,-7.2336,-7.0433,-6.9083,-6.8879,-6.9269,-6.8031,-6.7668,-6.7578,-6.6291,-6.566,-6.6011,-6.6112,-6.6112,-6.6112,-6.6112,-6.6112,-6.6112,-6.6162,-6.6438,-6.6564,-6.6538,-6.6438,-6.6714,-6.6564,-6.6614,-6.6789,-6.6691,-6.6,-6.5143,-6.3468,-6.2868,-6.2217,-6.141,-6.0778,-5.9862,-5.8708,-5.8037,-5.7507,-5.674,-5.5991,-5.6007,-5.5389,-5.4863,-5.5312,-5.5566,-5.5664,-5.5488,-5.5976,-5.6172,-5.6133,-5.6387,-5.6816,-5.7226,-5.7656,-5.8008,-5.8418,-5.8574,-5.8769,-5.9043,-5.9199,-5.9199,-5.9199,-5.9199,-5.9199,-5.9199,-5.9199,-5.9375,-5.957,-5.9844,-6.0078,-6.0586,-6.0918,-6.1191,-6.1504,-6.164,-6.1719,-6.1719,-6.1738,-6.1758,-6.1875,-6.1914,-6.1836,-6.1914,-6.2148,-6.2187,-6.2598,-6.2851,-6.3144,-6.3262,-6.3105,-6.3183,-6.3496,-6.3476,-6.3281,-6.334,-6.3515,-6.3594,-6.3652,-6.3926,-6.4121,-6.3906,-6.3594,-6.3301,-6.291,-6.2265,-6.1836,-6.1836,-6.1875,-6.1973,-6.1719,-6.1309,-5.9466,-7.6933,-7.7072,-7.6894,-7.567,-7.3644,-7.273,-7.2432,-7.2292,-7.0849,-6.908,-6.7841,-6.6475,-6.5911,-6.6061,-6.6112,-6.6112,-6.6112,-6.6112,-6.6112,-6.6262,-6.6463,-6.6739,-6.6915,-6.7091,-6.7116,-6.7091,-6.7015,-6.6965,-6.6965,-6.7317,-6.7617,-6.6758,-6.5342,-6.4156,-6.3268,-6.2061,-6.1286,-6.085,-5.9676,-5.8617,-5.8838,-5.7229,-5.6372,-5.6953,-5.5425,-5.5358,-5.5898,-5.5937,-5.6015,-5.6152,-5.6532,-5.6406,-5.6406,-5.6738,-5.7148,-5.7558,-5.7988,-5.8418,-5.8808,-5.8906,-5.9023,-5.9101,-5.9199,-5.9199,-5.9199,-5.9199,-5.9199,-5.9199,-5.9219,-5.9414,-5.9726,-5.9844,-6.0078,-6.0781,-6.1191,-6.1387,-6.1523,-6.168,-6.1797,-6.1836,-6.1836,-6.1836,-6.1992,-6.2148,-6.2031,-6.1973,-6.2226,-6.2539,-6.2988,-6.3301,-6.3555,-6.3672,-6.3535,-6.3594,-6.3887,-6.375,-6.3535,-6.3691,-6.3887,-6.3926,-6.3965,-6.4082,-6.4199,-6.4004,-6.375,-6.3359,-6.2851,-6.2207,-6.1973,-6.2051,-6.2148,-6.2246,-6.1815,-6.1346,-5.9204,-7.7382,-7.7861,-7.8519,-7.7729,-7.6031,-7.5465,-7.5101,-7.4645,-7.3435,-7.1219,-6.8576,-6.7341,-6.6455,-6.6197,-6.6112,-6.6112,-6.6112,-6.6137,-6.6262,-6.6463,-6.6764,-6.7141,-6.7442,-6.7593,-6.7618,-6.7518,-6.7543,-6.7568,-6.7618,-6.7894,-6.8232,-6.825,-6.7818,-6.6396,-6.5089,-6.3053,-6.2333,-6.2333,-6.0789,-6.0116,-6.0639,-5.8614,-5.7922,-5.848,-5.7433,-5.7428,-5.7781,-5.7771,-5.7343,-5.7329,-5.7186,-5.6806,-5.6816,-5.707,-5.7519,-5.789,-5.8281,-5.873,-5.9062,-5.9199,-5.918,-5.9199,-5.9199,-5.9199,-5.9199,-5.9199,-5.9199,-5.9199,-5.9297,-5.9531,-5.9922,-6.0195,-6.0566,-6.125,-6.1348,-6.1523,-6.1601,-6.1719,-6.1855,-6.1953,-6.1992,-6.2109,-6.2383,-6.2598,-6.2695,-6.2734,-6.3125,-6.334,-6.3535,-6.3769,-6.3867,-6.3945,-6.3906,-6.4043,-6.4219,-6.4043,-6.3887,-6.3965,-6.4121,-6.418,-6.4238,-6.4316,-6.4297,-6.416,-6.3848,-6.3379,-6.3008,-6.2676,-6.2461,-6.2305,-6.2344,-6.2344,-6.2246,-6.1502,-5.9616,-7.7801,-7.7891,-7.8519,-7.7967,-7.6795,-7.6723,-7.6256,-7.5742,-7.5178,-7.357,-7.0853,-6.8992,-6.7333,-6.6505,-6.6409,-6.6262,-6.6287,-6.6287,-6.6463,-6.6815,-6.7191,-6.7693,-6.8045,-6.8196,-6.8196,-6.8371,-6.8296,-6.8271,-6.8522,-6.8547,-6.8924,-6.9426,-6.9273,-6.8789,-6.8342,-6.654,-6.5656,-6.5109,-6.2488,-6.2617,-6.2477,-6.0763,-6.0541,-6.0884,-6.0171,-5.9961,-6.0302,-5.9254,-5.8763,-5.9,-5.7834,-5.7178,-5.6894,-5.75,-5.7871,-5.7949,-5.8359,-5.8769,-5.9121,-5.918,-5.9199,-5.9199,-5.9199,-5.9199,-5.9199,-5.9199,-5.9199,-5.9199,-5.9473,-5.9902,-6.0332,-6.0762,-6.1133,-6.1426,-6.1543,-6.1601,-6.168,-6.1719,-6.1836,-6.207,-6.2285,-6.248,-6.2812,-6.3086,-6.332,-6.3574,-6.4004,-6.416,-6.4101,-6.4101,-6.4121,-6.4121,-6.4121,-6.418,-6.4277,-6.4297,-6.4258,-6.4316,-6.4316,-6.4316,-6.4316,-6.4316,-6.4297,-6.4258,-6.3965,-6.3515,-6.3398,-6.3281,-6.2988,-6.2656,-6.2402,-6.2344,-6.2246,-6.1639,-5.9697,-7.8071,-7.8489,-7.8699,-7.8525,-7.8099,-7.8099,-7.7955,-7.7489,-7.6147,-7.4314,-7.2057,-6.9821,-6.8643,-6.7887,-6.6985,-6.6664,-6.6714,-6.7141,-6.7367,-6.7066,-6.7643,-6.817,-6.8572,-6.8798,-6.8773,-6.8723,-6.8698,-6.8949,-6.915,-6.9225,-6.9777,-7.033,-7.0589,-7.008,-6.887,-6.7617,-6.7219,-6.7097,-6.6141,-6.595,-6.6057,-6.4442,-6.3556,-6.4169,-6.2819,-6.2436,-6.2668,-6.0991,-6.0165,-6.0108,-5.8702,-5.7648,-5.7461,-5.8027,-5.8281,-5.8379,-5.8711,-5.9004,-5.916,-5.9199,-5.9199,-5.9199,-5.9199,-5.9199,-5.9199,-5.9199,-5.9199,-5.9316,-5.9687,-6.0078,-6.039,-6.082,-6.1211,-6.1543,-6.168,-6.168,-6.1719,-6.1719,-6.1816,-6.2129,-6.2402,-6.2871,-6.3262,-6.3515,-6.375,-6.3789,-6.4082,-6.4219,-6.418,-6.4219,-6.4258,-6.4258,-6.4258,-6.4277,-6.4316,-6.4316,-6.4316,-6.4316,-6.4316,-6.4316,-6.4316,-6.4316,-6.4297,-6.4277,-6.3984,-6.3672,-6.3633,-6.3535,-6.3262,-6.2988,-6.2656,-6.2402,-6.2305,-6.1502,-6.0037,-7.819,-7.8759,-7.8789,-7.8789,-7.8789,-7.8789,-7.8789,-7.847,-7.6988,-7.5126,-7.3085,-7.0934,-6.9346,-6.8507,-6.7532,-6.6965,-6.7041,-6.7518,-6.7945,-6.7593,-6.8221,-6.8673,-6.9024,-6.9401,-6.9325,-6.925,-6.9602,-6.9978,-6.9777,-6.9928,-7.038,-7.0983,-7.161,-7.1094,-6.9995,-6.9334,-6.8937,-6.8765,-6.8249,-6.8099,-6.8395,-6.7935,-6.7057,-6.7253,-6.6476,-6.5414,-6.4509,-6.3077,-6.1322,-6.0818,-5.9595,-5.8227,-5.8105,-5.8379,-5.8613,-5.8711,-5.8906,-5.9199,-5.9375,-5.9219,-5.9277,-5.9433,-5.9277,-5.9199,-5.9238,-5.9336,-5.9414,-5.959,-5.9922,-6.0273,-6.0644,-6.1055,-6.1367,-6.1719,-6.1719,-6.1719,-6.1777,-6.1797,-6.2129,-6.2422,-6.2832,-6.3301,-6.3691,-6.3926,-6.418,-6.4121,-6.4101,-6.418,-6.4258,-6.4336,-6.4336,-6.4316,-6.4316,-6.4336,-6.4316,-6.4316,-6.4316,-6.4316,-6.4316,-6.4316,-6.4316,-6.4316,-6.4316,-6.4316,-6.4121,-6.3965,-6.3887,-6.375,-6.3515,-6.3164,-6.2734,-6.2539,-6.2402,-6.1522,-6.0489,-7.822,-7.8759,-7.8789,-7.8789,-7.8789,-7.8789,-7.8789,-7.8717,-7.799,-7.6496,-7.4407,-7.2375,-7.0608,-6.8559,-6.7603,-6.7215,-6.7267,-6.7719,-6.8095,-6.8472,-6.8798,-6.9125,-6.9551,-6.9978,-6.9978,-7.0054,-7.0305,-7.0606,-7.0405,-7.0882,-7.1209,-7.1284,-7.1811,-7.175,-7.129,-7.0897,-7.0664,-7.0471,-7.0057,-7.0225,-7.0834,-7.0274,-7.0298,-7.044,-7.0193,-6.9238,-6.8065,-6.6099,-6.4182,-6.2543,-6.0385,-5.8941,-5.8359,-5.873,-5.875,-5.8828,-5.9023,-5.9375,-5.9531,-5.9316,-5.9375,-5.9512,-5.9414,-5.9277,-5.9336,-5.9551,-5.9687,-6.0,-6.039,-6.0723,-6.1094,-6.1348,-6.1621,-6.1719,-6.1719,-6.1777,-6.1875,-6.2109,-6.2519,-6.293,-6.3379,-6.3789,-6.4043,-6.4297,-6.4355,-6.4277,-6.4199,-6.4219,-6.4316,-6.4453,-6.4433,-6.4336,-6.4355,-6.4375,-6.4355,-6.4316,-6.4316,-6.4316,-6.4316,-6.4316,-6.4316,-6.4316,-6.4316,-6.4316,-6.4316,-6.4238,-6.4121,-6.3965,-6.3789,-6.3418,-6.3105,-6.2793,-6.2676,-6.2207,-6.1074,-7.8609,-7.8789,-7.8789,-7.8789,-7.8789,-7.8789,-7.8789,-7.8717,-7.8499,-7.7711,-7.6571,-7.4407,-7.2329,-7.0898,-6.9657,-6.8514,-6.8184,-6.8371,-6.8622,-6.8974,-6.9426,-6.9777,-7.0154,-7.0531,-7.0656,-7.0757,-7.0932,-7.1259,-7.1485,-7.1937,-7.1937,-7.1836,-7.2163,-7.2389,-7.2301,-7.2167,-7.2176,-7.2088,-7.161,-7.2246,-7.2908,-7.2639,-7.2861,-7.2863,-7.2667,-7.1897,-7.0821,-6.8147,-6.6221,-6.4702,-6.1865,-5.9936,-5.8906,-5.9062,-5.9062,-5.9082,-5.9336,-5.9609,-5.9453,-5.9531,-5.959,-5.9531,-5.9492,-5.9648,-5.9668,-5.9805,-6.0,-6.039,-6.0781,-6.1094,-6.1269,-6.1484,-6.168,-6.1719,-6.1777,-6.1914,-6.2051,-6.2402,-6.2851,-6.3418,-6.3867,-6.4082,-6.4336,-6.4394,-6.4433,-6.4355,-6.4316,-6.4316,-6.4355,-6.4473,-6.4492,-6.4375,-6.4492,-6.4551,-6.4394,-6.4336,-6.4316,-6.4316,-6.4316,-6.4336,-6.4375,-6.4375,-6.4336,-6.4316,-6.4316,-6.4316,-6.4277,-6.414,-6.4004,-6.3965,-6.3691,-6.3281,-6.289,-6.25,-6.1835,-7.8789,-7.8789,-7.8789,-7.8789,-7.8789,-7.8789,-7.8789,-7.8789,-7.8789,-7.8354,-7.7446,-7.5657,-7.3863,-7.2016,-7.0721,-6.9479,-6.8309,-6.9175,-6.9602,-6.9677,-7.0245,-7.043,-7.0757,-7.115,-7.1158,-7.1284,-7.1485,-7.1836,-7.2087,-7.2389,-7.2464,-7.2313,-7.2615,-7.269,-7.2621,-7.2646,-7.2796,-7.3047,-7.3348,-7.3946,-7.4347,-7.4649,-7.4536,-7.454,-7.4095,-7.3796,-7.2932,-6.9948,-6.8382,-6.6584,-6.3556,-6.1431,-6.0234,-5.9718,-5.9336,-5.9394,-5.959,-5.9785,-5.9805,-5.9746,-5.9648,-5.9531,-5.9551,-5.9707,-6.0058,-6.0293,-6.0488,-6.0742,-6.1094,-6.1387,-6.1465,-6.1543,-6.164,-6.1719,-6.1894,-6.209,-6.2383,-6.2695,-6.3242,-6.3828,-6.416,-6.4336,-6.4473,-6.4512,-6.4473,-6.4355,-6.4316,-6.4316,-6.4336,-6.4414,-6.4414,-6.4336,-6.457,-6.4765,-6.459,-6.4453,-6.4453,-6.4414,-6.4316,-6.4336,-6.4414,-6.4394,-6.4336,-6.4316,-6.4316,-6.4316,-6.4316,-6.4316,-6.4219,-6.416,-6.4062,-6.373,-6.334,-6.3027,-6.2279,-7.8789,-7.8789,-7.8789,-7.8789,-7.8789,-7.8878,-7.8908,-7.8878,-7.9028,-7.8516,-7.7623,-7.6421,-7.4677,-7.2883,-7.175,-7.0403,-6.9473,-6.9757,-7.0104,-7.0371,-7.12,-7.1452,-7.162,-7.1796,-7.2125,-7.199,-7.1912,-7.2288,-7.2238,-7.2565,-7.2891,-7.274,-7.2715,-7.2791,-7.2941,-7.2941,-7.3242,-7.387,-7.4046,-7.4423,-7.5276,-7.5552,-7.5527,-7.5904,-7.5757,-7.5311,-7.3961,-7.2372,-7.0789,-6.8085,-6.5561,-6.3426,-6.1642,-6.0171,-5.9717,-5.9805,-6.0,-6.0098,-6.0195,-6.0156,-6.0019,-5.9805,-5.959,-5.9961,-6.041,-6.0527,-6.0644,-6.1074,-6.1426,-6.166,-6.1777,-6.1855,-6.1953,-6.2129,-6.2344,-6.2558,-6.2832,-6.3223,-6.3769,-6.4277,-6.4512,-6.4687,-6.4805,-6.4844,-6.4707,-6.4492,-6.4316,-6.4316,-6.4453,-6.4512,-6.4531,-6.4531,-6.4941,-6.5176,-6.4883,-6.4746,-6.4648,-6.457,-6.4414,-6.4375,-6.4453,-6.4414,-6.4316,-6.4316,-6.4316,-6.4316,-6.4316,-6.4316,-6.4297,-6.4258,-6.414,-6.4043,-6.3789,-6.3476,-6.3042,-7.8789,-7.8789,-7.8789,-7.8789,-7.8878,-7.9357,-7.9567,-7.9627,-8.0135,-7.957,-7.8563,-7.7917,-7.6521,-7.4306,-7.3485,-7.209,-7.0307,-7.0346,-7.027,-7.1023,-7.188,-7.2619,-7.2833,-7.3314,-7.3365,-7.318,-7.3012,-7.2665,-7.2615,-7.2941,-7.3117,-7.2765,-7.2791,-7.2941,-7.3293,-7.3318,-7.3795,-7.4548,-7.4724,-7.4849,-7.5402,-7.5829,-7.5979,-7.6055,-7.5956,-7.5956,-7.4912,-7.3885,-7.2474,-7.0583,-6.8085,-6.5327,-6.2472,-6.0732,-6.0089,-6.0234,-6.0697,-6.0756,-6.0547,-6.0547,-6.0508,-6.043,-6.0371,-6.0664,-6.082,-6.0683,-6.084,-6.1328,-6.1699,-6.1914,-6.209,-6.2187,-6.2305,-6.2539,-6.2793,-6.3047,-6.3301,-6.3828,-6.4355,-6.4609,-6.4863,-6.5,-6.5098,-6.5039,-6.4922,-6.4687,-6.4433,-6.4394,-6.4707,-6.4844,-6.4961,-6.5078,-6.5586,-6.5723,-6.5312,-6.5098,-6.5019,-6.4765,-6.457,-6.4531,-6.4512,-6.4492,-6.4453,-6.4355,-6.4316,-6.4316,-6.4316,-6.4316,-6.4297,-6.4277,-6.4258,-6.416,-6.418,-6.3965,-6.3789,-7.8789,-7.8789,-7.8789,-7.8968,-7.9297,-7.9656,-7.9956,-8.0285,-8.0644,-8.0375,-7.9776,-7.9456,-7.8313,-7.6343,-7.5616,-7.3824,-7.174,-7.1526,-7.117,-7.151,-7.2711,-7.354,-7.4165,-7.4754,-7.453,-7.4346,-7.3291,-7.274,-7.2841,-7.2916,-7.2916,-7.2841,-7.2941,-7.3293,-7.3644,-7.3845,-7.4372,-7.5151,-7.5251,-7.5377,-7.5527,-7.5879,-7.6055,-7.6055,-7.6055,-7.6055,-7.5857,-7.5012,-7.4187,-7.2719,-7.0426,-6.7771,-6.5237,-6.3857,-6.2618,-6.1973,-6.1687,-6.1544,-6.1145,-6.0879,-6.0918,-6.0781,-6.0625,-6.0683,-6.0976,-6.0898,-6.1074,-6.1543,-6.1953,-6.2207,-6.2344,-6.2441,-6.2637,-6.2851,-6.3223,-6.3535,-6.4062,-6.4648,-6.4961,-6.5137,-6.5234,-6.5156,-6.5195,-6.5019,-6.4863,-6.4648,-6.4414,-6.4609,-6.4902,-6.5254,-6.5371,-6.5547,-6.6035,-6.6015,-6.5547,-6.541,-6.541,-6.5117,-6.4707,-6.459,-6.4512,-6.459,-6.459,-6.4414,-6.4316,-6.4316,-6.4316,-6.4316,-6.4316,-6.4297,-6.4297,-6.4277,-6.4316,-6.4316,-6.4121,-7.8789,-7.8789,-7.8789,-7.9178,-7.9806,-7.9926,-8.0345,-8.0883,-8.1033,-8.1093,-8.1063,-8.1093,-8.007,-7.8804,-7.7725,-7.5545,-7.401,-7.3532,-7.2746,-7.2339,-7.3867,-7.4703,-7.5433,-7.5995,-7.5656,-7.4748,-7.3501,-7.308,-7.2966,-7.3142,-7.3293,-7.3092,-7.3343,-7.3745,-7.392,-7.4272,-7.4875,-7.5301,-7.5502,-7.5653,-7.5879,-7.6055,-7.6055,-7.6055,-7.6055,-7.6055,-7.6055,-7.5956,-7.5435,-7.4304,-7.248,-6.985,-6.7811,-6.6277,-6.4602,-6.3598,-6.2768,-6.2214,-6.1515,-6.1211,-6.1015,-6.0801,-6.0625,-6.0762,-6.1113,-6.1348,-6.1523,-6.1777,-6.2187,-6.2441,-6.2578,-6.2812,-6.3027,-6.332,-6.3711,-6.4121,-6.4765,-6.5332,-6.5469,-6.5605,-6.5566,-6.5449,-6.5312,-6.5137,-6.4883,-6.4648,-6.4648,-6.4883,-6.5195,-6.5605,-6.5879,-6.6035,-6.6348,-6.6152,-6.5781,-6.5742,-6.5781,-6.5215,-6.4805,-6.4629,-6.4531,-6.4648,-6.4629,-6.4414,-6.4336,-6.4414,-6.4355,-6.4316,-6.4316,-6.4316,-6.4316,-6.4316,-6.4316,-6.4316,-6.4316,-7.8789,-7.8789,-7.8789,-7.9208,-7.9836,-8.0405,-8.0973,-8.1631,-8.214,-8.238,-8.229,-8.2244,-8.1366,-7.9531,-7.9163,-7.7629,-7.5818,-7.5391,-7.4209,-7.3418,-7.518,-7.5904,-7.6681,-7.7503,-7.6619,-7.538,-7.4149,-7.3559,-7.3293,-7.3694,-7.4046,-7.4021,-7.4096,-7.4448,-7.4875,-7.5151,-7.5301,-7.5653,-7.5804,-7.5929,-7.5954,-7.6055,-7.6055,-7.6055,-7.6055,-7.6055,-7.6055,-7.6055,-7.6232,-7.5681,-7.4345,-7.2126,-7.0376,-6.8663,-6.6797,-6.5021,-6.4182,-6.3018,-6.2249,-6.1658,-6.1289,-6.1348,-6.1289,-6.1406,-6.1719,-6.1953,-6.209,-6.2168,-6.25,-6.2715,-6.289,-6.3301,-6.3594,-6.4004,-6.4414,-6.4844,-6.5371,-6.5625,-6.5781,-6.5898,-6.5976,-6.5898,-6.582,-6.5566,-6.5234,-6.5039,-6.4922,-6.5195,-6.5703,-6.6055,-6.6367,-6.6504,-6.664,-6.6465,-6.6191,-6.6113,-6.6015,-6.539,-6.4883,-6.4687,-6.4629,-6.4765,-6.4687,-6.4531,-6.4551,-6.4648,-6.4551,-6.4316,-6.4316,-6.4316,-6.4316,-6.4316,-6.4336,-6.4375,-6.4453]},{"header":{"parameterUnit":"m.s-1","parameterCategory":1,"la1":31.0,"la2":29.5877,"lo1":-88.7671,"lo2":-86.6584,"dy":0.0162,"dx":0.0185,"nx":115,"ny":88,"refTime":"2024-03-24T00:00:00:Z","depth":0,"parameterNumber":3,"parameterNumberName":"V-component_of_WINDS"},"data":[0.0,0.0,0.0,0.0,0.0,0.0,0.0,0.0,0.0,0.0,0.0,0.0,0.0,0.0,0.0,0.0,0.0,0.0,0.0,0.0,0.0,0.0,0.0,0.0,0.0,0.0,0.0,0.0,0.0,0.0,0.0,0.0,0.0,0.0,0.0,0.0,0.0,0.0,0.0,0.0,0.0,0.0,0.0,0.0,0.0,0.0,0.0,0.0,0.0,0.0,0.0,0.0,0.0,0.0,0.0,0.0,0.0,0.0,0.0,0.0,0.0,0.0,0.0,0.0,0.0,0.0,0.0,0.0,0.0,0.0,0.0,0.0,0.0,0.0,0.0,0.0,0.0,0.0,0.0,0.0,0.0,0.0,0.0,0.0,0.0,0.0,0.0,0.0,0.0,0.0,0.0,0.0,0.0,0.0,0.0,0.0,0.0,0.0,0.0,0.0,0.0,0.0,0.0,0.0,0.0,0.0,0.0,0.0,0.0,0.0,0.0,0.0,0.0,0.0,0.0,0.0,0.0,0.0,0.0,0.0,0.0,0.0,0.0,0.0,0.0,0.0,0.0,0.0,0.0,0.0,0.0,0.0,0.0,0.0,0.0,0.0,0.0,0.0,0.0,0.0,0.0,0.0,0.0,0.0,0.0,0.0,0.0,0.0,0.0,0.0,0.0,0.0,0.0,0.0,0.0,0.0,0.0,0.0,0.0,0.0,0.0,0.0,0.0,0.0,0.0,0.0,0.0,0.0,0.0,0.0,0.0,0.0,0.0,0.0,0.0,0.0,0.0,0.0,0.0,0.0,0.0,0.0,0.0,0.0,0.0,0.0,0.0,0.0,0.0,0.0,0.0,0.0,0.0,0.0,0.0,0.0,0.0,0.0,0.0,0.0,0.0,0.0,0.0,0.0,0.0,0.0,0.0,0.0,0.0,0.0,0.0,0.0,0.0,0.0,0.0,0.0,0.0,0.0,0.0,0.0,0.0,0.0,0.0,0.0,0.0,0.0,0.0,0.0,0.0,0.0,0.0,0.0,0.0,0.0,0.0,0.0,0.0,0.0,0.0,0.0,0.0,0.0,0.0,0.0,0.0,0.0,0.0,0.0,0.0,0.0,0.0,0.0,0.0,0.0,0.0,0.0,0.0,0.0,0.0,0.0,0.0,0.0,0.0,0.0,0.0,0.0,0.0,0.0,0.0,0.0,0.0,0.0,0.0,0.0,0.0,0.0,0.0,0.0,0.0,0.0,0.0,0.0,0.0,0.0,0.0,0.0,0.0,0.0,0.0,0.0,0.0,0.0,0.0,0.0,0.0,0.0,0.0,0.0,0.0,0.0,0.0,0.0,0.0,0.0,0.0,0.0,0.0,0.0,0.0,0.0,0.0,0.0,0.0,0.0,0.0,0.0,0.0,0.0,0.0,0.0,0.0,0.0,0.0,0.0,0.0,0.0,0.0,0.0,0.0,0.0,0.0,0.0,0.0,0.0,0.0,0.0,0.0,0.0,0.0,0.0,0.0,0.0,0.0,0.0,0.0,0.0,0.0,0.0,0.0,0.0,0.0,0.0,0.0,0.0,0.0,0.0,0.0,0.0,0.0,0.0,0.0,0.0,0.0,0.0,0.0,0.0,0.0,0.0,0.0,0.0,0.0,0.0,0.0,0.0,0.0,0.0,0.0,0.0,0.0,0.0,0.0,0.0,0.0,0.0,0.0,0.0,0.0,0.0,0.0,0.0,0.0,0.0,0.0,0.0,0.0,0.0,0.0,0.0,0.0,0.0,0.0,0.0,0.0,0.0,0.0,0.0,0.0,0.0,0.0,0.0,0.0,0.0,0.0,0.0,0.0,0.0,0.0,0.0,0.0,0.0,0.0,0.0,0.0,0.0,0.0,0.0,0.0,0.0,0.0,0.0,0.0,0.0,0.0,0.0,0.0,0.0,0.0,0.0,0.0,0.0,0.0,0.0,0.0,0.0,0.0,0.0,0.0,0.0,0.0,0.0,0.0,0.0,0.0,0.0,0.0,0.0,0.0,0.0,0.0,0.0,0.0,0.0,0.0,0.0,0.0,0.0,0.0,0.0,0.0,0.0,0.0,0.0,0.0,0.0,0.0,0.0,0.0,0.0,0.0,0.0,0.0,0.0,0.0,0.0,0.0,0.0,0.0,0.0,0.0,0.0,0.0,0.0,0.0,0.0,0.0,0.0,0.0,0.0,0.0,0.0,0.0,0.0,0.0,0.0,0.0,0.0,0.0,0.0,0.0,0.0,0.0,0.0,0.0,0.0,0.0,0.0,0.0,0.0,0.0,0.0,0.0,0.0,0.0,0.0,0.0,0.0,0.0,0.0,0.0,0.0,0.0,0.0,0.0,0.0,0.0,0.0,0.0,0.0,0.0,0.0,0.0,0.0,0.0,0.0,0.0,0.0,0.0,0.0,0.0,0.0,0.0,0.0,0.0,0.0,0.0,0.0,0.0,0.0,0.0,0.0,0.0,0.0,0.0,0.0,0.0,0.0,0.0,0.0,0.0,0.0,0.0,0.0,0.0,0.0,0.0,0.0,0.0,0.0,0.0,0.0,0.0,0.0,0.0,0.0,0.0,0.0,0.0,0.0,0.0,0.0,0.0,0.0,0.0,0.0,0.0,0.0,0.0,0.0,0.0,0.0,0.0,0.0,0.0,0.0,0.0,0.0,0.0,0.0,0.0,0.0,0.0,0.0,0.0,0.0,0.0,0.0,0.0,0.0,0.0,0.0,0.0,0.0,0.0,0.0,0.0,0.0,0.0,0.0,0.0,0.0,0.0,0.0,0.0,0.0,0.0,0.0,0.0,0.0,0.0,0.0,0.0,0.0,0.0,0.0,0.0,0.0,0.0,0.0,0.0,0.0,0.0,0.0,0.0,0.0,0.0,0.0,0.0,0.0,0.0,0.0,0.0,0.0,0.0,0.0,0.0,0.0,0.0,0.0,0.0,0.0,0.0,0.0,0.0,0.0,0.0,0.0,0.0,0.0,0.0,0.0,0.0,0.0,0.0,0.0,0.0,0.0,0.0,0.0,0.0,0.0,0.0,0.0,0.0,0.0,0.0,0.0,0.0,0.0,0.0,0.0,0.0,0.0,0.0,0.0,0.0,0.0,0.0,0.0,0.0,0.0,0.0,0.0,0.0,0.0,0.0,0.0,0.0,0.0,0.0,0.0,0.0,0.0,0.0,0.0,0.0,0.0,0.0,0.0,0.0,0.0,0.0,0.0,0.0,0.0,0.0,0.0,0.0,0.0,0.0,0.0,0.0,0.0,0.0,0.0,0.0,0.0,0.0,0.0,0.0,0.0,0.0,0.0,0.0,0.0,0.0,0.0,0.0,0.0,0.0,0.0,0.0,0.0,0.0,0.0,0.0,0.0,0.0,0.0,0.0,0.0,0.0,0.0,0.0,0.0,0.0,0.0,0.0,0.0,0.0,0.0,0.0,0.0,0.0,0.0,0.0,0.0,0.0,0.0,0.0,0.0,0.0,0.0,0.0,0.0,0.0,0.0,0.0,0.0,0.0,0.0,0.0,0.0,0.0,0.0,0.0,0.0,0.0,0.0,0.0,0.0,0.0,0.0,0.0,0.0,0.0,0.0,0.0,0.0,0.0,0.0,0.0,0.0,0.0,0.0,0.0,0.0,0.0,0.0,0.0,0.0,0.0,0.0,0.0,0.0,0.0,0.0,0.0,0.0,0.0,0.0,0.0,0.0,0.0,0.0,0.0,0.0,0.0,0.0,0.0,0.0,0.0,0.0,0.0,0.0,0.0,0.0,0.0,0.0,0.0,0.0,0.0,0.0,0.0,0.0,0.0,0.0,0.0,0.0,0.0,0.0,0.0,0.0,0.0,0.0,0.0,0.0,0.0,0.0,0.0,0.0,0.0,0.0,0.0,0.0,0.0,0.0,0.0,0.0,0.0,0.0,0.0,0.0,0.0,0.0,0.0,0.0,0.0,0.0,0.0,0.0,0.0,0.0,0.0,0.0,0.0,0.0,0.0,0.0,0.0,0.0,0.0,0.0,0.0,0.0,0.0,0.0,0.0,0.0,0.0,0.0,0.0,0.0,0.0,0.0,0.0,0.0,0.0,0.0,0.0,0.0,0.0,0.0,0.0,0.0,0.0,0.0,0.0,0.0,0.0,0.0,0.0,0.0,0.0,0.0,0.0,0.0,0.0,0.0,0.0,0.0,0.0,0.0,0.0,0.0,0.0,0.0,0.0,0.0,0.0,0.0,0.0,0.0,0.0,0.0,0.0,0.0,5.7771,0.0,0.0,0.0,0.0,0.0,0.0,0.0,0.0,0.0,0.0,0.0,0.0,0.0,0.0,0.0,0.0,0.0,0.0,0.0,0.0,0.0,0.0,0.0,0.0,0.0,0.0,0.0,0.0,0.0,0.0,0.0,0.0,0.0,0.0,0.0,0.0,0.0,0.0,0.0,0.0,0.0,0.0,0.0,0.0,0.0,0.0,0.0,0.0,0.0,0.0,0.0,0.0,0.0,0.0,0.0,0.0,0.0,0.0,0.0,0.0,0.0,0.0,0.0,0.0,0.0,0.0,0.0,0.0,0.0,0.0,0.0,0.0,0.0,0.0,0.0,0.0,0.0,0.0,0.0,0.0,0.0,0.0,0.0,0.0,0.0,0.0,0.0,0.0,0.0,0.0,0.0,0.0,0.0,0.0,0.0,0.0,0.0,0.0,0.0,0.0,0.0,0.0,0.0,0.0,0.0,0.0,0.0,0.0,0.0,0.0,5.9306,6.0094,5.8256,5.7741,5.8861,0.0,0.0,0.0,0.0,0.0,0.0,0.0,0.0,0.0,0.0,0.0,0.0,0.0,0.0,0.0,0.0,0.0,0.0,0.0,0.0,0.0,0.0,0.0,0.0,0.0,0.0,0.0,0.0,0.0,0.0,0.0,0.0,0.0,0.0,0.0,0.0,0.0,0.0,0.0,0.0,0.0,0.0,0.0,0.0,0.0,0.0,0.0,0.0,0.0,0.0,0.0,0.0,0.0,0.0,0.0,0.0,0.0,0.0,0.0,0.0,0.0,0.0,0.0,0.0,0.0,0.0,0.0,0.0,0.0,0.0,0.0,0.0,0.0,0.0,0.0,0.0,0.0,0.0,0.0,0.0,0.0,0.0,0.0,0.0,0.0,0.0,0.0,0.0,0.0,0.0,0.0,0.0,0.0,0.0,0.0,0.0,0.0,0.0,0.0,0.0,0.0,0.0,0.0,0.0,0.0,0.0,0.0,0.0,0.0,0.0,0.0,0.0,5.8973,5.8356,5.9643,0.0,0.0,0.0,0.0,0.0,0.0,0.0,0.0,0.0,0.0,0.0,0.0,0.0,0.0,0.0,0.0,0.0,0.0,0.0,0.0,0.0,0.0,0.0,0.0,0.0,0.0,0.0,0.0,0.0,0.0,0.0,0.0,0.0,0.0,0.0,0.0,0.0,0.0,0.0,0.0,0.0,0.0,0.0,0.0,0.0,0.0,0.0,0.0,0.0,0.0,0.0,0.0,0.0,0.0,0.0,0.0,0.0,0.0,0.0,0.0,0.0,0.0,0.0,0.0,0.0,0.0,0.0,0.0,0.0,0.0,0.0,0.0,0.0,0.0,0.0,0.0,0.0,0.0,0.0,0.0,0.0,0.0,0.0,0.0,0.0,0.0,0.0,0.0,0.0,0.0,0.0,0.0,0.0,0.0,0.0,0.0,0.0,0.0,0.0,0.0,0.0,0.0,0.0,0.0,0.0,0.0,0.0,0.0,0.0,0.0,6.0849,6.2616,6.1499,0.0,6.0152,0.0,0.0,0.0,0.0,0.0,0.0,0.0,0.0,0.0,0.0,0.0,0.0,0.0,0.0,0.0,0.0,0.0,0.0,0.0,0.0,0.0,0.0,0.0,0.0,0.0,0.0,0.0,0.0,0.0,0.0,0.0,0.0,0.0,0.0,0.0,0.0,0.0,0.0,0.0,0.0,0.0,0.0,0.0,0.0,0.0,0.0,0.0,0.0,0.0,0.0,0.0,0.0,0.0,0.0,0.0,0.0,0.0,0.0,0.0,0.0,0.0,0.0,0.0,0.0,0.0,0.0,0.0,0.0,0.0,0.0,0.0,0.0,0.0,0.0,0.0,0.0,0.0,0.0,0.0,0.0,0.0,0.0,0.0,0.0,0.0,0.0,0.0,0.0,0.0,0.0,0.0,0.0,0.0,0.0,0.0,0.0,0.0,0.0,0.0,0.0,0.0,0.0,0.0,0.0,0.0,0.0,0.0,0.0,0.0,0.0,6.1816,6.2581,6.2154,6.1366,0.0,0.0,0.0,0.0,0.0,0.0,0.0,0.0,0.0,0.0,0.0,0.0,0.0,0.0,0.0,0.0,0.0,0.0,0.0,0.0,0.0,0.0,0.0,0.0,0.0,0.0,0.0,0.0,0.0,0.0,0.0,0.0,0.0,0.0,0.0,0.0,0.0,0.0,0.0,0.0,0.0,0.0,0.0,0.0,0.0,0.0,0.0,0.0,0.0,0.0,0.0,0.0,0.0,0.0,0.0,0.0,0.0,0.0,0.0,0.0,0.0,0.0,0.0,0.0,0.0,0.0,0.0,0.0,0.0,0.0,0.0,0.0,0.0,0.0,0.0,0.0,0.0,0.0,0.0,0.0,0.0,0.0,0.0,0.0,0.0,0.0,0.0,0.0,0.0,0.0,0.0,0.0,0.0,0.0,0.0,0.0,0.0,0.0,0.0,0.0,0.0,0.0,0.0,0.0,0.0,0.0,0.0,0.0,0.0,0.0,6.167,6.2178,6.2381,6.2498,6.1685,5.9877,0.0,0.0,0.0,0.0,0.0,0.0,0.0,0.0,0.0,0.0,0.0,0.0,0.0,0.0,0.0,0.0,0.0,0.0,0.0,0.0,0.0,0.0,0.0,0.0,0.0,0.0,0.0,0.0,0.0,0.0,0.0,0.0,0.0,0.0,0.0,0.0,0.0,0.0,0.0,0.0,0.0,0.0,0.0,0.0,0.0,0.0,0.0,0.0,0.0,0.0,0.0,0.0,0.0,0.0,0.0,0.0,0.0,0.0,0.0,0.0,0.0,0.0,0.0,0.0,0.0,0.0,0.0,0.0,0.0,0.0,0.0,0.0,0.0,0.0,0.0,0.0,0.0,0.0,0.0,0.0,0.0,0.0,0.0,0.0,0.0,0.0,0.0,0.0,0.0,0.0,0.0,0.0,0.0,0.0,0.0,0.0,0.0,0.0,0.0,0.0,0.0,0.0,0.0,0.0,0.0,0.0,0.0,0.0,6.5053,6.2719,6.1704,6.2448,6.2697,6.1681,0.0,0.0,0.0,0.0,0.0,0.0,0.0,0.0,0.0,0.0,0.0,0.0,0.0,0.0,0.0,0.0,0.0,0.0,0.0,0.0,0.0,0.0,0.0,0.0,0.0,0.0,0.0,0.0,0.0,0.0,0.0,0.0,0.0,0.0,0.0,0.0,0.0,0.0,0.0,0.0,0.0,0.0,0.0,0.0,0.0,0.0,0.0,0.0,0.0,0.0,0.0,0.0,0.0,0.0,0.0,0.0,0.0,0.0,0.0,0.0,0.0,0.0,0.0,0.0,0.0,0.0,0.0,0.0,0.0,0.0,0.0,0.0,0.0,0.0,0.0,0.0,0.0,0.0,0.0,0.0,0.0,0.0,0.0,0.0,0.0,0.0,0.0,0.0,0.0,0.0,0.0,0.0,0.0,0.0,0.0,0.0,0.0,0.0,0.0,0.0,0.0,0.0,0.0,0.0,0.0,0.0,0.0,0.0,0.0,6.0857,6.1576,6.3057,6.5019,6.3041,6.1414,0.0,0.0,0.0,0.0,0.0,0.0,0.0,0.0,0.0,0.0,0.0,0.0,0.0,0.0,0.0,0.0,0.0,0.0,0.0,0.0,0.0,0.0,0.0,0.0,0.0,0.0,0.0,0.0,0.0,0.0,0.0,0.0,0.0,0.0,0.0,0.0,0.0,0.0,0.0,0.0,0.0,0.0,0.0,0.0,0.0,0.0,0.0,0.0,0.0,0.0,0.0,0.0,0.0,0.0,0.0,0.0,0.0,0.0,0.0,0.0,0.0,0.0,0.0,0.0,0.0,0.0,0.0,0.0,0.0,0.0,0.0,0.0,0.0,0.0,0.0,0.0,0.0,0.0,0.0,0.0,0.0,0.0,0.0,0.0,0.0,0.0,0.0,0.0,0.0,0.0,0.0,0.0,0.0,0.0,0.0,0.0,0.0,0.0,0.0,0.0,0.0,0.0,0.0,0.0,0.0,0.0,0.0,0.0,0.0,6.0281,0.0,6.3835,6.5189,6.2753,6.0858,0.0,0.0,0.0,0.0,0.0,0.0,0.0,0.0,0.0,0.0,0.0,0.0,0.0,0.0,0.0,0.0,0.0,0.0,0.0,0.0,0.0,0.0,0.0,0.0,0.0,0.0,0.0,0.0,0.0,0.0,0.0,0.0,0.0,0.0,0.0,0.0,0.0,0.0,0.0,0.0,0.0,0.0,0.0,0.0,0.0,0.0,0.0,0.0,0.0,0.0,0.0,0.0,0.0,0.0,0.0,0.0,0.0,0.0,0.0,0.0,0.0,0.0,0.0,0.0,0.0,0.0,0.0,0.0,0.0,0.0,0.0,0.0,0.0,0.0,0.0,0.0,0.0,0.0,0.0,0.0,0.0,0.0,0.0,0.0,0.0,0.0,0.0,0.0,0.0,0.0,0.0,0.0,0.0,0.0,0.0,0.0,0.0,0.0,0.0,0.0,0.0,0.0,0.0,0.0,0.0,0.0,0.0,0.0,6.1756,6.437,6.4512,6.4005,6.255,6.1772,5.9911,0.0,0.0,0.0,0.0,0.0,0.0,0.0,0.0,0.0,0.0,0.0,0.0,0.0,0.0,0.0,0.0,0.0,0.0,0.0,0.0,0.0,0.0,0.0,0.0,0.0,0.0,0.0,0.0,0.0,0.0,0.0,0.0,0.0,0.0,0.0,0.0,0.0,0.0,0.0,0.0,0.0,0.0,0.0,0.0,0.0,0.0,0.0,0.0,0.0,0.0,0.0,0.0,0.0,0.0,0.0,0.0,0.0,0.0,0.0,0.0,0.0,0.0,0.0,0.0,0.0,0.0,0.0,0.0,0.0,0.0,0.0,0.0,0.0,0.0,0.0,0.0,0.0,0.0,0.0,0.0,0.0,0.0,0.0,0.0,0.0,0.0,0.0,0.0,0.0,0.0,0.0,0.0,0.0,0.0,0.0,0.0,0.0,0.0,0.0,0.0,0.0,0.0,0.0,0.0,0.0,0.0,0.0,0.0,0.0,6.458,6.4613,6.5628,6.7489,6.2516,6.052,0.0,0.0,0.0,0.0,0.0,0.0,0.0,0.0,0.0,0.0,0.0,0.0,0.0,0.0,0.0,0.0,0.0,0.0,0.0,0.0,0.0,0.0,0.0,0.0,0.0,0.0,0.0,0.0,0.0,0.0,0.0,0.0,0.0,0.0,0.0,0.0,0.0,0.0,0.0,0.0,0.0,0.0,0.0,0.0,0.0,0.0,0.0,0.0,0.0,0.0,0.0,0.0,0.0,0.0,0.0,0.0,0.0,0.0,0.0,0.0,0.0,0.0,0.0,0.0,0.0,0.0,0.0,0.0,0.0,0.0,0.0,0.0,0.0,0.0,0.0,0.0,0.0,0.0,0.0,0.0,0.0,0.0,0.0,0.0,0.0,0.0,0.0,0.0,0.0,0.0,0.0,0.0,0.0,0.0,0.0,0.0,0.0,0.0,0.0,0.0,0.0,0.0,0.0,0.0,0.0,0.0,0.0,0.0,0.0,6.7929,6.7387,6.7658,6.891,6.4343,6.2212,6.2821,0.0,0.0,0.0,0.0,0.0,0.0,0.0,0.0,0.0,0.0,0.0,0.0,0.0,0.0,0.0,0.0,0.0,0.0,0.0,0.0,0.0,0.0,0.0,0.0,0.0,0.0,0.0,0.0,0.0,0.0,0.0,0.0,0.0,0.0,0.0,0.0,0.0,0.0,0.0,0.0,0.0,0.0,0.0,0.0,0.0,0.0,0.0,0.0,0.0,0.0,0.0,0.0,0.0,0.0,0.0,0.0,0.0,0.0,0.0,0.0,0.0,0.0,0.0,0.0,0.0,0.0,0.0,0.0,0.0,0.0,0.0,0.0,0.0,0.0,0.0,0.0,0.0,0.0,0.0,0.0,0.0,0.0,0.0,0.0,0.0,0.0,0.0,0.0,0.0,0.0,0.0,0.0,0.0,0.0,0.0,0.0,0.0,0.0,0.0,0.0,0.0,0.0,0.0,0.0,0.0,0.0,0.0,0.0,7.3747,7.2665,7.0804,6.7929,6.7218,6.4952,0.0,0.0,0.0,0.0,0.0,0.0,0.0,0.0,0.0,0.0,0.0,0.0,0.0,0.0,0.0,0.0,0.0,0.0,0.0,0.0,0.0,0.0,0.0,0.0,0.0,0.0,0.0,0.0,0.0,0.0,0.0,0.0,0.0,0.0,0.0,0.0,0.0,0.0,0.0,0.0,0.0,0.0,0.0,0.0,0.0,0.0,0.0,0.0,0.0,0.0,0.0,0.0,0.0,0.0,0.0,0.0,0.0,0.0,0.0,0.0,0.0,0.0,0.0,0.0,0.0,0.0,0.0,0.0,0.0,0.0,0.0,0.0,0.0,0.0,0.0,0.0,0.0,0.0,0.0,0.0,0.0,0.0,0.0,0.0,0.0,0.0,0.0,0.0,0.0,0.0,0.0,0.0,0.0,0.0,0.0,0.0,0.0,0.0,0.0,0.0,0.0,0.0,0.0,0.0,0.0,0.0,0.0,0.0,0.0,7.686,8.0209,8.0581,7.7502,7.165,6.8199,0.0,0.0,0.0,0.0,0.0,0.0,0.0,0.0,0.0,0.0,0.0,0.0,0.0,0.0,0.0,0.0,0.0,0.0,0.0,0.0,0.0,0.0,0.0,0.0,0.0,0.0,0.0,0.0,0.0,0.0,0.0,0.0,0.0,0.0,0.0,0.0,0.0,0.0,0.0,0.0,0.0,0.0,0.0,0.0,0.0,0.0,0.0,0.0,0.0,0.0,0.0,0.0,0.0,0.0,0.0,0.0,0.0,0.0,0.0,0.0,0.0,0.0,0.0,0.0,0.0,0.0,0.0,0.0,0.0,0.0,0.0,0.0,0.0,0.0,0.0,0.0,0.0,0.0,0.0,0.0,0.0,0.0,0.0,0.0,0.0,0.0,0.0,0.0,0.0,0.0,0.0,0.0,0.0,0.0,0.0,0.0,0.0,0.0,0.0,0.0,0.0,0.0,0.0,0.0,0.0,0.0,0.0,0.0,7.8653,8.0784,8.5283,8.6974,8.552,7.8822,7.3409,0.0,0.0,0.0,0.0,0.0,0.0,0.0,0.0,0.0,0.0,0.0,0.0,0.0,0.0,0.0,0.0,0.0,0.0,0.0,0.0,0.0,0.0,0.0,0.0,0.0,0.0,0.0,0.0,0.0,0.0,0.0,0.0,0.0,0.0,0.0,0.0,0.0,0.0,0.0,0.0,0.0,0.0,0.0,0.0,0.0,0.0,0.0,0.0,0.0,0.0,0.0,0.0,0.0,0.0,0.0,0.0,0.0,0.0,0.0,0.0,0.0,0.0,0.0,0.0,0.0,0.0,0.0,0.0,0.0,0.0,0.0,0.0,0.0,0.0,0.0,0.0,0.0,0.0,0.0,0.0,0.0,0.0,0.0,0.0,0.0,0.0,0.0,0.0,0.0,0.0,0.0,0.0,0.0,0.0,0.0,0.0,0.0,0.0,0.0,0.0,0.0,0.0,0.0,0.0,0.0,0.0,0.0,0.0,8.19,8.4708,8.8564,9.0831,9.1237,8.6196,7.916,0.0,0.0,0.0,0.0,0.0,0.0,0.0,0.0,0.0,0.0,0.0,0.0,0.0,0.0,0.0,0.0,0.0,0.0,0.0,0.0,0.0,0.0,0.0,0.0,0.0,0.0,0.0,0.0,0.0,0.0,0.0,0.0,0.0,0.0,0.0,0.0,0.0,0.0,0.0,0.0,0.0,0.0,0.0,0.0,0.0,0.0,0.0,0.0,0.0,0.0,0.0,0.0,0.0,0.0,0.0,0.0,0.0,0.0,0.0,0.0,0.0,0.0,0.0,0.0,0.0,0.0,0.0,0.0,0.0,0.0,0.0,0.0,0.0,0.0,0.0,0.0,0.0,0.0,0.0,0.0,0.0,0.0,0.0,0.0,0.0,0.0,0.0,0.0,0.0,0.0,0.0,0.0,0.0,0.0,0.0,0.0,0.0,0.0,0.0,0.0,0.0,0.0,0.0,0.0,0.0,0.0,0.0,0.0,8.3693,8.5554,9.0324,9.2624,9.2184,8.5993,8.031,0.0,0.0,0.0,0.0,0.0,0.0,0.0,0.0,0.0,0.0,0.0,0.0,0.0,0.0,0.0,0.0,0.0,0.0,0.0,0.0,0.0,0.0,0.0,0.0,0.0,0.0,0.0,0.0,0.0,0.0,0.0,0.0,0.0,0.0,0.0,0.0,0.0,0.0,0.0,0.0,0.0,0.0,0.0,0.0,0.0,0.0,0.0,0.0,6.4934,0.0,0.0,0.0,0.0,0.0,0.0,0.0,0.0,0.0,0.0,0.0,0.0,0.0,0.0,0.0,0.0,0.0,0.0,0.0,0.0,0.0,0.0,0.0,0.0,0.0,0.0,0.0,0.0,0.0,0.0,0.0,0.0,0.0,0.0,0.0,0.0,0.0,0.0,0.0,0.0,0.0,0.0,0.0,0.0,0.0,0.0,0.0,0.0,0.0,0.0,0.0,0.0,0.0,0.0,0.0,0.0,0.0,0.0,0.0,8.5452,8.8361,9.1778,9.3402,9.2793,8.7482,8.2475,0.0,0.0,0.0,0.0,0.0,0.0,0.0,0.0,0.0,0.0,0.0,0.0,0.0,0.0,0.0,0.0,0.0,0.0,0.0,0.0,0.0,0.0,0.0,0.0,0.0,0.0,0.0,0.0,0.0,0.0,0.0,0.0,0.0,0.0,0.0,0.0,0.0,0.0,0.0,0.0,0.0,0.0,0.0,0.0,0.0,0.0,0.0,0.0,0.0,0.0,0.0,0.0,0.0,0.0,0.0,0.0,0.0,0.0,0.0,0.0,0.0,0.0,0.0,0.0,0.0,0.0,0.0,0.0,0.0,0.0,0.0,0.0,0.0,0.0,0.0,0.0,0.0,0.0,0.0,0.0,0.0,0.0,0.0,0.0,0.0,0.0,0.0,0.0,0.0,0.0,0.0,0.0,0.0,0.0,0.0,0.0,0.0,0.0,0.0,0.0,0.0,0.0,0.0,0.0,0.0,0.0,0.0,8.1866,8.6738,9.1271,9.2861,9.3537,9.3334,8.9173,8.4573,7.9634,0.0,0.0,0.0,0.0,0.0,0.0,0.0,0.0,0.0,0.0,0.0,0.0,0.0,0.0,0.0,0.0,0.0,0.0,0.0,0.0,0.0,0.0,0.0,0.0,0.0,0.0,0.0,0.0,0.0,0.0,0.0,0.0,0.0,0.0,0.0,0.0,0.0,0.0,6.6638,6.8574,0.0,0.0,0.0,0.0,0.0,0.0,0.0,0.0,6.8697,0.0,0.0,0.0,0.0,0.0,0.0,0.0,0.0,0.0,0.0,0.0,0.0,0.0,0.0,0.0,0.0,0.0,0.0,0.0,0.0,0.0,0.0,0.0,0.0,0.0,0.0,0.0,0.0,0.0,0.0,0.0,0.0,0.0,0.0,0.0,0.0,0.0,0.0,0.0,0.0,0.0,0.0,0.0,0.0,0.0,0.0,0.0,0.0,0.0,0.0,0.0,0.0,0.0,0.0,0.0,0.0,8.2069,8.3186,8.6467,9.2083,9.3131,9.3267,9.2522,8.8903,8.5012,8.1021,0.0,0.0,0.0,0.0,0.0,0.0,0.0,0.0,0.0,0.0,0.0,0.0,0.0,0.0,0.0,0.0,0.0,0.0,0.0,0.0,0.0,0.0,0.0,0.0,0.0,0.0,0.0,0.0,0.0,0.0,0.0,0.0,0.0,0.0,0.0,0.0,0.0,0.0,0.0,7.8046,8.0001,0.0,0.0,0.0,0.0,0.0,0.0,0.0,0.0,6.8201,0.0,0.0,0.0,0.0,0.0,0.0,0.0,0.0,0.0,0.0,0.0,0.0,0.0,0.0,0.0,0.0,0.0,0.0,0.0,0.0,0.0,0.0,0.0,0.0,0.0,0.0,0.0,0.0,0.0,0.0,0.0,0.0,0.0,0.0,0.0,0.0,0.0,0.0,0.0,0.0,0.0,0.0,0.0,0.0,0.0,0.0,0.0,0.0,0.0,0.0,0.0,0.0,0.0,0.0,0.0,8.1426,8.4471,8.8192,9.2827,9.3402,9.303,9.1778,8.7482,8.3761,0.0,0.0,0.0,0.0,0.0,0.0,0.0,0.0,0.0,0.0,0.0,0.0,0.0,0.0,0.0,0.0,0.0,0.0,0.0,0.0,0.0,0.0,0.0,0.0,0.0,0.0,0.0,0.0,0.0,0.0,0.0,0.0,0.0,0.0,0.0,0.0,0.0,0.0,0.0,0.0,8.0972,8.275,8.3762,0.0,0.0,0.0,0.0,0.0,0.0,7.2188,7.05,0.0,0.0,0.0,0.0,0.0,0.0,0.0,0.0,0.0,0.0,0.0,0.0,0.0,0.0,0.0,0.0,0.0,0.0,0.0,0.0,0.0,0.0,0.0,0.0,0.0,0.0,0.0,0.0,0.0,0.0,0.0,0.0,0.0,0.0,0.0,0.0,0.0,0.0,0.0,0.0,0.0,0.0,0.0,0.0,0.0,0.0,0.0,0.0,0.0,0.0,0.0,0.0,0.0,0.0,0.0,8.031,8.5283,8.9681,9.3368,9.3571,9.2793,9.1068,8.6433,8.2712,0.0,0.0,0.0,0.0,0.0,0.0,0.0,0.0,0.0,0.0,0.0,0.0,0.0,0.0,0.0,0.0,0.0,0.0,0.0,0.0,0.0,0.0,0.0,0.0,0.0,0.0,0.0,0.0,0.0,0.0,0.0,0.0,0.0,0.0,0.0,0.0,0.0,0.0,0.0,0.0,0.0,8.5344,8.7184,8.3467,0.0,0.0,0.0,0.0,7.707,7.6729,0.0,0.0,0.0,0.0,0.0,0.0,0.0,0.0,0.0,0.0,0.0,0.0,0.0,0.0,0.0,0.0,0.0,0.0,0.0,0.0,0.0,0.0,0.0,0.0,0.0,0.0,0.0,0.0,0.0,0.0,0.0,0.0,0.0,0.0,0.0,0.0,0.0,0.0,0.0,0.0,0.0,0.0,0.0,0.0,0.0,0.0,0.0,0.0,0.0,0.0,0.0,0.0,0.0,0.0,0.0,0.0,8.0987,8.5046,8.9173,9.33,9.3571,9.2556,9.0391,8.7211,8.3524,0.0,0.0,0.0,0.0,0.0,0.0,0.0,0.0,0.0,0.0,0.0,0.0,0.0,0.0,0.0,0.0,0.0,0.0,0.0,0.0,0.0,0.0,0.0,0.0,0.0,0.0,0.0,0.0,0.0,0.0,0.0,0.0,0.0,0.0,0.0,0.0,0.0,0.0,0.0,0.0,0.0,9.2077,8.8951,8.8414,8.7324,0.0,0.0,8.2795,8.3903,8.6575,0.0,0.0,0.0,0.0,0.0,0.0,0.0,0.0,0.0,0.0,0.0,0.0,0.0,0.0,0.0,0.0,0.0,0.0,0.0,0.0,0.0,0.0,0.0,0.0,0.0,0.0,0.0,0.0,0.0,0.0,0.0,0.0,0.0,0.0,0.0,0.0,0.0,0.0,0.0,0.0,0.0,0.0,0.0,0.0,0.0,0.0,0.0,0.0,0.0,0.0,0.0,0.0,0.0,0.0,0.0,7.5845,8.1224,8.623,9.0324,9.3436,9.3165,9.2049,9.0222,8.5689,8.1731,0.0,0.0,0.0,0.0,0.0,0.0,0.0,0.0,0.0,0.0,0.0,0.0,0.0,0.0,0.0,0.0,0.0,0.0,0.0,0.0,0.0,0.0,0.0,0.0,0.0,0.0,0.0,0.0,0.0,0.0,0.0,0.0,0.0,0.0,0.0,0.0,0.0,0.0,0.0,0.0,0.0,0.0,9.2847,9.2222,0.0,0.0,0.0,8.7987,8.9611,0.0,0.0,0.0,0.0,0.0,0.0,0.0,0.0,0.0,0.0,0.0,0.0,0.0,0.0,0.0,0.0,0.0,0.0,0.0,0.0,0.0,0.0,0.0,0.0,0.0,0.0,0.0,0.0,0.0,0.0,0.0,0.0,0.0,0.0,0.0,0.0,0.0,0.0,0.0,0.0,0.0,0.0,0.0,0.0,0.0,0.0,0.0,0.0,0.0,0.0,0.0,0.0,0.0,0.0,0.0,0.0,0.0,8.1562,8.7448,9.1474,9.347,9.2996,9.1812,8.9918,8.4843,0.0,0.0,0.0,0.0,0.0,0.0,0.0,0.0,0.0,0.0,0.0,0.0,0.0,0.0,0.0,0.0,0.0,0.0,0.0,0.0,0.0,0.0,0.0,0.0,0.0,0.0,0.0,5.866,0.0,0.0,0.0,0.0,0.0,0.0,0.0,0.0,0.0,0.0,0.0,0.0,0.0,0.0,9.4362,9.5644,9.6061,9.6192,0.0,0.0,9.3638,9.493,9.5433,9.3088,0.0,0.0,0.0,0.0,0.0,0.0,0.0,0.0,0.0,0.0,0.0,0.0,0.0,0.0,0.0,0.0,0.0,0.0,0.0,0.0,0.0,0.0,0.0,0.0,0.0,0.0,0.0,0.0,0.0,0.0,0.0,0.0,0.0,0.0,0.0,0.0,0.0,0.0,0.0,0.0,0.0,0.0,0.0,0.0,0.0,0.0,0.0,0.0,0.0,0.0,0.0,0.0,0.0,0.0,7.7841,8.234,8.8192,9.1981,9.3503,9.3537,9.2116,8.9207,8.6061,8.2069,0.0,0.0,0.0,0.0,0.0,0.0,0.0,0.0,0.0,0.0,0.0,0.0,0.0,0.0,0.0,0.0,0.0,0.0,0.0,0.0,0.0,0.0,0.0,0.0,0.0,0.0,0.0,0.0,0.0,0.0,0.0,0.0,0.0,0.0,0.0,0.0,0.0,0.0,0.0,0.0,0.0,9.5005,9.5793,10.0149,10.3256,0.0,0.0,10.07,10.001,10.478,10.3637,8.9144,0.0,0.0,0.0,0.0,0.0,0.0,0.0,0.0,0.0,0.0,0.0,0.0,0.0,0.0,0.0,0.0,0.0,0.0,0.0,0.0,0.0,0.0,0.0,0.0,0.0,0.0,0.0,0.0,0.0,0.0,0.0,0.0,0.0,0.0,0.0,0.0,0.0,0.0,0.0,0.0,0.0,0.0,0.0,0.0,0.0,0.0,0.0,0.0,0.0,0.0,0.0,0.0,0.0,7.7908,8.2408,8.8294,9.2049,9.3503,9.3131,9.188,8.9816,8.6433,8.2205,0.0,0.0,0.0,0.0,0.0,0.0,0.0,0.0,0.0,0.0,0.0,0.0,0.0,0.0,0.0,0.0,0.0,0.0,0.0,0.0,0.0,0.0,0.0,0.0,0.0,0.0,0.0,0.0,6.299,6.3583,6.3728,0.0,0.0,0.0,0.0,0.0,0.0,0.0,0.0,0.0,0.0,9.883,10.1255,10.4204,0.0,0.0,10.5215,10.4306,10.5375,10.4701,10.1131,9.2304,8.8092,0.0,0.0,0.0,0.0,0.0,0.0,0.0,0.0,0.0,0.0,0.0,0.0,0.0,0.0,0.0,0.0,0.0,0.0,0.0,0.0,0.0,0.0,0.0,0.0,0.0,0.0,0.0,0.0,0.0,0.0,0.0,0.0,0.0,0.0,0.0,0.0,0.0,0.0,0.0,0.0,0.0,0.0,0.0,0.0,0.0,0.0,0.0,0.0,0.0,0.0,0.0,0.0,7.7908,8.2374,8.8057,9.1812,9.3537,9.2827,9.1711,9.0188,8.6569,8.2408,0.0,0.0,0.0,0.0,0.0,0.0,0.0,0.0,0.0,0.0,0.0,0.0,0.0,0.0,0.0,0.0,0.0,0.0,0.0,0.0,0.0,0.0,0.0,0.0,0.0,0.0,0.0,0.0,6.5142,6.5257,6.4544,0.0,0.0,0.0,0.0,0.0,0.0,0.0,0.0,0.0,0.0,10.1539,10.473,10.6907,10.8311,10.8627,10.6975,10.5978,10.7147,10.467,10.0506,9.4256,0.0,0.0,0.0,0.0,0.0,0.0,0.0,0.0,0.0,0.0,0.0,0.0,0.0,0.0,0.0,0.0,0.0,0.0,0.0,0.0,0.0,0.0,0.0,0.0,0.0,0.0,0.0,5.8084,0.0,0.0,5.9096,0.0,0.0,0.0,0.0,0.0,0.0,0.0,0.0,0.0,0.0,0.0,0.0,0.0,0.0,0.0,0.0,0.0,0.0,0.0,0.0,0.0,0.0,7.7908,8.2374,8.7583,9.1338,9.347,9.2827,9.1744,9.0222,8.6602,8.2881,7.9092,0.0,0.0,0.0,0.0,0.0,0.0,0.0,0.0,0.0,0.0,0.0,0.0,0.0,0.0,0.0,0.0,0.0,0.0,0.0,0.0,0.0,0.0,0.0,0.0,0.0,0.0,6.6609,6.5861,6.501,0.0,0.0,0.0,0.0,0.0,0.0,0.0,0.0,0.0,0.0,9.6914,10.2518,10.4906,10.782,10.947,10.8803,10.7328,10.5805,10.447,10.5906,10.4227,0.0,0.0,0.0,0.0,0.0,0.0,0.0,0.0,0.0,0.0,0.0,0.0,0.0,0.0,0.0,0.0,0.0,0.0,0.0,0.0,0.0,0.0,0.0,0.0,0.0,0.0,0.0,6.1386,6.17,0.0,0.0,0.0,0.0,0.0,0.0,0.0,0.0,0.0,0.0,0.0,7.4999,7.4999,0.0,0.0,0.0,0.0,0.0,0.0,0.0,0.0,0.0,0.0,0.0,0.0,7.7908,8.2408,8.755,9.1305,9.347,9.2827,9.1947,9.0932,8.782,8.3219,7.7029,0.0,0.0,0.0,0.0,0.0,0.0,0.0,0.0,0.0,0.0,0.0,0.0,0.0,0.0,0.0,0.0,0.0,0.0,0.0,0.0,0.0,0.0,0.0,0.0,0.0,6.7996,0.0,0.0,0.0,0.0,0.0,0.0,0.0,0.0,0.0,0.0,0.0,8.7736,9.3678,9.9674,10.4374,10.6662,10.8602,10.9716,0.0,0.0,0.0,0.0,0.0,0.0,0.0,0.0,0.0,0.0,0.0,0.0,0.0,0.0,9.9438,8.7912,8.4058,8.2663,8.292,0.0,0.0,0.0,0.0,0.0,0.0,0.0,0.0,0.0,0.0,0.0,0.0,0.0,0.0,6.442,0.0,6.4422,0.0,0.0,0.0,0.0,0.0,0.0,0.0,0.0,7.4931,7.7096,7.8754,7.8788,7.8551,0.0,7.6284,7.3308,0.0,0.0,0.0,0.0,0.0,0.0,0.0,0.0,7.8585,8.278,8.7685,9.1305,9.3436,9.2556,9.1778,9.1237,8.7922,8.3219,7.7096,7.458,7.176,0.0,0.0,0.0,0.0,0.0,0.0,0.0,0.0,0.0,0.0,0.0,0.0,0.0,0.0,0.0,0.0,0.0,0.0,0.0,0.0,0.0,0.0,0.0,7.0128,0.0,0.0,0.0,0.0,0.0,0.0,0.0,0.0,0.0,8.422,8.8346,9.3158,9.8273,10.2581,10.5857,10.7711,0.0,0.0,0.0,0.0,0.0,0.0,0.0,10.2426,10.2337,10.174,10.1059,10.0693,10.4253,10.678,10.5385,0.0,0.0,9.6575,9.2831,9.14,9.1693,9.1693,9.1693,9.1987,9.2905,9.3822,0.0,0.0,0.0,0.0,0.0,0.0,0.0,0.0,6.5218,6.6502,0.0,6.6466,0.0,0.0,0.0,0.0,0.0,7.2529,0.0,0.0,7.8855,8.0919,8.0479,8.1765,8.1731,8.0412,8.0919,7.9295,7.5608,6.9992,0.0,0.0,0.0,0.0,0.0,0.0,7.9803,8.349,8.7854,9.1237,9.3368,9.2049,9.1237,9.1068,8.6974,8.2983,7.9431,7.8431,7.6028,7.1751,7.1413,0.0,0.0,0.0,0.0,0.0,0.0,0.0,0.0,0.0,0.0,0.0,0.0,0.0,0.0,0.0,0.0,0.0,0.0,0.0,0.0,7.1142,0.0,0.0,0.0,0.0,0.0,0.0,0.0,0.0,0.0,0.0,8.8755,9.3679,9.8865,10.3093,0.0,0.0,0.0,0.0,10.953,10.9248,10.9474,10.9485,10.867,10.9753,10.9354,10.5669,0.0,0.0,10.62,10.8799,11.023,10.6302,10.8468,11.0487,11.0928,10.6633,10.388,10.4504,10.2338,10.098,10.1641,10.2632,10.377,7.4034,0.0,0.0,0.0,0.0,7.1647,7.3491,7.6019,7.4646,7.3937,7.3669,7.1862,0.0,0.0,0.0,0.0,0.0,0.0,7.5642,7.757,8.0141,8.2002,8.3355,8.3795,8.3761,8.3321,8.2475,8.0987,7.8822,7.5608,7.2394,6.9282,0.0,0.0,0.0,0.0,7.9803,8.3456,8.6873,8.9715,9.1913,9.1,9.0019,8.897,8.6704,8.4437,8.2306,8.0356,7.8283,7.6197,7.4342,0.0,0.0,0.0,0.0,0.0,0.0,0.0,0.0,0.0,0.0,0.0,0.0,0.0,0.0,0.0,0.0,0.0,0.0,0.0,7.1244,7.2022,7.2597,0.0,0.0,0.0,0.0,0.0,0.0,0.0,0.0,0.0,9.7184,9.9816,10.2299,0.0,0.0,10.8646,10.8327,10.948,11.0562,11.1015,11.1695,0.0,11.0578,11.0124,10.989,10.9899,11.2595,11.4476,11.381,11.5185,11.5773,11.3974,11.4965,11.5736,11.4525,11.0707,10.7734,10.7661,10.7844,10.8101,10.8431,10.9276,10.99,8.1039,7.5662,7.4787,7.5065,7.6217,7.6961,7.8551,8.0581,7.9667,7.9092,7.8686,7.6927,7.4999,7.3037,7.2293,0.0,0.0,0.0,7.7401,8.004,8.1494,8.3186,8.5046,8.5384,8.5384,8.5046,8.3862,8.2509,8.1054,7.9431,7.6826,7.3375,0.0,0.0,7.4052,7.7807,8.1291,8.437,8.7347,8.9647,9.1237,9.0594,8.9512,8.8023,8.6839,8.552,8.3998,8.2191,8.051,7.8973,7.7148,7.4839,0.0,0.0,0.0,0.0,0.0,0.0,0.0,0.0,0.0,0.0,0.0,6.6339,6.4749,0.0,0.0,0.0,6.962,7.1954,7.3578,7.4525,0.0,0.0,0.0,0.0,0.0,0.0,0.0,8.851,9.3916,9.866,10.196,10.4373,10.625,10.7237,10.9048,11.0183,10.9986,0.0,11.2247,11.2915,11.3809,11.4207,11.3736,11.3122,11.2984,11.3704,11.5258,11.6393,11.6671,11.7467,11.7849,11.7451,11.7608,11.7608,11.6654,11.3791,11.1515,11.1295,11.2212,11.2983,11.2726,11.3277,11.3827,8.6548,8.3862,8.1765,8.0784,8.0615,8.1393,8.1731,8.1731,8.1765,8.2441,8.3422,8.1325,7.9938,7.9025,7.6284,0.0,7.7299,7.801,7.9464,8.1494,8.2915,8.4336,8.5689,8.6366,8.6366,8.5655,8.4945,8.393,8.2577,8.1765,8.0344,7.8314,7.6149,7.6082,7.8145,8.0885,8.3456,8.5655,8.8463,9.0324,9.1068,9.0391,8.9376,8.8023,8.7177,8.6061,8.4674,8.3761,8.2374,8.0378,7.9532,7.7807,7.4931,0.0,0.0,0.0,0.0,0.0,0.0,0.0,0.0,0.0,0.0,0.0,0.0,0.0,0.0,0.0,7.28,0.0,7.5912,7.7908,0.0,0.0,0.0,8.1393,8.3016,8.6185,8.9443,9.2557,0.0,0.0,10.3869,10.7264,10.9983,11.1161,11.1363,11.1703,11.2465,11.3491,11.4387,11.489,11.5808,11.6727,11.7012,11.7033,11.6817,11.6584,11.7003,11.6937,11.6465,11.7123,11.7574,11.7362,11.7331,11.7294,11.7221,11.6424,11.5846,11.5002,11.5406,11.5663,11.5002,11.5296,11.5736,8.9293,8.8531,8.7414,8.5655,8.3693,8.5012,8.5587,8.5587,8.5587,8.5114,8.4234,8.2611,8.1156,7.9904,7.9194,7.9363,8.0276,8.1021,8.1934,8.2983,8.393,8.4539,8.4911,8.508,8.508,8.4877,8.4708,8.4437,8.4031,8.278,8.1866,8.1291,7.9701,7.8855,7.8923,8.0648,8.2644,8.4877,8.6738,8.8328,8.9545,8.8903,8.8361,8.7989,8.6163,8.5012,8.4606,8.2813,8.1562,8.1021,7.9803,7.828,7.642,7.351,0.0,0.0,0.0,0.0,0.0,0.0,0.0,0.0,0.0,7.1176,6.8233,0.0,7.2868,0.0,7.5676,7.7502,7.8247,7.9295,0.0,0.0,8.4742,8.6569,8.9681,9.1826,9.3772,9.5688,9.947,10.2658,10.4529,10.6969,10.945,11.1788,11.2871,11.3527,11.4086,11.5095,11.6013,11.6741,11.749,11.7976,11.7569,11.7335,11.7165,11.7041,11.747,11.7729,11.7545,11.8272,11.862,11.7959,11.813,11.8158,11.7574,11.7179,11.6864,11.6654,11.6323,11.5956,11.5736,11.5846,11.5993,8.9039,8.9043,8.9072,8.8125,8.667,8.7516,8.7888,8.7888,8.7888,8.7211,8.5993,8.42,8.2746,8.1663,8.1325,8.1596,8.2272,8.2712,8.3287,8.3998,8.4437,8.4606,8.4606,8.4606,8.4606,8.4606,8.4606,8.4471,8.4065,8.3287,8.2577,8.19,8.1426,8.0987,8.0648,8.1697,8.3219,8.5114,8.6636,8.7651,8.8091,8.8023,8.7516,8.6501,8.4979,8.3828,8.3152,8.1629,8.0784,8.0784,8.004,7.9092,7.7908,7.5676,7.3544,0.0,0.0,0.0,0.0,0.0,0.0,0.0,0.0,0.0,0.0,0.0,7.5337,7.7401,7.9329,8.1021,8.2441,8.3828,8.5621,8.7989,8.9512,9.1474,9.4112,9.5736,9.736,9.9187,10.1703,10.3856,10.5207,10.71,10.8992,11.0976,11.2338,11.3691,11.5174,11.6221,11.7012,11.744,11.7868,11.8011,11.7547,11.7366,11.7215,11.7147,11.749,11.7688,11.7568,11.8223,11.8587,11.8127,11.8257,11.8352,11.7843,11.722,11.6828,11.6765,11.6404,11.6066,11.5993,11.5993,11.5993,8.7266,8.736,8.8472,8.8836,8.8768,8.8982,8.9106,8.9106,8.9106,8.8632,8.7719,8.5689,8.437,8.3625,8.2983,8.305,8.3625,8.3625,8.3998,8.4606,8.4606,8.4606,8.4606,8.4606,8.4606,8.4606,8.4606,8.4302,8.3659,8.3524,8.2847,8.1629,8.2137,8.2441,8.2577,8.3186,8.4234,8.579,8.7144,8.7583,8.7076,8.7482,8.6771,8.4843,8.3592,8.234,8.1054,8.0209,7.9769,7.9769,7.9938,7.9769,7.9126,7.7807,7.6386,0.0,7.351,0.0,0.0,0.0,0.0,0.0,0.0,0.0,0.0,7.5642,7.8111,8.1426,8.3219,8.5046,8.7008,8.9275,9.0966,9.1812,9.3909,9.5838,9.7292,9.8781,10.0438,10.2434,10.3923,10.5107,10.5748,10.7187,10.8525,10.9599,11.0854,11.2662,11.5198,11.6491,11.7233,11.7312,11.744,11.7547,11.7512,11.7476,11.7396,11.7215,11.7371,11.7371,11.702,11.7599,11.8138,11.7956,11.7898,11.7894,11.7894,11.7073,11.649,11.6442,11.6195,11.6084,11.603,11.5993,11.5993,8.5627,8.5694,8.7242,8.7586,8.72,8.852,8.9106,8.9106,8.9106,8.8328,8.7076,8.6027,8.5148,8.4403,8.4268,8.4268,8.4403,8.4403,8.4505,8.4606,8.4606,8.4606,8.4606,8.4606,8.4606,8.4606,8.4606,8.4539,8.4403,8.3795,8.3355,8.3084,8.2644,8.2712,8.3253,0.0,0.0,0.0,8.667,8.7347,8.7753,8.6738,8.5993,8.5486,8.19,0.0,7.9498,7.8247,7.7536,7.757,7.8686,0.0,0.0,0.0,0.0,0.0,0.0,0.0,0.0,0.0,0.0,0.0,7.9634,7.8517,7.6589,7.9803,8.2577,8.393,8.6433,8.8192,8.8666,9.1237,9.3503,9.4857,9.692,9.8848,10.0371,10.1825,10.2942,10.3348,10.4667,10.5614,10.5851,10.6627,10.7805,10.9241,10.984,11.086,11.2706,11.4924,11.625,11.652,11.7119,11.7476,11.7512,11.7512,11.7497,11.7411,11.7447,11.7483,11.7422,11.7494,11.7647,11.7585,11.7416,11.7346,11.7346,11.6978,11.666,11.6454,11.6345,11.6257,11.6047,11.5993,11.5993,8.3221,0.0,8.5294,8.5854,0.0,8.7677,8.8324,8.8415,8.8903,8.826,8.6873,8.6129,8.5351,8.4606,8.4606,8.4606,8.4606,8.4606,8.4606,8.4606,8.4606,8.4606,8.4606,8.4606,8.4606,8.4606,8.4606,8.4606,8.4606,8.4234,8.3862,8.349,8.349,8.349,8.3524,8.3862,8.4437,8.5215,8.596,8.6366,8.6332,8.596,8.508,8.3558,8.1021,0.0,0.0,0.0,0.0,0.0,0.0,0.0,0.0,7.96,0.0,7.9092,7.8686,7.8788,7.9498,7.9938,8.0953,8.278,8.3625,8.3287,8.1426,8.3693,8.596,8.7753,8.9647,9.1203,9.2353,9.4451,9.6345,9.7834,9.9322,10.0709,10.1825,10.2908,10.372,10.416,10.5107,10.5919,10.6325,10.6629,10.7203,10.8109,10.8617,10.9217,11.0387,11.3318,11.5719,11.6698,11.719,11.7476,11.7512,11.7512,11.7512,11.7512,11.7512,11.7512,11.7512,11.7512,11.7512,11.7476,11.7402,11.7319,11.7303,11.7112,11.6764,11.6317,11.6266,11.6199,11.5803,11.5808,11.5993,8.0733,8.1692,8.3094,8.3966,8.4646,8.6357,8.7161,8.722,0.0,0.0,0.0,8.5892,8.5215,8.464,8.4606,8.4606,8.4606,8.4606,8.4606,8.4606,8.4606,8.4606,8.4606,8.4606,8.4606,8.4606,8.4606,8.4606,8.4606,8.4606,8.4302,8.3795,8.4336,8.4302,8.3761,8.4336,8.4606,8.4674,8.5384,8.5486,8.4877,8.5317,8.4403,8.1934,8.0648,7.916,7.7367,7.6386,7.6487,7.7705,7.8179,7.8923,8.0141,8.1122,8.1663,8.1697,8.2374,8.3118,8.3828,8.4031,8.4539,8.5554,8.6771,8.7177,8.6433,8.7076,8.8666,9.1474,9.2387,9.374,9.5973,9.7495,9.895,10.0303,10.1115,10.1825,10.2468,10.328,10.4024,10.4633,10.5445,10.6189,10.6764,10.69,10.69,10.6967,10.7475,10.8082,10.8994,11.2207,11.52,11.6482,11.7126,11.7512,11.7512,11.7512,11.7512,11.7512,11.7512,11.7512,11.7512,11.7512,11.7512,11.7512,11.7512,11.7405,11.7319,11.7192,11.6841,11.6088,11.6106,11.6124,11.5543,11.5599,11.5854,7.8544,7.7943,8.0773,8.2014,8.2235,8.4492,8.5451,8.5537,8.6723,8.6738,8.5892,8.5114,8.4742,8.4606,8.4606,8.4606,8.4606,8.4606,8.4606,8.4606,8.4606,8.4606,8.4606,8.4606,8.4606,8.4606,8.4606,8.4606,8.4606,8.4606,8.4573,8.4471,8.4573,8.4573,8.4471,8.4573,8.4606,8.464,8.5384,8.5723,8.5621,8.508,8.4606,8.4065,8.0987,7.916,7.8788,7.7468,7.6826,7.7096,7.8855,8.0006,8.0242,8.2103,8.3186,8.3219,8.3896,8.464,8.5418,8.6061,8.7313,8.9207,8.9647,8.9444,8.8734,8.9309,9.0729,9.2996,9.3943,9.5296,9.7461,9.9018,10.0202,10.1115,10.1893,10.2401,10.2536,10.3652,10.4464,10.4633,10.5919,10.6663,10.6764,10.6866,10.6866,10.69,10.7069,10.7607,10.9204,11.1936,11.3997,11.5165,11.6553,11.7383,11.7362,11.7476,11.7419,11.7512,11.7512,11.7512,11.7512,11.7512,11.7512,11.7512,11.7512,11.7262,11.6727,11.7033,11.6849,11.6069,11.587,11.5773,11.5441,11.5359,11.5489,7.7391,7.7122,7.8477,7.9523,8.0489,8.3153,8.4398,8.4549,8.5078,8.5234,8.5034,8.473,8.4606,8.4606,8.4606,8.4606,8.4606,8.4606,8.4606,8.4606,8.4606,8.4606,8.4606,8.4606,8.4606,8.4606,8.4606,8.4606,8.4606,8.4606,8.4606,8.4606,8.4606,8.4606,8.4606,8.4606,8.4606,8.4606,8.4979,8.5148,8.5148,8.4809,8.4234,8.3456,8.1697,8.0513,7.9735,7.9058,7.8855,7.9261,8.0242,8.0987,8.1426,8.2746,8.3693,8.4099,8.4843,8.5757,8.6907,8.7685,8.87,9.0087,9.0594,9.0831,9.0899,9.1609,9.2827,9.4586,9.5466,9.6785,9.895,9.9829,10.0675,10.1893,10.2333,10.2502,10.2603,10.3415,10.4092,10.416,10.5039,10.5817,10.6257,10.6291,10.6494,10.6798,10.69,10.7304,10.8109,11.0437,11.2544,11.3738,11.4718,11.5622,11.6463,11.6687,11.6921,11.7362,11.7512,11.7512,11.7512,11.7512,11.7512,11.7512,11.7512,11.7369,11.6941,11.6869,11.6447,11.5756,11.5351,11.5169,11.4727,11.4831,11.5383,7.6494,7.6441,7.6614,7.7673,7.9265,8.1632,8.2744,8.2878,8.2738,8.2824,8.312,8.3887,8.4392,8.4606,8.4606,8.4606,8.4606,8.4606,8.4606,8.4606,8.4606,8.4606,8.4606,8.4606,8.4606,8.4606,8.4606,8.4606,8.4606,8.4606,8.4606,8.4606,8.4606,8.4606,8.4606,8.4606,8.4606,8.4606,8.4606,8.4606,8.4606,8.4606,8.4065,8.3016,8.2746,8.2103,8.1021,8.0784,8.0953,8.1494,8.1697,8.2069,8.2644,8.3524,8.437,8.508,8.5858,8.6839,8.8125,8.8903,8.9647,9.0391,9.1135,9.188,9.2624,9.3402,9.4282,9.5432,9.6108,9.7428,9.9221,10.0032,10.0777,10.2062,10.2434,10.2536,10.257,10.3145,10.3585,10.3652,10.4227,10.4971,10.5411,10.5716,10.6122,10.6731,10.69,10.69,10.717,10.8721,11.0367,11.1803,11.2834,11.4092,11.543,11.5936,11.6296,11.7131,11.7362,11.7419,11.7512,11.7512,11.7512,11.7512,11.7512,11.7333,11.7226,11.6762,11.6049,11.5319,11.4936,11.4436,11.3893,11.4398,11.5154,7.5656,7.5224,7.5775,7.7185,7.8966,7.9352,7.9552,7.9503,7.9128,7.8943,7.9441,8.21,8.3851,8.45,8.4553,8.4606,8.4606,8.4606,8.4606,8.4606,8.4606,8.4606,8.4606,8.4606,8.4606,8.4606,8.4606,8.4606,8.4606,8.4606,8.4606,8.4606,8.4606,8.4606,8.4606,8.4606,8.4606,8.4606,8.4606,8.4606,8.4606,8.4606,8.4539,8.4437,8.3727,8.3355,8.3084,8.2543,8.2238,8.234,8.2949,8.3321,8.3524,8.4776,8.5892,8.6636,8.7347,8.8158,8.8937,8.9681,9.0391,9.1169,9.1846,9.2624,9.3368,9.4112,9.462,9.4924,9.5499,9.6683,9.807,9.9424,10.0574,10.1487,10.213,10.2536,10.2603,10.3145,10.3585,10.3585,10.4092,10.4701,10.4802,10.5377,10.6088,10.6663,10.6866,10.69,10.6934,10.7305,10.7947,10.9165,11.1591,11.3899,11.4559,11.5377,11.5779,11.6116,11.6921,11.7247,11.7304,11.7419,11.7512,11.7512,11.7405,11.7155,11.6727,11.6298,11.5941,11.5085,11.4482,11.3968,11.3699,11.4056,11.4627,7.5497,7.4967,7.521,7.6267,7.7735,7.8267,7.8401,7.8375,7.8247,7.8239,7.8597,8.0231,8.1803,8.3221,8.4143,8.4606,8.4606,8.4606,8.4606,8.4606,8.4606,8.4606,8.4606,8.4606,8.4606,8.4606,8.4606,8.4606,8.4606,8.4606,8.4606,8.4606,8.4606,8.4606,8.4606,8.4606,8.4606,8.4606,8.4606,8.4606,8.4606,8.4606,8.4606,8.4573,8.4336,8.4167,8.4133,8.3862,8.3727,8.3727,8.3998,8.4167,8.4167,8.4776,8.5655,8.6839,8.7989,8.8767,8.9072,8.9782,9.0527,9.1237,9.1981,9.2759,9.3503,9.3876,9.4045,9.4248,9.5499,9.7056,9.8442,9.9593,10.054,10.1284,10.2062,10.2536,10.2536,10.2773,10.2942,10.2976,10.3212,10.3585,10.4092,10.5073,10.5851,10.6257,10.6561,10.6866,10.69,10.7272,10.7678,10.8219,11.0323,11.2051,11.2817,11.3618,11.4305,11.5068,11.59,11.6628,11.6652,11.7189,11.7512,11.7512,11.7119,11.6798,11.6405,11.5442,11.4764,11.4336,11.3836,11.3232,11.3127,11.3536,11.4108,7.5347,7.4929,7.5078,7.5872,7.6963,7.7257,7.749,7.7582,7.7344,7.7253,7.7543,7.8407,7.9835,8.1621,8.3421,8.4339,8.4553,8.4606,8.4606,8.4606,8.4606,8.4606,8.4606,8.4606,8.4606,8.4606,8.4606,8.4606,8.4606,8.4606,8.4606,8.4606,8.4606,8.4606,8.4606,8.4606,8.4606,8.4606,8.4606,8.4606,8.4606,8.4606,8.4742,8.4877,8.4742,8.4708,8.4945,8.4742,8.4606,8.4606,8.4606,8.4606,8.4606,8.4606,8.5317,8.6839,8.8294,8.9106,8.9106,8.9985,9.0729,9.1271,9.215,9.2962,9.3436,9.3571,9.3673,9.4045,9.5533,9.7022,9.8037,9.9424,10.0438,10.1047,10.1893,10.2502,10.2536,10.2367,10.2299,10.2468,10.2401,10.257,10.3517,10.4498,10.5208,10.5783,10.6257,10.6731,10.69,10.734,10.7678,10.7745,10.8828,11.0085,11.1139,11.2427,11.3168,11.3747,11.4823,11.595,11.588,11.665,11.7512,11.7405,11.6762,11.6156,11.5799,11.4835,11.3872,11.3622,11.3229,11.2837,11.2856,11.3253,11.3694,7.4899,7.4958,7.5587,7.6195,7.6764,7.6235,7.6325,7.6764,7.5674,7.5104,7.5452,7.6765,7.8313,8.0046,8.2263,8.3762,8.45,8.4606,8.4606,8.4606,8.4606,8.4606,8.4606,8.4606,8.4606,8.4606,8.4606,8.4606,8.4606,8.4606,8.4606,8.4606,8.4606,8.4606,8.4606,8.4606,8.4606,8.4606,8.4606,8.464,8.464,8.464,8.5046,8.5655,8.5046,8.5012,8.552,8.5012,8.464,8.4606,8.4606,8.4606,8.4606,8.4674,8.5418,8.6839,8.826,8.9106,8.9241,9.0391,9.1237,9.1474,9.2624,9.3503,9.3537,9.3571,9.3876,9.4586,9.5364,9.6041,9.6447,9.8645,10.01,10.0337,10.1589,10.2299,10.2434,10.1758,10.1825,10.2198,10.1961,10.2198,10.3382,10.3618,10.4464,10.5344,10.5851,10.6122,10.6764,10.6967,10.7035,10.717,10.7779,10.8625,11.0152,11.1243,11.2089,11.2517,11.3552,11.5437,11.5766,11.6107,11.6846,11.724,11.6584,11.5849,11.5263,11.4514,11.3693,11.3265,11.3051,11.2801,11.2801,11.3253,11.3589,7.4869,7.4899,7.5138,7.5653,7.6146,7.5524,7.5653,7.6115,7.5284,7.4869,7.5074,7.5996,7.7092,7.8313,8.068,8.2774,8.45,8.4606,8.4606,8.4606,8.4606,8.4606,8.4606,8.4606,8.4606,8.4606,8.4606,8.4606,8.4606,8.4606,8.4606,8.4606,8.4606,8.4606,8.4606,8.4606,8.4606,8.4606,8.4606,8.4843,8.5317,8.5384,8.5926,8.7042,8.6027,8.5486,8.5757,8.552,8.5148,8.464,8.4606,8.4606,8.4708,8.5554,8.6298,8.6974,8.826,8.9106,8.9241,9.0459,9.1305,9.1406,9.2725,9.3571,9.3571,9.3605,9.3909,9.4654,9.5364,9.5939,9.6717,9.8341,9.9491,9.9627,10.0405,10.1115,10.1014,10.0811,10.0946,10.1622,10.1893,10.2401,10.2806,10.328,10.399,10.4904,10.5479,10.6088,10.6697,10.69,10.69,10.7001,10.7509,10.8185,10.8625,10.9712,11.0494,11.0799,11.1666,11.2727,11.3303,11.505,11.6073,11.6097,11.5669,11.5365,11.4616,11.3979,11.3229,11.3015,11.2801,11.2801,11.2801,11.3092,11.3306,7.4869,7.4869,7.4869,7.5399,7.6092,7.53,7.5399,7.6062,7.53,7.4869,7.5006,7.5384,7.6166,7.7354,7.8971,8.1239,8.3729,8.4339,8.4606,8.4606,8.4606,8.4606,8.4606,8.4606,8.4606,8.4606,8.4606,8.4606,8.4606,8.4606,8.4606,8.4606,8.4606,8.4606,8.4606,8.4606,8.4606,8.4606,8.4606,8.5012,8.5655,8.579,8.6501,8.7617,8.7008,8.6366,8.6163,8.5689,8.5215,8.4655,8.4606,8.4606,8.4742,8.6061,8.6907,8.7076,8.8531,8.9444,8.9613,9.0831,9.1677,9.1711,9.2793,9.3571,9.3571,9.3808,9.4214,9.4755,9.5635,9.6379,9.6954,9.8003,9.8815,9.9119,9.9762,10.0202,10.0202,9.9999,10.0235,10.0946,10.1893,10.2401,10.257,10.2942,10.3652,10.4532,10.5174,10.575,10.6629,10.69,10.69,10.6934,10.7272,10.7543,10.7779,10.8355,10.8965,10.9305,11.0386,11.1061,11.1694,11.359,11.4736,11.4708,11.4646,11.4434,11.399,11.3353,11.3051,11.2837,11.2801,11.2801,11.2801,11.2801,11.3038,7.4869,7.4869,7.4869,7.5579,7.6486,7.5421,7.5639,7.6418,7.5451,7.4869,7.4869,7.4937,7.5796,7.6996,7.7483,7.9187,8.1911,8.3476,8.4392,8.4553,8.4533,8.45,8.4587,8.45,8.45,8.4606,8.4606,8.4606,8.4606,8.4606,8.4606,8.4606,8.4606,8.4606,8.4606,8.4606,8.4606,8.464,8.4674,8.508,8.5689,8.5926,8.667,8.7922,8.7922,8.7516,8.6907,8.5587,8.4843,8.4674,8.4606,8.4606,8.4877,8.6095,8.6907,8.7313,8.897,9.0053,9.029,9.1508,9.2319,9.2421,9.3131,9.3571,9.3673,9.4214,9.4654,9.4992,9.5973,9.6853,9.7022,9.7664,9.8341,9.8984,9.9559,9.9931,9.9897,9.9559,9.939,10.0337,10.1589,10.2434,10.2536,10.2603,10.3179,10.4193,10.4735,10.5276,10.646,10.6798,10.69,10.69,10.7035,10.717,10.7035,10.6967,10.7441,10.8016,10.9334,11.0344,11.0339,11.1586,11.2607,11.2878,11.3396,11.3195,11.3105,11.2612,11.2889,11.2801,11.2801,11.2801,11.2801,11.2801,11.2801,7.4869,7.4869,7.4869,7.5369,7.6062,7.527,7.5399,7.6062,7.527,7.4869,7.4869,7.4869,7.518,7.5863,7.6765,7.8123,7.9652,8.1271,8.2886,8.4231,8.396,8.4069,8.4392,8.4014,8.4014,8.45,8.4606,8.4606,8.4606,8.4606,8.4606,8.4606,8.4606,8.4606,8.464,8.4606,8.4606,8.4708,8.5182,8.579,8.6535,8.7042,8.7786,8.8564,8.826,8.7854,8.7617,8.6704,8.5689,8.4708,8.4606,8.4843,8.5486,8.6366,8.711,8.7753,8.9241,9.0222,9.0391,9.1541,9.2455,9.259,9.3165,9.3537,9.3639,9.4315,9.4958,9.5432,9.6311,9.7056,9.7563,9.7834,9.8172,9.8341,9.8544,9.8781,9.8984,9.9424,9.9897,10.0303,10.1555,10.2401,10.2536,10.2536,10.2908,10.3855,10.4396,10.5107,10.5953,10.6663,10.6866,10.69,10.69,10.69,10.69,10.69,10.7103,10.7441,10.8387,10.9128,10.9191,10.9488,11.052,11.1223,11.1787,11.2106,11.1992,11.2176,11.249,11.2746,11.2801,11.2801,11.2801,11.2801,11.2801,7.4869,7.4869,7.4869,7.5278,7.5789,7.521,7.5278,7.5722,7.521,7.4869,7.4869,7.4869,7.4869,7.5112,7.5966,7.6962,7.8058,7.9344,8.1095,8.2998,8.3432,8.3762,8.4446,8.4069,8.4014,8.45,8.4606,8.4606,8.4606,8.4606,8.4606,8.4606,8.4606,8.4809,8.5012,8.5046,8.5046,8.5148,8.5554,8.6129,8.6839,8.7347,8.8091,8.8835,8.8632,8.826,8.7989,8.7279,8.6332,8.5283,8.5046,8.5317,8.5824,8.6738,8.7651,8.8497,8.9715,9.0729,9.1102,9.2218,9.2861,9.2996,9.3571,9.3977,9.418,9.4857,9.5736,9.6176,9.6886,9.7495,9.7901,9.8307,9.8375,9.8409,9.8206,9.8138,9.8476,9.9491,10.0303,10.0811,10.1758,10.2367,10.2536,10.2536,10.2942,10.3787,10.4396,10.5141,10.5919,10.6629,10.6798,10.69,10.69,10.69,10.69,10.69,10.69,10.7103,10.7407,10.7778,10.7913,10.8281,10.8951,10.9565,11.0169,11.1008,11.1016,11.1687,11.2028,11.2343,11.2711,11.2801,11.2801,11.2801,11.2801,7.4869,7.4869,7.4869,7.521,7.5722,7.5142,7.521,7.5654,7.521,7.4869,7.4869,7.4869,7.4869,7.4899,7.5232,7.6051,7.7157,7.7992,7.9316,8.089,8.2091,8.3121,8.3784,8.4197,8.45,8.4553,8.4606,8.4606,8.4606,8.4606,8.4606,8.4606,8.4742,8.5046,8.5587,8.579,8.5824,8.5858,8.5892,8.6298,8.6974,8.7076,8.7685,8.9004,8.9038,8.8734,8.8158,8.7347,8.6569,8.5858,8.5757,8.5926,8.6196,8.7279,8.826,8.9106,9.0493,9.1474,9.2319,9.2962,9.3537,9.3673,9.4214,9.4755,9.489,9.5838,9.6616,9.6785,9.7461,9.7969,9.8206,9.8612,9.9018,9.9051,9.8612,9.851,9.9085,9.9829,10.0438,10.1216,10.1995,10.2536,10.2536,10.257,10.328,10.4058,10.4566,10.5276,10.6122,10.6595,10.6798,10.6866,10.69,10.69,10.69,10.69,10.69,10.6967,10.7103,10.7103,10.7137,10.744,10.7675,10.82,10.8843,10.9676,11.0243,11.078,11.1537,11.2119,11.2399,11.2656,11.2801,11.2801,11.2801,7.4869,7.4869,7.4869,7.5006,7.5142,7.4937,7.5006,7.5142,7.5006,7.4899,7.4899,7.4869,7.4899,7.4929,7.5407,7.5866,7.644,7.7049,7.8172,7.9625,8.0142,8.0982,8.2116,8.3729,8.4553,8.45,8.45,8.4606,8.4606,8.4621,8.4621,8.464,8.5195,8.5554,8.5824,8.6366,8.6602,8.6602,8.6602,8.6941,8.755,8.7685,8.8158,8.8937,8.9106,8.897,8.8666,8.7583,8.6569,8.5926,8.6332,8.6907,8.7279,8.7786,8.8598,8.9816,9.0729,9.1643,9.2421,9.3199,9.3808,9.4349,9.4687,9.4958,9.5499,9.6345,9.6819,9.6988,9.7563,9.824,9.8679,9.9018,9.9322,9.9728,9.9322,9.9153,9.9762,10.01,10.0506,10.1284,10.2062,10.2434,10.2671,10.2942,10.3415,10.3957,10.4464,10.5039,10.602,10.6358,10.6494,10.6798,10.69,10.69,10.69,10.69,10.69,10.69,10.6934,10.6967,10.6967,10.7069,10.7136,10.7335,10.8094,10.8856,10.9199,10.9634,11.0543,11.1515,11.1801,11.2007,11.2545,11.2801,11.2801,7.4869,7.4869,7.4869,7.4869,7.4869,7.4869,7.4869,7.4869,7.4869,7.5048,7.5198,7.4958,7.5198,7.5707,7.5826,7.5884,7.5995,7.6607,7.7274,7.7863,7.8973,8.0142,8.1395,8.2953,8.3432,8.3543,8.3905,8.3762,8.372,8.448,8.4865,8.4816,8.5695,8.6399,8.6805,8.711,8.738,8.738,8.738,8.7617,8.7955,8.7989,8.8395,8.8937,8.9072,8.9004,8.8564,8.8091,8.7347,8.6636,8.6704,8.7245,8.7922,8.8328,8.914,9.0527,9.1068,9.1744,9.2793,9.3605,9.4214,9.4755,9.5161,9.577,9.6345,9.7157,9.78,9.7935,9.824,9.8612,9.9018,9.9356,10.0066,10.0912,10.0506,10.0269,10.0675,10.0743,10.1081,10.169,10.2231,10.2671,10.2874,10.3145,10.3652,10.4261,10.4633,10.5344,10.6088,10.6156,10.6325,10.6697,10.69,10.69,10.69,10.69,10.69,10.69,10.69,10.69,10.69,10.69,10.69,10.7101,10.7533,10.7926,10.841,10.8856,10.9572,11.0363,11.0839,11.1422,11.2007,11.2545,11.2601,7.48,7.4869,7.4869,7.4869,7.4869,7.4869,7.4869,7.4869,7.4869,7.5258,7.5617,7.5228,7.5677,7.6784,7.6395,7.6096,7.6075,7.6779,7.6577,7.7095,7.8215,7.9809,8.0869,8.1843,8.219,8.2248,8.2817,8.2803,8.3058,8.46,8.5101,8.5114,8.6196,8.7169,8.7574,8.7934,8.8091,8.8091,8.7922,8.7989,8.8125,8.8125,8.8361,8.897,8.9072,8.8835,8.8531,8.8463,8.8294,8.7177,8.7144,8.7651,8.8294,8.8937,8.9918,9.1135,9.1677,9.2353,9.3503,9.4383,9.489,9.5229,9.621,9.6988,9.7326,9.824,9.8882,9.9051,9.9187,9.9322,9.9593,10.0032,10.0878,10.1825,10.169,10.1419,10.1487,10.1487,10.1792,10.2502,10.2671,10.3077,10.3314,10.3415,10.3585,10.4971,10.5242,10.5614,10.6122,10.6291,10.6494,10.6798,10.69,10.69,10.69,10.69,10.69,10.69,10.69,10.69,10.69,10.69,10.69,10.7034,10.7267,10.7599,10.7892,10.841,10.8822,10.9324,10.994,11.0662,11.1307,11.1915,11.2232,7.405,7.4869,7.4869,7.4869,7.4869,7.4869,7.4869,7.4869,7.4869,7.5258,7.5736,7.5707,7.6125,7.6874,7.7143,7.7143,7.6724,7.7174,7.7274,7.6916,7.7662,7.8406,7.9379,8.0721,8.1759,8.1843,8.2017,8.2428,8.3178,8.3958,8.4754,8.5126,8.6533,8.7598,8.7373,8.8251,8.8835,8.8734,8.8328,8.8328,8.8598,8.8328,8.8395,8.9004,8.914,8.9038,8.8767,8.8429,8.8361,8.8531,8.8632,8.8869,8.9478,8.9816,9.0662,9.1812,9.2725,9.3436,9.4383,9.5093,9.5804,9.6277,9.6751,9.7394,9.8544,9.8882,9.9424,9.9796,9.9999,10.0202,10.0641,10.098,10.1555,10.2096,10.1927,10.1656,10.2096,10.2265,10.2603,10.3179,10.3787,10.4261,10.443,10.4769,10.5107,10.5716,10.5885,10.602,10.6223,10.646,10.6629,10.6866,10.69,10.69,10.69,10.69,10.69,10.69,10.69,10.69,10.69,10.69,10.69,10.69,10.6967,10.7201,10.7533,10.7466,10.7762,10.841,10.9074,10.9879,11.0662,11.1249,11.2063,7.3492,7.405,7.4663,7.4869,7.4869,7.4869,7.4869,7.4869,7.4869,7.5258,7.5796,7.5916,7.6425,7.7293,7.7622,7.7592,7.7322,7.7263,7.7204,7.6986,7.7371,7.7459,7.776,7.9132,8.0192,8.0577,8.1079,8.1588,8.2319,8.3637,8.4664,8.4945,8.6729,8.7328,8.727,8.8132,8.8586,8.87,8.8622,8.8734,8.8937,8.8734,8.8632,8.9106,8.941,8.9613,8.9545,8.9275,8.9309,8.9512,8.9613,8.9782,9.0188,9.056,9.1305,9.2286,9.3165,9.3909,9.4687,9.5669,9.6447,9.6886,9.7461,9.824,9.9153,9.966,10.0303,10.0641,10.0811,10.098,10.1318,10.1386,10.1758,10.2231,10.2164,10.213,10.2468,10.2806,10.3111,10.3652,10.416,10.4735,10.5174,10.5547,10.5885,10.6122,10.5885,10.602,10.6528,10.6697,10.6697,10.6832,10.6866,10.69,10.69,10.69,10.69,10.69,10.69,10.69,10.69,10.69,10.69,10.69,10.69,10.69,10.7101,10.6967,10.7034,10.7533,10.8281,10.9199,11.0027,11.0839,11.1744,7.2969,7.3181,7.4357,7.4869,7.4869,7.4869,7.4869,7.4869,7.4869,7.5258,7.5856,7.5976,7.6724,7.7622,7.7951,7.7981,7.7801,7.7322,7.7134,7.7227,7.7236,7.7307,7.7529,7.8177,7.8829,7.9164,8.0167,8.0735,8.1685,8.3179,8.4647,8.5066,8.6409,8.7057,8.7216,8.7812,8.8252,8.8334,8.8756,8.9027,8.9196,8.9162,8.9342,8.9715,9.0053,9.0357,9.0357,9.029,9.0357,9.0391,9.0493,9.0527,9.0696,9.1102,9.1913,9.2725,9.3673,9.4485,9.533,9.6311,9.7123,9.7225,9.824,9.9153,9.9694,10.0506,10.1149,10.1453,10.1555,10.1555,10.1589,10.1656,10.1927,10.2367,10.257,10.2671,10.284,10.3382,10.3923,10.3923,10.4802,10.5614,10.5682,10.5851,10.6223,10.6426,10.6156,10.6122,10.6629,10.69,10.6866,10.6832,10.6866,10.69,10.69,10.69,10.69,10.69,10.69,10.69,10.69,10.69,10.69,10.69,10.69,10.69,10.69,10.69,10.6967,10.7101,10.7466,10.8346,10.9324,11.0423,11.1342,7.2258,7.3181,7.4357,7.4869,7.4869,7.4869,7.4869,7.4869,7.4869,7.5258,7.5916,7.6455,7.7053,7.7801,7.843,7.8609,7.84,7.7921,7.7603,7.7585,7.7603,7.7631,7.7676,7.8206,7.8641,7.9176,8.0034,8.0898,8.1888,8.3662,8.4511,8.5284,8.6403,8.6831,8.6837,8.7493,8.8096,8.8321,8.8832,8.9262,8.9255,8.9677,9.0074,9.048,9.0841,9.1102,9.1135,9.1135,9.1102,9.1169,9.1711,9.1947,9.2049,9.2184,9.2928,9.3977,9.489,9.5601,9.6413,9.7258,9.807,9.8578,9.9085,9.9829,10.0608,10.1216,10.169,10.2096,10.2231,10.2299,10.2299,10.2198,10.2333,10.2637,10.3009,10.3348,10.3618,10.4363,10.4971,10.4667,10.558,10.6392,10.6291,10.6257,10.6494,10.6697,10.6561,10.646,10.6731,10.69,10.69,10.6866,10.69,10.69,10.69,10.69,10.69,10.69,10.69,10.69,10.69,10.69,10.69,10.7103,10.7035,10.6967,10.6934,10.6967,10.69,10.6967,10.7267,10.7533,10.8568,10.9695,11.0543,7.0781,7.2329,7.3492,7.4357,7.48,7.4869,7.4869,7.4869,7.4899,7.5258,7.5946,7.6574,7.7203,7.7831,7.8489,7.8789,7.8669,7.8519,7.813,7.7943,7.7825,7.7645,7.7524,7.8053,7.8274,7.8711,7.9749,8.0719,8.1381,8.2588,8.377,8.4506,8.5485,8.5991,8.6379,8.7032,8.7837,8.8304,8.9149,8.9575,8.9353,8.9952,9.0287,9.0254,9.1276,9.1788,9.188,9.188,9.188,9.1947,9.2218,9.2624,9.2996,9.347,9.3909,9.4789,9.5736,9.6683,9.7428,9.8138,9.8882,9.9593,9.9999,10.054,10.125,10.169,10.2096,10.2367,10.2536,10.2536,10.2502,10.2536,10.2705,10.3043,10.3415,10.3754,10.4261,10.5208,10.5377,10.5377,10.6088,10.6629,10.6764,10.6764,10.6866,10.69,10.69,10.69,10.69,10.69,10.69,10.7001,10.7001,10.7001,10.6967,10.6934,10.69,10.69,10.7035,10.7035,10.717,10.7272,10.7407,10.7576,10.7407,10.7137,10.7238,10.7306,10.7103,10.69,10.7101,10.74,10.8152,10.8948,10.9818,6.9231,7.0882,7.23,7.3562,7.4495,7.48,7.4731,7.4594,7.48,7.5,7.5458,7.6344,7.7113,7.7711,7.834,7.8789,7.8789,7.8759,7.8489,7.816,7.8112,7.7682,7.7532,7.7682,7.8153,7.8468,7.9234,8.0195,8.0817,8.1993,8.2962,8.4088,8.47,8.5566,8.6529,8.7195,8.7745,8.8626,8.9619,8.998,8.9966,9.022,9.0326,8.9766,9.1548,9.2658,9.2658,9.2895,9.2793,9.2861,9.303,9.3368,9.3876,9.4654,9.5127,9.533,9.6277,9.7191,9.8138,9.8645,9.939,10.0371,10.098,10.1352,10.169,10.213,10.2468,10.2536,10.2536,10.2536,10.2536,10.2536,10.2874,10.3415,10.372,10.4092,10.487,10.558,10.6054,10.6257,10.6663,10.6798,10.69,10.69,10.69,10.69,10.69,10.69,10.69,10.69,10.6934,10.7103,10.7137,10.7103,10.7069,10.7001,10.6967,10.69,10.7204,10.7407,10.761,10.7779,10.805,10.8354,10.7644,10.7441,10.7576,10.7509,10.7137,10.69,10.69,10.7168,10.7664,10.8346,10.9262,6.8294,6.8923,7.1089,7.2557,7.3392,7.4357,7.4219,7.3492,7.4387,7.4248,7.4003,7.5784,7.6933,7.7352,7.831,7.8759,7.8789,7.8789,7.8699,7.8549,7.8549,7.8519,7.8489,7.8609,7.8579,7.8549,7.8885,7.9587,8.0426,8.1927,8.3369,8.424,8.4986,8.6276,8.7017,8.7626,8.8605,8.9259,8.9987,9.0553,9.0907,9.1203,9.1587,9.2051,9.2785,9.347,9.3571,9.3943,9.4011,9.3706,9.4687,9.5026,9.4924,9.5905,9.648,9.665,9.692,9.7495,9.8713,9.9254,9.9897,10.0946,10.1419,10.1758,10.2096,10.2333,10.2536,10.2536,10.2536,10.2536,10.2536,10.2536,10.2908,10.3551,10.416,10.4802,10.5547,10.5986,10.6426,10.6561,10.6798,10.6866,10.69,10.69,10.69,10.69,10.69,10.69,10.6967,10.7035,10.7204,10.7407,10.7475,10.7441,10.7576,10.7441,10.7373,10.7204,10.7543,10.7915,10.8151,10.8524,10.92,10.9234,10.8456,10.7881,10.8016,10.7779,10.717,10.69,10.69,10.69,10.6967,10.7796,10.8602,6.6635,6.7833,6.9318,7.0504,7.148,7.2544,7.2644,7.2559,7.3733,7.4398,7.4626,7.6409,7.7562,7.7981,7.8609,7.8789,7.8789,7.8789,7.8789,7.8789,7.8789,7.8789,7.8759,7.8789,7.8789,7.8849,7.8789,7.9005,7.9971,8.0879,8.2062,8.3019,8.4394,8.5692,8.7211,8.7858,8.8858,8.985,9.0635,9.0876,9.0976,9.1564,9.2214,9.2398,9.3156,9.3952,9.462,9.462,9.4857,9.4789,9.5601,9.5905,9.6007,9.6582,9.7123,9.8138,9.8138,9.8679,9.9593,10.0066,10.0912,10.1622,10.1995,10.2198,10.2468,10.2536,10.2536,10.2536,10.2536,10.2536,10.2536,10.2536,10.3246,10.3889,10.4566,10.5377,10.6054,10.6494,10.6832,10.6866,10.69,10.69,10.69,10.69,10.6967,10.7035,10.7035,10.7035,10.7204,10.7407,10.761,10.7881,10.7915,10.7881,10.8084,10.8151,10.8219,10.8151,10.8422,10.8727,10.8862,10.9268,10.9911,10.9944,10.92,10.8794,10.8591,10.7813,10.7001,10.69,10.69,10.6934,10.6967,10.7101,10.8125,6.5226,6.637,6.7673,6.8847,6.9989,7.0832,7.1256,7.1414,7.2908,7.3995,7.51,7.6758,7.813,7.8669,7.8759,7.8789,7.8789,7.8789,7.8789,7.8789,7.8819,7.8908,7.8998,7.8998,7.8908,7.9028,7.8849,7.9011,7.9347,7.9991,8.0929,8.1756,8.3943,8.5638,8.7232,8.8502,8.9643,9.1106,9.1609,9.1467,9.1202,9.2014,9.2404,9.2781,9.344,9.4485,9.5499,9.5601,9.5635,9.5601,9.6277,9.665,9.6751,9.7089,9.7766,9.8679,9.9018,9.9627,10.0371,10.098,10.1758,10.2231,10.2536,10.2434,10.2502,10.2536,10.2536,10.2536,10.2536,10.2603,10.2739,10.284,10.3618,10.4396,10.5039,10.5851,10.6528,10.6764,10.69,10.69,10.69,10.69,10.69,10.69,10.7001,10.717,10.7204,10.7204,10.7576,10.7948,10.8354,10.8693,10.8524,10.8625,10.8963,10.9065,10.9031,10.9065,10.9302,10.9471,10.9572,10.9978,11.0553,11.0316,10.9775,10.9302,10.8862,10.7847,10.69,10.6967,10.7035,10.7035,10.7035,10.7102,10.7798,6.4295,6.4121,6.6545,6.8196,6.9215,7.0453,7.0707,7.0489,7.1846,7.3043,7.4398,7.6428,7.825,7.8669,7.8789,7.8789,7.8789,7.8789,7.8789,7.8789,7.8849,7.9178,7.9327,7.9297,7.9178,7.9507,7.9327,7.9387,7.9597,7.9832,8.096,8.2448,8.3843,8.6332,8.8239,8.9562,9.0746,9.1959,9.2376,9.243,9.2255,9.2591,9.2955,9.3674,9.4267,9.5026,9.5804,9.6244,9.6413,9.6108,9.6954,9.7292,9.7225,9.7664,9.8409,9.9119,9.9863,10.0472,10.1183,10.1453,10.1792,10.2265,10.2536,10.2536,10.2536,10.2536,10.2536,10.2536,10.2536,10.284,10.3179,10.3652,10.4058,10.4938,10.5513,10.5986,10.6528,10.6764,10.69,10.69,10.6934,10.6967,10.717,10.7238,10.7103,10.7238,10.7644,10.7712,10.8422,10.8862,10.9369,10.9572,10.9302,10.9437,10.9978,10.9944,10.9606,10.9708,11.0012,11.0147,11.0249,11.0722,11.1061,11.0689,11.0147,10.964,10.8963,10.7847,10.7103,10.7103,10.717,10.734,10.7441,10.754,10.8392,6.4555,6.4815,6.611,6.6801,6.7187,6.8119,6.8435,6.8753,7.0849,7.3595,7.5843,7.7661,7.8549,7.8729,7.8789,7.8789,7.8789,7.8789,7.8789,7.8968,7.9208,7.9537,7.9746,7.9956,7.9986,7.9956,7.9866,7.9806,7.9806,8.0225,8.0941,8.2256,8.3634,8.5525,8.7682,9.03,9.1721,9.2152,9.2777,9.3127,9.2803,9.3162,9.3819,9.502,9.4564,9.5642,9.6819,9.6886,9.7022,9.7258,9.767,9.7698,9.7698,9.8273,9.8984,9.9694,10.0438,10.1183,10.1859,10.2028,10.2231,10.2367,10.2536,10.2536,10.2536,10.2536,10.2536,10.2536,10.257,10.2908,10.3449,10.3652,10.4058,10.5276,10.5986,10.6325,10.6561,10.6832,10.7035,10.7103,10.7103,10.7103,10.7373,10.7644,10.7441,10.734,10.7779,10.8321,10.9099,10.964,11.008,11.0283,11.0046,11.0147,11.0655,11.0418,11.0046,11.0316,11.0655,11.0722,11.079,11.0993,11.1196,11.0858,11.0418,10.9741,10.8862,10.7745,10.734,10.7475,10.7644,10.7813,10.7881,10.7879,10.8758,6.4931,6.5333,6.5886,6.6094,6.6093,6.662,6.703,6.7654,6.9535,7.279,7.6496,7.7637,7.8499,7.8717,7.8789,7.8789,7.8789,7.8819,7.8968,7.9208,7.9567,8.0016,8.0375,8.0554,8.0584,8.0464,8.0494,8.0524,8.0584,8.0913,8.1496,8.2244,8.3005,8.4792,8.7364,9.0468,9.2195,9.2195,9.294,9.3237,9.2711,9.2898,9.3147,9.4272,9.3953,9.4871,9.6163,9.6624,9.7106,9.7568,9.8059,9.8144,9.8409,9.8848,9.9627,10.0269,10.0946,10.1724,10.2299,10.2536,10.2502,10.2536,10.2536,10.2536,10.2536,10.2536,10.2536,10.2536,10.2705,10.3111,10.3787,10.4261,10.4904,10.6088,10.6257,10.6561,10.6697,10.69,10.7137,10.7306,10.7373,10.7576,10.805,10.8422,10.8591,10.8659,10.9335,10.9708,11.0046,11.0452,11.0621,11.0756,11.0689,11.0925,11.123,11.0925,11.0655,11.079,11.1061,11.1162,11.1264,11.1399,11.1365,11.1128,11.0587,10.9775,10.9132,10.8557,10.8185,10.7915,10.7982,10.7982,10.7813,10.788,10.8666,6.5283,6.5358,6.5886,6.6297,6.6463,6.6547,6.7022,6.7602,6.8287,7.0582,7.4176,7.6121,7.7799,7.8559,7.8794,7.8968,7.8998,7.8998,7.9208,7.9627,8.0075,8.0674,8.1093,8.1272,8.1272,8.1482,8.1392,8.1362,8.1661,8.1691,8.214,8.2739,8.3477,8.4381,8.6691,9.013,9.1834,9.2127,9.3079,9.2615,9.2191,9.2022,9.2121,9.2644,9.2876,9.3894,9.5574,9.6457,9.7076,9.7709,9.8675,9.8786,9.8544,9.9593,10.0235,10.0371,10.1081,10.1792,10.2401,10.2502,10.2536,10.2536,10.2536,10.2536,10.2536,10.2536,10.2536,10.2536,10.3009,10.3754,10.4498,10.5242,10.5885,10.6392,10.6595,10.6697,10.6832,10.69,10.7103,10.7509,10.7881,10.8219,10.8794,10.9268,10.9674,11.0114,11.0858,11.1128,11.1027,11.1027,11.1061,11.1061,11.1061,11.1162,11.1331,11.1365,11.1298,11.1399,11.1399,11.1399,11.1399,11.1399,11.1365,11.1298,11.079,11.0012,10.9809,10.9606,10.9099,10.8524,10.8084,10.7982,10.7813,10.7846,10.8532,6.5509,6.586,6.6036,6.6183,6.6262,6.6262,6.6433,6.6916,6.8263,7.0368,7.3007,7.5202,7.6908,7.8095,7.9126,7.9447,7.9507,8.0016,8.0285,7.9926,8.0614,8.1242,8.1721,8.1991,8.1961,8.1901,8.1871,8.217,8.2409,8.2499,8.3158,8.3816,8.4312,8.5393,8.6971,8.9325,9.0842,9.0884,9.1244,9.119,9.0919,9.0972,9.1403,9.2499,9.2479,9.3443,9.5585,9.6432,9.7226,9.8087,9.9161,9.9598,9.9525,10.0506,10.0946,10.1115,10.169,10.2198,10.2468,10.2536,10.2536,10.2536,10.2536,10.2536,10.2536,10.2536,10.2536,10.2739,10.3382,10.4058,10.4599,10.5344,10.602,10.6595,10.6832,10.6832,10.69,10.69,10.7069,10.761,10.8084,10.8896,10.9572,11.0012,11.0418,11.0486,11.0993,11.123,11.1162,11.123,11.1298,11.1298,11.1298,11.1331,11.1399,11.1399,11.1399,11.1399,11.1399,11.1399,11.1399,11.1399,11.1365,11.1331,11.0824,11.0283,11.0215,11.0046,10.9572,10.9099,10.8524,10.8084,10.7915,10.788,10.8032,6.5609,6.6086,6.6112,6.6112,6.6112,6.6112,6.6112,6.6429,6.7964,6.9903,7.1978,7.4099,7.601,7.7603,7.907,7.9806,7.9896,8.0464,8.0973,8.0554,8.1302,8.1841,8.226,8.2709,8.2619,8.2529,8.2948,8.3397,8.3158,8.3337,8.3876,8.4594,8.5342,8.5671,8.6823,8.8346,8.9841,9.0022,9.0365,9.0576,9.0352,9.0357,9.0622,9.1303,9.1918,9.2773,9.4967,9.6438,9.7425,9.8521,9.9675,10.0345,10.0641,10.1115,10.1521,10.169,10.2028,10.2536,10.284,10.257,10.2671,10.2942,10.2671,10.2536,10.2603,10.2773,10.2908,10.3212,10.3787,10.4396,10.5039,10.575,10.6291,10.69,10.69,10.69,10.7001,10.7035,10.761,10.8118,10.8828,10.964,11.0316,11.0722,11.1162,11.1061,11.1027,11.1162,11.1298,11.1433,11.1433,11.1399,11.1399,11.1433,11.1399,11.1399,11.1399,11.1399,11.1399,11.1399,11.1399,11.1399,11.1399,11.1399,11.1061,11.079,11.0655,11.0418,11.0012,10.9403,10.8659,10.8321,10.8084,10.7913,10.7735,6.5634,6.6086,6.6112,6.6112,6.6112,6.6112,6.6112,6.6197,6.7052,6.8576,7.061,7.2692,7.4732,7.6983,7.8804,7.9749,8.0165,8.0704,8.1153,8.1601,8.1991,8.238,8.2888,8.3397,8.3397,8.3487,8.3786,8.4145,8.3906,8.4474,8.4863,8.4953,8.5581,8.5888,8.6674,8.755,8.8639,8.8992,8.9467,8.9683,8.9651,8.9744,8.9775,9.0159,9.0451,9.1674,9.3468,9.5059,9.6739,9.8409,10.0249,10.0562,10.1081,10.1724,10.1758,10.1893,10.2231,10.284,10.3111,10.2739,10.284,10.3077,10.2908,10.2671,10.2773,10.3145,10.3382,10.3923,10.4599,10.5174,10.5817,10.6257,10.6731,10.69,10.69,10.7001,10.717,10.7576,10.8287,10.8997,10.9775,11.0486,11.0925,11.1365,11.1467,11.1331,11.1196,11.123,11.1399,11.1636,11.1602,11.1433,11.1467,11.1501,11.1467,11.1399,11.1399,11.1399,11.1399,11.1399,11.1399,11.1399,11.1399,11.1399,11.1399,11.1264,11.1061,11.079,11.0486,10.9843,10.9302,10.876,10.8557,10.7745,10.7674,6.5961,6.6112,6.6112,6.6112,6.6112,6.6112,6.6112,6.6197,6.6455,6.7256,6.8492,7.061,7.3122,7.5532,7.8044,7.9515,8.072,8.1482,8.1781,8.22,8.2739,8.3158,8.3606,8.4055,8.4205,8.4325,8.4534,8.4923,8.5192,8.5731,8.5731,8.5611,8.6,8.627,8.6547,8.6964,8.7362,8.7839,8.8431,8.882,8.9036,8.9104,8.9376,8.9979,8.9937,9.1201,9.2924,9.4662,9.6352,9.7987,10.0216,10.1245,10.2028,10.2299,10.2299,10.2333,10.2773,10.3246,10.2976,10.3111,10.3212,10.3111,10.3043,10.3314,10.3348,10.3585,10.3923,10.4599,10.5276,10.5817,10.6122,10.6494,10.6832,10.69,10.7001,10.7238,10.7475,10.8084,10.8862,10.9843,11.0621,11.0993,11.1433,11.1534,11.1602,11.1467,11.1399,11.1399,11.1467,11.167,11.1703,11.1501,11.1703,11.1805,11.1534,11.1433,11.1399,11.1399,11.1399,11.1433,11.1501,11.1501,11.1433,11.1399,11.1399,11.1399,11.1331,11.1095,11.0858,11.079,11.0316,10.9606,10.893,10.8253,10.7915,6.6112,6.6112,6.6112,6.6112,6.6112,6.6112,6.6112,6.6112,6.6112,6.6626,6.762,6.9327,7.1797,7.4901,7.7347,7.9401,8.1228,8.2439,8.2948,8.3038,8.353,8.3936,8.4325,8.4606,8.4803,8.4953,8.5192,8.5611,8.591,8.627,8.6359,8.618,8.6539,8.6629,8.6738,8.6768,8.6947,8.7247,8.7606,8.8125,8.8604,8.8963,8.9819,9.0425,9.0285,9.1334,9.2722,9.4314,9.5647,9.7334,9.9523,10.0986,10.175,10.2144,10.2773,10.2874,10.3212,10.3551,10.3585,10.3483,10.3314,10.3111,10.3145,10.3415,10.4024,10.443,10.4769,10.5208,10.5817,10.6325,10.646,10.6595,10.6764,10.69,10.7204,10.7543,10.805,10.8591,10.9538,11.0553,11.1128,11.1433,11.167,11.1737,11.167,11.1467,11.1399,11.1399,11.1433,11.1568,11.1568,11.1433,11.1839,11.2177,11.1873,11.1636,11.1636,11.1568,11.1399,11.1433,11.1568,11.1534,11.1433,11.1399,11.1399,11.1399,11.1399,11.1399,11.123,11.1128,11.0959,11.0384,10.9708,10.9166,10.8965,6.6112,6.6112,6.6112,6.6112,6.6112,6.6187,6.6212,6.6187,6.6312,6.6616,6.7477,6.8659,7.1176,7.4167,7.6607,7.9054,8.1163,8.2766,8.3547,8.3679,8.4104,8.4403,8.4414,8.5186,8.501,8.5227,8.5701,8.615,8.609,8.6479,8.6868,8.6689,8.6659,8.6748,8.6928,8.6928,8.7287,8.8035,8.8245,8.8693,8.9711,9.004,9.001,9.0459,9.0684,9.1156,9.2154,9.3259,9.4368,9.6338,9.812,9.9559,10.1086,10.215,10.2913,10.3585,10.3923,10.4092,10.4261,10.4193,10.3957,10.3585,10.3212,10.3855,10.4633,10.4836,10.5039,10.5783,10.6392,10.6798,10.7001,10.7137,10.7306,10.761,10.7982,10.8354,10.8828,10.9505,11.0452,11.1331,11.1737,11.2042,11.2245,11.2312,11.2076,11.1703,11.1399,11.1399,11.1636,11.1737,11.1771,11.1771,11.2482,11.2888,11.238,11.2143,11.1974,11.1839,11.1568,11.1501,11.1636,11.1568,11.1399,11.1399,11.1399,11.1399,11.1399,11.1399,11.1365,11.1298,11.1095,11.0925,11.0486,10.9944,10.9744,6.6112,6.6112,6.6112,6.6112,6.6187,6.6589,6.6764,6.6815,6.7241,6.7064,6.6803,6.8031,7.0119,7.302,7.56,7.8158,8.0701,8.2729,8.356,8.3896,8.4347,8.4279,8.3784,8.4711,8.477,8.493,8.5486,8.6599,8.6539,8.6928,8.7137,8.6718,8.6748,8.6928,8.7347,8.7377,8.7945,8.8843,8.9052,8.9202,8.986,9.0369,9.0549,9.0638,9.0721,9.0721,9.1484,9.2265,9.318,9.4523,9.6338,9.8698,10.1448,10.259,10.3555,10.4329,10.4603,10.4704,10.487,10.487,10.4802,10.4667,10.4566,10.5073,10.5344,10.5107,10.5377,10.6223,10.6866,10.7238,10.7543,10.7712,10.7915,10.8321,10.876,10.92,10.964,11.0553,11.1467,11.1906,11.2346,11.2583,11.2752,11.2651,11.2448,11.2042,11.1602,11.1534,11.2076,11.2312,11.2515,11.2718,11.3598,11.3835,11.3124,11.2752,11.2617,11.2177,11.1839,11.1771,11.1737,11.1703,11.1636,11.1467,11.1399,11.1399,11.1399,11.1399,11.1365,11.1331,11.1298,11.1128,11.1162,11.079,11.0486,6.6112,6.6112,6.6112,6.6262,6.6538,6.684,6.7091,6.7367,6.7668,6.7442,6.694,6.7862,6.9591,7.1974,7.4307,7.7118,7.985,8.2281,8.3514,8.4098,8.42,8.4412,8.4383,8.4124,8.4426,8.4589,8.5813,8.6689,8.6808,8.6898,8.6898,8.6808,8.6928,8.7347,8.7766,8.8005,8.8634,8.9561,8.9681,8.983,9.001,9.0429,9.0638,9.0638,9.0638,9.0638,9.0804,9.1402,9.2023,9.3286,9.5175,9.7464,9.9739,10.072,10.2183,10.3396,10.4203,10.4741,10.511,10.5445,10.5513,10.5276,10.5005,10.5107,10.5614,10.5479,10.5783,10.6595,10.7306,10.7745,10.7982,10.8151,10.849,10.8862,10.9505,11.0046,11.0959,11.1974,11.2515,11.282,11.2989,11.2854,11.2921,11.2617,11.2346,11.1974,11.1568,11.1906,11.2414,11.3023,11.3226,11.353,11.4376,11.4342,11.353,11.3293,11.3293,11.2786,11.2076,11.1873,11.1737,11.1873,11.1873,11.1568,11.1399,11.1399,11.1399,11.1399,11.1399,11.1365,11.1365,11.1331,11.1399,11.1399,11.1061,6.6112,6.6112,6.6112,6.6438,6.6965,6.7066,6.7417,6.7869,6.7995,6.8045,6.802,6.8045,6.9604,7.1267,7.2957,7.5875,7.8504,8.0599,8.2406,8.3953,8.4229,8.3698,8.341,8.3481,8.384,8.4859,8.6249,8.6709,8.6958,8.7167,8.7347,8.7107,8.7407,8.7885,8.8095,8.8514,8.9232,8.9741,8.998,9.016,9.0429,9.0638,9.0638,9.0638,9.0638,9.0638,9.0638,9.0721,9.1104,9.2581,9.4458,9.6805,9.8435,9.9661,10.1404,10.2773,10.3693,10.4572,10.5482,10.602,10.5682,10.531,10.5005,10.5242,10.5851,10.6257,10.6561,10.7001,10.7712,10.8151,10.8388,10.8794,10.9166,10.9674,11.035,11.1061,11.2177,11.3158,11.3395,11.3632,11.3564,11.3361,11.3124,11.282,11.238,11.1974,11.1974,11.238,11.2921,11.3632,11.4105,11.4376,11.4917,11.4579,11.3936,11.3869,11.3936,11.2955,11.2245,11.194,11.1771,11.1974,11.194,11.1568,11.1433,11.1568,11.1467,11.1399,11.1399,11.1399,11.1399,11.1399,11.1399,11.1399,11.1399,6.6112,6.6112,6.6112,6.6463,6.699,6.7467,6.7945,6.8497,6.8924,6.9125,6.9049,6.9164,6.9955,7.0984,7.2381,7.4476,7.6649,7.8754,8.0985,8.2802,8.2585,8.2292,8.2051,8.2029,8.3068,8.4456,8.6054,8.7276,8.7347,8.7826,8.8245,8.8215,8.8304,8.8723,8.9232,8.9561,8.9741,9.016,9.0339,9.0489,9.0519,9.0638,9.0638,9.0638,9.0638,9.0638,9.0638,9.0638,9.1051,9.2218,9.4095,9.615,9.7534,9.8747,10.0442,10.2063,10.2962,10.4363,10.5414,10.6258,10.6156,10.6257,10.6156,10.6358,10.69,10.7306,10.7543,10.7678,10.8253,10.8625,10.893,10.964,11.0147,11.0858,11.1568,11.2312,11.3226,11.3666,11.3936,11.4139,11.4274,11.4139,11.4004,11.3564,11.2989,11.2651,11.2448,11.2921,11.3801,11.441,11.4951,11.5188,11.5425,11.512,11.4647,11.4511,11.4342,11.326,11.238,11.2042,11.194,11.2177,11.2042,11.1771,11.1805,11.1974,11.1805,11.1399,11.1399,11.1399,11.1399,11.1399,11.1433,11.1501,11.1636]}]]